[[{"header":{"parameterUnit":"m.s-1","parameterCategory":1,"la1":30.6,"la2":28.766,"lo1":-90.7593,"lo2":-88.6598,"dy":0.0162,"dx":0.0183,"nx":116,"ny":114,"refTime":"2023-02-23T18:00:00:Z","depth":0,"parameterNumber":2,"parameterNumberName":"U-component_of_WINDS"},"data":[0.0,0.0,0.0,0.0,0.0,0.0,0.0,0.0,0.0,0.0,0.0,0.0,0.0,0.0,0.0,0.0,0.0,0.0,0.0,0.0,0.0,0.0,0.0,0.0,0.0,0.0,0.0,0.0,0.0,0.0,0.0,0.0,0.0,0.0,0.0,0.0,0.0,0.0,0.0,0.0,0.0,0.0,0.0,0.0,0.0,0.0,0.0,0.0,0.0,0.0,0.0,0.0,0.0,0.0,0.0,0.0,0.0,0.0,0.0,0.0,0.0,0.0,0.0,0.0,0.0,0.0,0.0,0.0,0.0,0.0,0.0,0.0,0.0,0.0,0.0,0.0,0.0,0.0,0.0,0.0,0.0,0.0,0.0,0.0,0.0,0.0,0.0,0.0,0.0,0.0,0.0,0.0,0.0,0.0,0.0,0.0,0.0,0.0,0.0,0.0,0.0,0.0,0.0,0.0,0.0,0.0,0.0,0.0,0.0,0.0,0.0,0.0,0.0,0.0,0.0,0.0,0.0,0.0,0.0,0.0,0.0,0.0,0.0,0.0,0.0,0.0,0.0,0.0,0.0,0.0,0.0,0.0,0.0,0.0,0.0,0.0,0.0,0.0,0.0,0.0,0.0,0.0,0.0,0.0,0.0,0.0,0.0,0.0,0.0,0.0,0.0,0.0,0.0,0.0,0.0,0.0,0.0,0.0,0.0,0.0,0.0,0.0,0.0,0.0,0.0,0.0,0.0,0.0,0.0,0.0,0.0,0.0,0.0,0.0,0.0,0.0,0.0,0.0,0.0,0.0,0.0,0.0,0.0,0.0,0.0,0.0,0.0,0.0,0.0,0.0,0.0,0.0,0.0,0.0,0.0,0.0,0.0,0.0,0.0,0.0,0.0,0.0,0.0,0.0,0.0,0.0,0.0,0.0,0.0,0.0,0.0,0.0,0.0,0.0,0.0,0.0,0.0,0.0,0.0,0.0,0.0,0.0,0.0,0.0,0.0,0.0,0.0,0.0,0.0,0.0,0.0,0.0,0.0,0.0,0.0,0.0,0.0,0.0,0.0,0.0,0.0,0.0,0.0,0.0,0.0,0.0,0.0,0.0,0.0,0.0,0.0,0.0,0.0,0.0,0.0,0.0,0.0,0.0,0.0,0.0,0.0,0.0,0.0,0.0,0.0,0.0,0.0,0.0,0.0,0.0,0.0,0.0,0.0,0.0,0.0,0.0,0.0,0.0,0.0,0.0,0.0,0.0,0.0,0.0,0.0,0.0,0.0,0.0,0.0,0.0,0.0,0.0,0.0,0.0,0.0,0.0,0.0,0.0,0.0,0.0,0.0,0.0,0.0,0.0,0.0,0.0,0.0,0.0,0.0,0.0,0.0,0.0,0.0,0.0,0.0,0.0,0.0,0.0,0.0,0.0,0.0,0.0,0.0,0.0,0.0,0.0,0.0,0.0,0.0,0.0,0.0,0.0,0.0,0.0,0.0,0.0,0.0,0.0,0.0,0.0,0.0,0.0,0.0,0.0,0.0,0.0,0.0,0.0,0.0,0.0,0.0,0.0,0.0,0.0,0.0,0.0,0.0,0.0,0.0,0.0,0.0,0.0,0.0,0.0,0.0,0.0,0.0,0.0,0.0,0.0,0.0,0.0,0.0,0.0,0.0,0.0,0.0,0.0,0.0,0.0,0.0,0.0,0.0,0.0,0.0,0.0,0.0,0.0,0.0,0.0,0.0,0.0,0.0,0.0,0.0,0.0,0.0,0.0,0.0,0.0,0.0,0.0,0.0,0.0,0.0,0.0,0.0,0.0,0.0,0.0,0.0,0.0,0.0,0.0,0.0,0.0,0.0,0.0,0.0,0.0,0.0,0.0,0.0,0.0,0.0,0.0,0.0,0.0,0.0,0.0,0.0,0.0,0.0,0.0,0.0,0.0,0.0,0.0,0.0,0.0,0.0,0.0,0.0,0.0,0.0,0.0,0.0,0.0,0.0,0.0,0.0,0.0,0.0,0.0,0.0,0.0,0.0,0.0,0.0,0.0,0.0,0.0,0.0,0.0,0.0,0.0,0.0,0.0,0.0,0.0,0.0,0.0,0.0,0.0,0.0,0.0,0.0,0.0,0.0,0.0,0.0,0.0,0.0,0.0,0.0,0.0,0.0,0.0,0.0,0.0,0.0,0.0,0.0,0.0,0.0,0.0,0.0,0.0,0.0,0.0,0.0,0.0,0.0,0.0,0.0,0.0,0.0,0.0,0.0,0.0,0.0,0.0,0.0,0.0,0.0,0.0,0.0,0.0,0.0,0.0,0.0,0.0,0.0,0.0,0.0,0.0,0.0,0.0,0.0,0.0,0.0,0.0,0.0,0.0,0.0,0.0,0.0,0.0,0.0,0.0,0.0,0.0,0.0,0.0,0.0,0.0,0.0,0.0,0.0,0.0,0.0,0.0,0.0,0.0,0.0,0.0,0.0,0.0,0.0,0.0,0.0,0.0,0.0,0.0,0.0,0.0,0.0,0.0,0.0,0.0,0.0,0.0,0.0,0.0,0.0,0.0,0.0,0.0,0.0,0.0,0.0,0.0,0.0,0.0,0.0,0.0,0.0,0.0,0.0,0.0,0.0,0.0,0.0,0.0,0.0,0.0,0.0,0.0,0.0,0.0,0.0,0.0,0.0,0.0,0.0,0.0,0.0,0.0,0.0,0.0,0.0,0.0,0.0,0.0,0.0,0.0,0.0,0.0,0.0,0.0,0.0,0.0,0.0,0.0,0.0,0.0,0.0,0.0,0.0,0.0,0.0,0.0,0.0,0.0,0.0,0.0,0.0,0.0,0.0,0.0,0.0,0.0,0.0,0.0,0.0,0.0,0.0,0.0,0.0,0.0,0.0,0.0,0.0,0.0,0.0,0.0,0.0,0.0,0.0,0.0,0.0,0.0,0.0,0.0,0.0,0.0,0.0,0.0,0.0,0.0,0.0,0.0,0.0,0.0,0.0,0.0,0.0,0.0,0.0,0.0,0.0,0.0,0.0,0.0,0.0,0.0,0.0,0.0,0.0,0.0,0.0,0.0,0.0,0.0,0.0,0.0,0.0,0.0,0.0,0.0,0.0,0.0,0.0,0.0,0.0,0.0,0.0,0.0,0.0,0.0,0.0,0.0,0.0,0.0,0.0,0.0,0.0,0.0,0.0,0.0,0.0,0.0,0.0,0.0,0.0,0.0,0.0,0.0,0.0,0.0,0.0,0.0,0.0,0.0,0.0,0.0,0.0,0.0,0.0,0.0,0.0,0.0,0.0,0.0,0.0,0.0,0.0,0.0,0.0,0.0,0.0,0.0,0.0,0.0,0.0,0.0,0.0,0.0,0.0,0.0,0.0,0.0,0.0,0.0,0.0,0.0,0.0,0.0,0.0,0.0,0.0,0.0,0.0,0.0,0.0,0.0,0.0,0.0,0.0,0.0,0.0,0.0,0.0,0.0,0.0,0.0,0.0,0.0,0.0,0.0,0.0,0.0,0.0,0.0,0.0,0.0,0.0,0.0,0.0,0.0,0.0,0.0,0.0,0.0,0.0,0.0,0.0,0.0,0.0,0.0,0.0,0.0,0.0,0.0,0.0,0.0,0.0,0.0,0.0,0.0,0.0,0.0,0.0,0.0,0.0,0.0,0.0,0.0,0.0,0.0,0.0,0.0,0.0,0.0,0.0,0.0,0.0,0.0,0.0,0.0,0.0,0.0,0.0,0.0,0.0,0.0,0.0,0.0,0.0,0.0,0.0,0.0,0.0,0.0,0.0,0.0,0.0,0.0,0.0,0.0,0.0,0.0,0.0,0.0,0.0,0.0,0.0,0.0,0.0,0.0,0.0,0.0,0.0,0.0,0.0,0.0,0.0,0.0,0.0,0.0,0.0,0.0,0.0,0.0,0.0,0.0,0.0,0.0,0.0,0.0,0.0,0.0,0.0,0.0,0.0,0.0,0.0,0.0,0.0,0.0,0.0,0.0,0.0,0.0,0.0,0.0,0.0,0.0,0.0,0.0,0.0,0.0,0.0,0.0,0.0,0.0,0.0,0.0,0.0,0.0,0.0,0.0,0.0,0.0,0.0,0.0,0.0,0.0,0.0,0.0,0.0,0.0,0.0,0.0,0.0,0.0,0.0,0.0,0.0,0.0,0.0,0.0,0.0,0.0,0.0,0.0,0.0,0.0,0.0,0.0,0.0,0.0,0.0,0.0,0.0,0.0,0.0,0.0,0.0,0.0,0.0,0.0,0.0,0.0,0.0,0.0,0.0,0.0,0.0,0.0,0.0,0.0,0.0,0.0,0.0,0.0,0.0,0.0,0.0,0.0,0.0,0.0,0.0,0.0,0.0,0.0,0.0,0.0,0.0,0.0,0.0,0.0,0.0,0.0,0.0,0.0,0.0,0.0,0.0,0.0,0.0,0.0,0.0,0.0,0.0,0.0,0.0,0.0,0.0,0.0,0.0,0.0,0.0,0.0,0.0,0.0,0.0,0.0,0.0,0.0,0.0,0.0,0.0,0.0,0.0,0.0,0.0,0.0,0.0,0.0,0.0,0.0,0.0,0.0,0.0,0.0,0.0,0.0,0.0,0.0,0.0,0.0,0.0,0.0,0.0,0.0,0.0,0.0,0.0,0.0,0.0,0.0,0.0,0.0,0.0,0.0,0.0,0.0,0.0,0.0,0.0,0.0,0.0,0.0,0.0,0.0,0.0,0.0,0.0,0.0,0.0,0.0,0.0,0.0,0.0,0.0,0.0,0.0,0.0,0.0,0.0,0.0,0.0,0.0,0.0,0.0,0.0,0.0,0.0,0.0,0.0,0.0,0.0,0.0,0.0,0.0,0.0,0.0,0.0,0.0,0.0,0.0,0.0,0.0,0.0,0.0,0.0,0.0,0.0,0.0,0.0,0.0,0.0,0.0,0.0,0.0,0.0,0.0,0.0,0.0,0.0,0.0,0.0,0.0,0.0,0.0,0.0,0.0,0.0,0.0,0.0,0.0,0.0,0.0,0.0,0.0,0.0,0.0,0.0,0.0,0.0,0.0,0.0,0.0,0.0,0.0,0.0,0.0,0.0,0.0,0.0,0.0,0.0,0.0,0.0,0.0,0.0,0.0,0.0,0.0,0.0,0.0,0.0,0.0,0.0,0.0,0.0,0.0,0.0,0.0,0.0,0.0,0.0,0.0,0.0,0.0,0.0,0.0,0.0,0.0,0.0,0.0,0.0,0.0,0.0,0.0,0.0,0.0,0.0,0.0,0.0,0.0,0.0,0.0,0.0,0.0,0.0,0.0,0.0,0.0,0.0,0.0,0.0,0.0,0.0,0.0,0.0,0.0,0.0,0.0,0.0,0.0,0.0,0.0,0.0,0.0,0.0,0.0,0.0,0.0,0.0,0.0,0.0,0.0,0.0,0.0,0.0,0.0,0.0,0.0,0.0,0.0,0.0,0.0,0.0,0.0,0.0,0.0,0.0,0.0,0.0,0.0,0.0,0.0,0.0,0.0,0.0,0.0,0.0,0.0,0.0,0.0,0.0,0.0,0.0,0.0,0.0,0.0,0.0,0.0,0.0,0.0,0.0,0.0,0.0,0.0,0.0,0.0,0.0,0.0,0.0,0.0,0.0,0.0,0.0,0.0,0.0,0.0,0.0,0.0,0.0,0.0,0.0,0.0,0.0,0.0,0.0,0.0,0.0,0.0,0.0,0.0,0.0,0.0,0.0,0.0,0.0,0.0,0.0,0.0,0.0,0.0,0.0,0.0,0.0,0.0,0.0,0.0,0.0,0.0,0.0,0.0,0.0,0.0,0.0,0.0,0.0,0.0,0.0,0.0,0.0,0.0,0.0,0.0,0.0,0.0,0.0,0.0,0.0,0.0,0.0,0.0,0.0,0.0,0.0,0.0,0.0,0.0,0.0,0.0,0.0,0.0,0.0,0.0,0.0,0.0,0.0,0.0,0.0,0.0,0.0,0.0,0.0,0.0,0.0,0.0,0.0,0.0,0.0,0.0,0.0,0.0,0.0,0.0,0.0,0.0,0.0,0.0,0.0,0.0,0.0,0.0,0.0,0.0,0.0,0.0,0.0,0.0,0.0,0.0,-2.4275,0.0,0.0,0.0,0.0,0.0,0.0,0.0,0.0,0.0,0.0,0.0,0.0,0.0,0.0,0.0,0.0,0.0,0.0,0.0,0.0,0.0,0.0,0.0,0.0,0.0,0.0,0.0,0.0,0.0,0.0,0.0,0.0,0.0,0.0,0.0,0.0,0.0,0.0,0.0,0.0,0.0,0.0,0.0,0.0,0.0,0.0,0.0,0.0,0.0,0.0,0.0,0.0,0.0,0.0,0.0,0.0,0.0,0.0,0.0,0.0,0.0,0.0,0.0,0.0,0.0,0.0,0.0,0.0,0.0,0.0,0.0,0.0,0.0,0.0,0.0,0.0,0.0,0.0,0.0,0.0,0.0,0.0,0.0,0.0,0.0,0.0,0.0,0.0,0.0,0.0,0.0,0.0,0.0,0.0,0.0,0.0,0.0,0.0,0.0,0.0,0.0,0.0,0.0,0.0,0.0,0.0,0.0,0.0,0.0,0.0,0.0,0.0,0.0,0.0,0.0,0.0,-2.4058,0.0,0.0,0.0,0.0,0.0,0.0,0.0,0.0,0.0,0.0,0.0,0.0,0.0,0.0,0.0,0.0,0.0,0.0,0.0,0.0,0.0,0.0,0.0,0.0,0.0,0.0,0.0,0.0,0.0,0.0,0.0,0.0,0.0,0.0,0.0,0.0,0.0,0.0,0.0,0.0,0.0,0.0,0.0,0.0,0.0,0.0,0.0,0.0,0.0,0.0,0.0,0.0,0.0,0.0,0.0,0.0,0.0,0.0,0.0,0.0,0.0,0.0,0.0,0.0,0.0,0.0,0.0,0.0,0.0,0.0,0.0,0.0,0.0,0.0,0.0,0.0,0.0,0.0,0.0,0.0,0.0,0.0,0.0,0.0,0.0,0.0,0.0,0.0,0.0,0.0,0.0,0.0,0.0,0.0,0.0,0.0,0.0,0.0,0.0,0.0,0.0,0.0,0.0,0.0,0.0,0.0,0.0,0.0,0.0,-2.6553,-2.7334,-2.7185,-2.7111,-2.7037,-2.5559,-2.4728,-2.4451,0.0,0.0,0.0,0.0,0.0,0.0,0.0,0.0,0.0,0.0,0.0,0.0,0.0,0.0,0.0,0.0,0.0,0.0,0.0,0.0,0.0,0.0,0.0,0.0,0.0,0.0,0.0,0.0,0.0,0.0,0.0,0.0,0.0,0.0,0.0,0.0,0.0,0.0,0.0,-3.0126,-3.1654,-3.2274,-3.1955,0.0,0.0,0.0,0.0,0.0,0.0,0.0,0.0,0.0,0.0,0.0,0.0,0.0,0.0,0.0,0.0,0.0,0.0,0.0,0.0,0.0,0.0,0.0,0.0,0.0,0.0,0.0,0.0,0.0,0.0,0.0,0.0,0.0,0.0,0.0,0.0,0.0,0.0,0.0,0.0,0.0,0.0,0.0,0.0,-2.4847,-2.4723,0.0,0.0,0.0,0.0,0.0,0.0,0.0,0.0,0.0,0.0,0.0,0.0,0.0,0.0,-2.554,-2.6219,-2.6981,-2.778,-2.778,-2.8244,-2.9043,-2.8282,-2.7947,-2.7891,-2.6981,0.0,-2.6256,-2.6256,0.0,0.0,0.0,0.0,0.0,0.0,0.0,0.0,0.0,0.0,0.0,0.0,0.0,0.0,0.0,0.0,0.0,0.0,0.0,0.0,0.0,0.0,0.0,0.0,0.0,0.0,0.0,0.0,0.0,0.0,0.0,0.0,0.0,0.0,0.0,0.0,-2.9696,-3.139,-3.2759,-3.4027,-3.4589,-3.4482,-3.2633,-3.092,-2.9299,-2.7692,0.0,0.0,0.0,0.0,0.0,0.0,0.0,0.0,0.0,0.0,0.0,0.0,0.0,0.0,0.0,0.0,0.0,0.0,0.0,0.0,0.0,0.0,0.0,0.0,0.0,0.0,0.0,0.0,0.0,0.0,0.0,0.0,0.0,0.0,0.0,0.0,0.0,0.0,0.0,-2.4854,-2.4764,-2.4715,-2.47,-2.47,0.0,0.0,0.0,0.0,0.0,0.0,0.0,0.0,0.0,-2.5846,-2.6191,-2.6591,-2.7037,-2.739,-2.8226,-2.9508,-2.9508,-2.9935,-3.0734,-3.0344,-3.0177,-3.014,-2.9322,-2.8918,-2.8696,-2.6854,-2.5373,-2.4288,0.0,0.0,0.0,0.0,0.0,-2.5602,0.0,0.0,0.0,0.0,0.0,0.0,0.0,0.0,0.0,0.0,0.0,0.0,0.0,0.0,0.0,0.0,0.0,0.0,0.0,0.0,0.0,0.0,0.0,0.0,0.0,0.0,0.0,0.0,-3.2628,-3.4543,-3.6057,-3.7135,-3.7754,-3.7967,-3.7519,-3.4977,-3.0898,-2.9175,-2.785,0.0,0.0,0.0,0.0,0.0,0.0,0.0,0.0,0.0,0.0,0.0,0.0,0.0,0.0,0.0,0.0,0.0,0.0,0.0,0.0,0.0,0.0,0.0,0.0,0.0,0.0,0.0,0.0,0.0,0.0,0.0,0.0,0.0,0.0,0.0,0.0,0.0,0.0,-2.493,-2.4971,-2.4726,-2.4895,-2.4951,0.0,0.0,0.0,0.0,0.0,0.0,-2.6075,-2.631,-2.6656,-2.7185,-2.7613,-2.8133,-2.8728,-2.8951,-2.9787,-3.1218,-3.1218,-3.1645,-3.2407,-3.2202,-3.2109,-3.2072,-3.1255,-3.066,-3.0103,-2.765,-2.5994,-2.4966,-2.4966,-2.4581,-2.4075,-2.4336,-2.5011,-2.5833,0.0,0.0,0.0,0.0,0.0,0.0,0.0,0.0,0.0,0.0,0.0,0.0,0.0,0.0,0.0,0.0,0.0,0.0,0.0,0.0,0.0,0.0,0.0,0.0,0.0,0.0,0.0,-3.2914,-3.7077,-3.9578,-4.0507,-4.2144,-4.3363,-4.4072,-4.2415,-3.9336,-3.5127,-3.1053,-2.9755,-3.0151,0.0,0.0,0.0,0.0,0.0,0.0,0.0,0.0,0.0,0.0,0.0,0.0,0.0,0.0,0.0,0.0,0.0,0.0,0.0,0.0,0.0,0.0,0.0,0.0,0.0,0.0,0.0,0.0,0.0,0.0,0.0,0.0,0.0,0.0,0.0,0.0,0.0,0.0,0.0,-2.4817,-2.5429,0.0,0.0,0.0,0.0,-2.5787,-2.5835,-2.6156,-2.6907,-2.7661,-2.807,-2.804,-2.9582,-3.0437,-3.0474,-3.1236,-3.2035,-3.289,-3.289,-3.3287,-3.4048,-3.3287,-3.2946,-3.289,-3.2091,-3.0864,-2.9452,-2.9266,-2.8577,-2.7618,-2.7618,-2.6739,-2.5704,-2.7409,-2.7681,-2.7327,0.0,0.0,0.0,0.0,0.0,0.0,0.0,0.0,0.0,0.0,0.0,0.0,0.0,0.0,0.0,0.0,0.0,0.0,0.0,0.0,0.0,0.0,0.0,0.0,0.0,0.0,-3.3847,-3.7212,-3.9823,-4.1545,-4.2434,-4.3595,-4.4001,-4.3769,-4.3711,-4.2241,-3.9533,-3.5272,-3.2388,-3.05,-2.8199,-2.6938,0.0,0.0,0.0,0.0,0.0,0.0,0.0,0.0,0.0,0.0,0.0,0.0,0.0,0.0,0.0,0.0,0.0,0.0,0.0,0.0,0.0,0.0,0.0,0.0,0.0,0.0,0.0,0.0,0.0,0.0,0.0,0.0,0.0,0.0,0.0,0.0,0.0,-2.7251,-2.792,0.0,0.0,-2.7083,-2.7189,-2.7436,-2.7482,-2.8063,-2.9323,-2.9648,-3.0037,-3.0538,-3.1072,-3.1626,-3.2147,-3.2425,-3.2983,-3.377,-3.377,-3.3918,-3.4179,-3.39,-3.377,-3.3733,-3.2927,-3.1961,-3.0939,-3.0939,-2.9466,-2.7197,-2.7025,-2.6884,-2.6747,-2.655,-2.724,-2.8209,0.0,0.0,0.0,0.0,0.0,0.0,0.0,0.0,0.0,0.0,0.0,0.0,0.0,0.0,0.0,0.0,0.0,0.0,0.0,0.0,0.0,0.0,0.0,0.0,0.0,-3.3513,-3.6632,-4.0332,-4.2318,-4.373,-4.4581,-4.4871,-4.5007,-4.5026,-4.5007,-4.4401,-4.3124,-3.9733,-3.6351,-3.3054,-3.02,-2.9226,-2.9235,0.0,0.0,0.0,0.0,0.0,0.0,0.0,0.0,0.0,0.0,0.0,0.0,0.0,0.0,0.0,0.0,0.0,0.0,0.0,0.0,0.0,0.0,0.0,0.0,0.0,0.0,0.0,0.0,0.0,0.0,0.0,0.0,0.0,0.0,0.0,-2.8338,-2.8963,-2.9671,-2.9777,-2.8923,-2.8848,-2.8914,-2.912,-2.9167,-2.9775,-3.1071,-3.1374,-3.1763,-3.2292,-3.2497,-3.302,-3.3838,-3.3838,-3.4116,-3.4637,-3.4637,-3.4476,-3.4197,-3.4197,-3.4197,-3.416,-3.3652,-3.2946,-3.2184,-3.1905,-3.0363,-2.8142,-2.7951,-2.8069,-2.8203,-2.734,-2.8225,-2.9733,0.0,0.0,0.0,0.0,0.0,0.0,0.0,0.0,0.0,0.0,0.0,0.0,0.0,0.0,0.0,0.0,0.0,0.0,0.0,0.0,0.0,0.0,0.0,0.0,-3.1947,-3.6124,-3.9533,-4.2125,-4.4627,-4.6271,-4.7076,-4.6271,-4.6767,-4.8295,-4.6593,-4.5826,-4.5691,-4.4105,-4.1572,-3.8179,-3.2998,-3.2385,-3.4057,0.0,0.0,0.0,0.0,0.0,0.0,0.0,0.0,0.0,0.0,0.0,0.0,0.0,0.0,0.0,0.0,0.0,0.0,0.0,0.0,0.0,0.0,0.0,0.0,0.0,0.0,0.0,0.0,0.0,0.0,0.0,0.0,0.0,-2.7682,-2.9034,-2.9981,-2.987,-3.0584,-3.0781,-2.9964,-2.9889,-3.0189,-3.0909,-3.0928,-3.1283,-3.212,-3.2821,-3.3187,-3.3224,-3.3899,-3.4692,-3.5529,-3.551,-3.551,-3.551,-3.5473,-3.5027,-3.4197,-3.4197,-3.4197,-3.4197,-3.416,-3.3714,-3.2946,-3.2128,-3.1329,-3.0604,-3.0556,-3.0378,-3.0125,-3.0027,-3.078,-3.1789,0.0,0.0,0.0,0.0,0.0,0.0,0.0,0.0,0.0,0.0,0.0,0.0,0.0,0.0,0.0,0.0,0.0,0.0,0.0,0.0,0.0,0.0,0.0,0.0,-3.6336,-3.8837,-4.1622,-4.4762,-4.609,-4.6864,-4.7115,-4.7502,-4.7599,-4.7444,-4.696,-4.6387,-4.5729,-4.4705,-4.4096,-4.3338,-3.7638,-3.5044,-3.4306,0.0,0.0,0.0,0.0,0.0,0.0,0.0,0.0,0.0,0.0,0.0,0.0,0.0,0.0,0.0,0.0,0.0,0.0,0.0,0.0,0.0,0.0,0.0,0.0,0.0,0.0,0.0,0.0,0.0,0.0,0.0,0.0,-3.0398,-2.9658,-3.1216,-3.2684,-3.3327,-3.4574,-3.5071,-3.4264,-3.4207,-3.4261,-3.4412,-3.3883,-3.4164,-3.5544,-3.5247,-3.5306,-3.5837,-3.6,-3.618,-3.6383,-3.5789,-3.551,-3.5491,-3.486,-3.442,-3.4197,-3.4197,-3.4197,-3.416,-3.3577,-3.3194,-3.2946,-3.2128,-3.1329,-3.0519,-2.9743,-3.005,-3.0812,-3.0062,-3.0306,-3.0894,0.0,0.0,0.0,0.0,0.0,0.0,0.0,0.0,0.0,0.0,0.0,0.0,0.0,0.0,0.0,0.0,0.0,0.0,0.0,0.0,0.0,0.0,0.0,-3.5143,-3.9204,-4.1332,-4.3692,-4.6348,-4.7212,-4.7831,-4.8198,-4.8333,-4.8121,-4.7637,-4.725,-4.6619,-4.5768,-4.5338,-4.5428,-4.5568,-4.1806,-3.9734,-3.8562,-3.5423,-3.4059,-3.3569,-3.1621,-3.1348,-3.1543,-2.9297,0.0,0.0,0.0,0.0,0.0,0.0,0.0,0.0,0.0,0.0,0.0,0.0,0.0,0.0,0.0,0.0,0.0,0.0,0.0,0.0,0.0,0.0,0.0,0.0,-3.1384,-3.281,-3.2968,-3.4017,-3.5086,-3.5921,-3.6733,-3.7041,-3.657,-3.6453,-3.6393,-3.6339,-3.5905,-3.6066,-3.6989,-3.656,-3.6494,-3.6889,-3.6827,-3.6931,-3.7201,-3.6736,-3.6346,-3.6012,-3.5479,-3.4884,-3.4197,-3.4197,-3.4197,0.0,-3.3714,-3.3491,-3.3436,-3.263,-3.2035,0.0,0.0,0.0,0.0,0.0,-3.1034,-3.083,0.0,0.0,0.0,0.0,0.0,0.0,0.0,0.0,0.0,0.0,0.0,0.0,0.0,0.0,0.0,0.0,0.0,0.0,0.0,0.0,0.0,-3.3706,-3.6162,-3.8702,-4.1319,-4.3769,-4.5761,-4.725,-4.8121,-4.8933,-4.9687,-4.901,-4.8624,-4.8508,-4.7734,-4.6902,-4.6097,-4.617,-4.6184,-4.6118,-4.5429,-4.4986,-4.4245,-3.9561,-3.8612,-3.939,-3.6267,-3.4764,-3.3982,-3.2147,0.0,0.0,0.0,0.0,0.0,0.0,0.0,0.0,0.0,0.0,0.0,0.0,0.0,0.0,0.0,0.0,0.0,0.0,0.0,0.0,0.0,0.0,0.0,0.0,-3.3554,-3.5277,-3.6927,-3.7338,-3.7543,-3.7791,-3.7823,-3.7781,-3.7686,-3.7502,-3.7373,-3.7373,-3.7298,-3.7279,-3.7373,0.0,0.0,0.0,0.0,-3.7396,-3.8024,-3.7949,-3.7541,-3.6829,-3.6662,-3.5776,-3.4327,-3.4234,-3.4197,-3.4179,-3.4104,-3.4123,-3.4123,-3.3231,-3.2927,-3.2915,-3.2221,-3.1886,-3.1886,-3.2611,-3.2145,0.0,0.0,0.0,0.0,0.0,0.0,0.0,0.0,0.0,0.0,0.0,0.0,0.0,0.0,0.0,0.0,0.0,0.0,0.0,0.0,0.0,-3.4137,-3.8088,-4.0036,-4.2202,-4.4782,-4.6689,-4.7811,-4.814,-4.903,-4.9533,-4.9707,-5.0183,-5.0066,-4.9436,-4.9262,-4.8701,-4.7889,-4.7915,-4.7925,-4.7908,-4.7858,-4.6251,-4.3679,-4.1961,-4.0682,-3.9624,-3.8318,-3.8611,-3.9253,-3.6852,-3.6379,-3.6367,-3.3965,0.0,0.0,0.0,0.0,0.0,0.0,0.0,0.0,0.0,0.0,0.0,0.0,0.0,0.0,0.0,0.0,0.0,0.0,0.0,0.0,-3.3596,-3.646,-3.8826,-3.985,-4.1164,-4.1183,-3.8939,-3.9669,-4.0133,-3.9467,-3.9236,-3.912,-3.912,-3.8469,-3.8375,-3.9082,-3.8438,0.0,-3.89,-3.8906,-3.8883,-3.8859,-3.8209,-3.7819,-3.7652,0.0,0.0,-3.5231,-3.4513,-3.4197,-3.416,-3.351,-3.3603,-3.4086,-3.263,-3.2407,-3.2983,-3.2834,-3.237,-3.1831,-3.1979,-3.1337,-3.0253,0.0,0.0,0.0,0.0,0.0,0.0,0.0,0.0,0.0,0.0,0.0,0.0,0.0,0.0,0.0,0.0,0.0,0.0,0.0,-3.4461,-3.7574,-4.1874,-4.3653,-4.5355,-4.7057,-4.8372,-4.9049,-4.9049,-4.99,-5.0299,-5.0299,-5.0705,-5.0473,-4.9707,-4.9707,-4.9223,-4.8392,-4.8392,-4.8394,-4.8417,-4.8469,-4.7539,-4.6017,-4.5215,-4.4101,-4.2904,-4.209,-4.1781,-4.1497,-3.9786,-3.8885,-3.8134,-3.5971,-3.3807,-3.1614,0.0,0.0,0.0,0.0,0.0,0.0,0.0,0.0,0.0,0.0,0.0,0.0,0.0,0.0,-3.0172,0.0,0.0,-3.493,-3.6676,-3.9094,-4.1067,-4.1932,-4.315,-4.3238,-4.1336,-4.1288,-4.138,-4.1317,-4.0711,-4.0354,-4.0354,-3.9958,-3.9712,-3.9743,-3.9346,-3.9192,-3.9399,-3.9405,-3.9288,-3.9101,-3.8692,-3.8302,-3.7894,-3.7076,-3.629,-3.5491,-3.5045,-3.4606,-3.4179,-3.377,-3.3826,-3.4141,-3.3324,-3.3243,-3.3603,-3.3603,-3.3101,-3.2351,-3.1961,-3.1108,-3.0044,0.0,0.0,0.0,0.0,0.0,0.0,0.0,0.0,0.0,0.0,0.0,0.0,0.0,0.0,0.0,0.0,0.0,0.0,0.0,-3.6897,-4.0694,-4.5135,-4.6786,-4.8005,-4.8875,-4.9571,-5.0016,-5.019,-5.0848,-5.1149,-5.1149,-5.1149,-5.0732,-4.9939,-5.0113,-4.9707,-4.8894,-4.9068,-4.9045,-4.888,-4.8903,-4.8881,-4.8749,-4.8181,-4.7343,-4.6347,-4.5536,-4.3899,-4.2148,-4.21,-4.0585,-3.8571,-3.7663,-3.6443,-3.4682,-3.1368,-2.9913,0.0,0.0,0.0,0.0,0.0,0.0,0.0,0.0,0.0,-3.0133,-3.0462,-3.1739,-3.3068,-3.3938,-3.6046,-3.816,-3.9733,-4.139,-4.2744,-4.346,-4.4291,-4.4581,-4.3866,-4.2849,-4.2343,-4.2718,-4.1937,-4.1342,-4.1171,-4.1171,-4.0789,-3.9941,-3.9903,-3.9754,-3.9418,-3.9405,-3.9288,-3.9101,-3.9101,-3.8767,-3.8135,-3.7968,-3.7132,-3.5733,-3.5566,-3.5027,-3.4197,-3.4197,-3.4197,-3.4197,-3.4197,-3.4197,-3.4197,-3.4197,-3.3714,-3.2927,-3.2277,-3.1256,-3.0093,0.0,0.0,0.0,0.0,0.0,0.0,0.0,0.0,0.0,0.0,0.0,0.0,0.0,0.0,0.0,0.0,0.0,0.0,0.0,-3.9011,-4.2744,-4.7753,-4.8894,-4.9784,-5.0589,-5.0724,-5.1138,-5.192,-5.2008,-5.2047,-5.2047,-5.2047,-5.1583,-5.0801,-5.1563,-5.1447,-5.0666,-5.1447,-5.1331,-5.0631,-5.0745,-5.0318,-4.9582,-4.9627,-4.8676,-4.7246,-4.6386,-4.3983,-4.1697,-4.4648,-4.2937,-3.9939,-4.2003,-4.0493,-3.7443,-3.4734,0.0,-2.9175,-2.8104,-2.734,-2.6977,-2.7648,-2.7919,-2.8771,0.0,0.0,-3.3107,-3.4659,-3.5704,-3.6593,-3.7477,-3.9127,-4.0661,-4.1564,-4.3189,-4.4342,-4.4439,-4.5142,-4.5633,-4.5536,-4.4631,-4.3728,-4.303,-4.2699,-4.2192,-4.1418,-4.1361,-4.0939,-3.9951,-3.9903,-3.9754,-3.9418,-3.9405,-3.9288,-3.9101,-3.9101,-3.9045,-3.8952,-3.8228,-3.7429,-3.6551,-3.5826,-3.5027,-3.4197,-3.4197,-3.4197,-3.4197,-3.4197,-3.4197,-3.4197,-3.4197,-3.3714,-3.299,-3.2908,-3.1718,-3.0178,0.0,0.0,0.0,0.0,0.0,0.0,0.0,0.0,0.0,0.0,0.0,0.0,0.0,0.0,0.0,0.0,0.0,0.0,-3.5974,-3.9533,-4.3556,-4.8198,-4.9687,-5.055,-5.0898,-5.1409,-5.1834,-5.221,-5.2713,-5.2713,-5.221,-5.221,-5.1738,-5.0917,-5.1273,-5.1235,-5.0917,-5.1293,-5.1235,-5.0906,-5.0956,-5.0479,-4.9593,-4.8674,-4.6691,-4.4376,-4.4097,-4.2089,0.0,0.0,-3.972,-3.8376,-3.9435,-3.8442,-3.6284,-3.32,-3.0923,0.0,-2.7728,-2.7815,-2.8383,0.0,-3.0266,-3.2227,-3.4181,-3.4988,-3.582,-3.7547,-3.8591,-3.9417,-4.0268,-4.1429,-4.2531,0.0,-4.411,-4.4755,-4.5239,-4.5181,-4.5104,-4.5104,-4.4274,-4.391,-4.441,-4.3037,-4.2178,-4.2312,-4.1852,-4.1184,-4.0298,-4.0139,-3.9937,-3.9637,-3.9489,-3.9315,-3.9156,-3.9129,-3.9101,-3.9082,-3.8284,-3.7466,-3.6681,-3.5882,-3.5027,-3.4197,-3.4197,-3.4197,-3.4197,-3.4197,-3.4197,-3.4197,-3.4197,-3.3714,-3.3001,-3.3001,-3.2219,-3.1127,0.0,0.0,0.0,0.0,0.0,0.0,0.0,0.0,0.0,0.0,0.0,0.0,0.0,0.0,0.0,0.0,0.0,0.0,0.0,-3.8953,-4.3227,-4.7502,-4.9552,0.0,-5.0898,-5.1525,-5.195,-5.221,-5.2821,-5.2821,-5.221,-5.221,-5.1738,-5.0917,-5.1149,-5.113,-5.0917,-5.1149,-5.1142,-5.0966,-5.0966,-5.0331,-4.9187,-4.7266,-4.4458,-4.1515,-4.1615,-3.938,0.0,0.0,-3.6159,-3.5504,-3.6447,-3.6147,-3.4866,-3.1914,-3.0104,-2.8777,-2.7501,0.0,0.0,-3.0537,-3.2924,-3.5435,-3.6792,-3.756,-3.8392,-3.9887,-4.07,-4.1313,-4.1893,-4.2705,-4.3595,-4.4458,-4.4594,-4.4794,-4.5394,-4.4968,-4.4516,-4.4265,-4.3285,-4.3206,-4.4746,-4.3227,-4.2295,-4.2699,-4.214,-4.1413,-4.0554,-4.0356,-4.0167,-3.9895,-3.9606,-3.9407,-3.9279,-3.9151,-3.9101,-3.9082,-3.8507,-3.7689,-3.6649,-3.5621,-3.4804,-3.4197,-3.4197,-3.4197,-3.4197,-3.4197,-3.4197,-3.4197,-3.4197,-3.3844,-3.3324,-3.3324,-3.2816,-3.2109,0.0,0.0,0.0,0.0,0.0,0.0,0.0,0.0,0.0,0.0,0.0,0.0,0.0,0.0,0.0,0.0,0.0,0.0,0.0,-3.7193,-4.1454,-4.5691,-4.8353,-5.0113,-5.0879,-5.0937,-5.1351,-5.221,-5.2229,-5.2229,-5.221,-5.221,-5.1738,-5.0937,-5.1776,-5.1699,-5.0956,-5.1796,-5.1751,-5.1093,-5.1093,-5.0105,-4.8355,-4.5825,-4.2747,-3.9774,-3.9789,0.0,0.0,0.0,-3.364,-3.1471,-3.4789,-3.5236,0.0,-3.2474,-3.0152,0.0,0.0,0.0,-3.1161,-3.3631,-3.5546,-3.7502,-4.0062,-4.0661,-4.0913,-4.1757,-4.1951,-4.197,-4.2009,-4.2705,-4.3595,-4.4458,-4.4594,-4.4613,-4.4632,-4.4613,-4.4284,-4.344,-4.1874,-4.1525,0.0,-4.3298,-4.2911,-4.2099,-4.2002,-4.1556,-4.0543,-4.0489,-4.0364,-4.0101,-3.9765,-3.9552,-3.9481,-3.924,-3.9101,-3.9101,-3.9082,-3.8228,-3.6643,-3.4977,-3.4234,-3.4197,-3.4197,-3.4197,-3.4197,-3.4197,-3.4197,-3.4197,-3.4197,-3.4179,-3.416,-3.416,-3.364,-3.2853,0.0,0.0,0.0,0.0,0.0,0.0,0.0,0.0,0.0,0.0,0.0,0.0,0.0,0.0,0.0,0.0,0.0,0.0,0.0,-3.4951,-3.8404,-4.1499,-4.5196,-4.7288,-4.7502,-4.9223,-5.0519,-5.1351,-5.1912,-5.221,-5.221,-5.221,-5.1738,-5.0887,-5.0692,-5.0442,-5.0158,-4.9906,-4.9338,-4.8525,-4.7946,-4.6708,-4.4861,-4.1691,-3.8396,-3.5229,0.0,0.0,0.0,0.0,0.0,0.0,-3.0331,0.0,0.0,-2.8888,0.0,0.0,0.0,0.0,-3.4458,-3.643,-3.863,-4.0829,-4.286,-4.2434,-4.1835,-4.2686,-4.1525,-4.0332,-4.0332,-4.0584,-4.1235,-4.2647,-4.3363,-4.3943,-4.4516,-4.4594,-4.4052,-4.2609,-4.1932,0.0,0.0,0.0,0.0,-4.1932,-4.2009,-4.1854,-4.1517,-4.1366,-4.1253,-4.1159,-4.0329,-3.9775,-3.9564,-3.9439,-3.9272,-3.9082,-3.8024,-3.6941,-3.5882,-3.5324,-3.4748,-3.4234,-3.481,-3.4729,-3.4197,-3.4197,-3.4197,-3.4197,-3.4197,-3.4197,-3.4197,-3.4197,-3.403,-3.3751,0.0,0.0,0.0,0.0,0.0,0.0,0.0,0.0,0.0,0.0,0.0,0.0,0.0,0.0,0.0,0.0,0.0,0.0,0.0,0.0,-3.5099,-3.7599,-4.0956,-4.2872,-4.3102,-4.4763,-4.588,-4.6403,-4.7262,-4.7695,-4.7714,-4.8341,-4.8328,-4.7805,-4.7953,-4.8005,-4.7971,-4.7454,-4.6578,-4.5449,-4.4569,-4.2857,-4.0465,-3.728,-3.4389,0.0,0.0,0.0,0.0,0.0,0.0,0.0,0.0,0.0,0.0,0.0,0.0,0.0,0.0,-3.4467,-3.7152,-3.9456,-4.1487,-4.3227,-4.4342,-4.3247,-4.199,-4.1951,-4.0133,-3.8572,-3.8572,-3.834,-3.8785,-4.0771,-4.1313,-4.199,-4.346,-4.3672,-4.3363,-4.257,-4.2183,0.0,0.0,0.0,0.0,-4.1506,-4.2125,-4.2338,-4.2028,-4.1882,-4.1812,-4.1812,-4.0713,-4.0053,-3.9853,-3.9717,-3.952,-3.9227,-3.75,-3.6439,-3.5919,-3.5306,-3.4729,-3.4234,-3.4804,-3.4729,-3.4197,-3.4197,-3.4197,-3.4197,-3.4197,-3.4197,-3.4197,-3.4197,-3.4197,-3.416,0.0,0.0,0.0,0.0,0.0,0.0,0.0,0.0,0.0,0.0,0.0,0.0,0.0,0.0,0.0,0.0,0.0,0.0,0.0,0.0,0.0,-3.4072,-3.5933,-3.7269,-3.8016,-3.8132,-3.8191,-3.823,-3.9074,-3.9486,-3.9564,-4.1229,-4.1996,-4.2074,-4.3685,-4.4413,-4.4413,-4.4378,-4.3409,-4.1821,-4.0959,-3.8677,-3.5527,-3.2903,0.0,0.0,0.0,0.0,0.0,0.0,0.0,0.0,0.0,0.0,0.0,0.0,0.0,-3.1593,-3.4976,-3.7146,-3.9256,-4.255,-4.4001,-4.4594,-4.4536,-4.315,-4.139,-3.9713,-3.7986,-3.6748,0.0,0.0,-3.6502,-3.8978,-3.8818,-3.9256,-4.1719,-4.2144,-4.2473,0.0,0.0,0.0,0.0,0.0,0.0,-4.099,0.0,-4.2995,-4.2106,-4.2067,-4.2048,-4.2009,-4.0966,-4.0378,-4.0309,-4.0033,-3.9731,-3.942,-3.7585,-3.6712,-3.6662,-3.5052,-3.4309,-3.4271,-3.4309,-3.4271,-3.4197,-3.4197,-3.4197,-3.4197,-3.4197,-3.4234,-3.4271,-3.4271,-3.429,-3.4197,0.0,0.0,0.0,0.0,0.0,0.0,0.0,0.0,0.0,0.0,0.0,0.0,0.0,0.0,0.0,0.0,0.0,0.0,0.0,0.0,0.0,0.0,0.0,0.0,0.0,0.0,0.0,0.0,0.0,-3.8043,-3.8642,-3.9093,-3.9288,0.0,-3.9187,-3.9134,-3.9097,-3.8494,-3.7629,-3.6559,0.0,-3.4462,-3.2871,0.0,0.0,0.0,0.0,0.0,0.0,0.0,0.0,0.0,0.0,0.0,-2.9126,0.0,0.0,-3.4999,-3.7785,-4.0236,-4.2357,-4.3878,-4.4439,-4.442,-4.3788,-4.1816,-3.9655,-3.7928,-3.6226,-3.464,0.0,0.0,0.0,-3.7367,-3.9514,0.0,-4.2783,-4.404,0.0,-4.3421,0.0,-4.3769,-4.3343,-4.3692,0.0,0.0,-4.3653,-4.3885,-4.3015,-4.2976,-4.2667,-4.2028,-4.1105,-4.0542,-4.037,-4.0053,-3.9459,-3.8594,-3.7446,-3.6845,-3.6686,-3.6259,-3.5751,-3.5213,-3.5807,-3.5349,-3.4197,-3.4197,-3.4197,-3.4197,-3.4197,-3.4599,-3.5175,-3.5175,-3.5547,-3.5943,0.0,0.0,0.0,0.0,0.0,0.0,0.0,0.0,0.0,0.0,0.0,0.0,0.0,0.0,0.0,0.0,0.0,0.0,0.0,0.0,0.0,0.0,0.0,0.0,0.0,0.0,0.0,0.0,0.0,0.0,0.0,-3.412,-3.4471,-3.4493,-3.4859,-3.5005,-3.4987,0.0,0.0,0.0,0.0,0.0,0.0,0.0,0.0,0.0,0.0,0.0,0.0,0.0,0.0,-2.8118,-2.9727,-3.083,-3.2029,-3.4596,0.0,-3.7914,-4.0487,-4.2492,-4.4001,-4.4478,-4.4304,-4.3614,-4.199,-3.992,-3.7754,-3.566,-3.4485,0.0,0.0,0.0,0.0,0.0,0.0,0.0,-4.2454,-4.3866,-4.462,0.0,-4.4833,0.0,-4.4446,-4.4833,-4.4929,0.0,-4.4852,-4.4755,-4.3924,-4.3866,-4.3479,-4.2609,-4.1738,-4.1021,-4.0534,-4.0193,-3.9726,-3.9126,-3.8156,-3.7646,-3.7526,-3.705,-3.6403,-3.5656,0.0,-3.5423,-3.4234,-3.4606,-3.4773,-3.481,-3.5163,-3.5603,-3.603,-3.603,-3.6309,-3.6643,0.0,0.0,0.0,0.0,0.0,0.0,0.0,0.0,0.0,0.0,0.0,0.0,0.0,0.0,0.0,0.0,0.0,0.0,0.0,0.0,0.0,0.0,0.0,0.0,0.0,0.0,0.0,0.0,0.0,0.0,0.0,0.0,0.0,0.0,0.0,0.0,0.0,0.0,0.0,0.0,0.0,0.0,0.0,0.0,0.0,0.0,0.0,0.0,0.0,0.0,-2.9582,-3.0075,-3.2643,-3.404,-3.5226,-3.7793,-3.9166,-4.0352,-4.2802,-4.4098,-4.4736,-4.4632,-4.3866,-4.2454,-3.9907,-3.7889,-3.5878,-3.3436,0.0,-3.2836,-3.1966,0.0,-3.3977,-3.5607,0.0,-3.8392,-4.1719,-4.2918,-4.4059,-4.5613,-4.5807,-4.5807,-4.5807,-4.5807,-4.5807,-4.5807,-4.5807,-4.5452,-4.4632,-4.4594,-4.4149,-4.3169,-4.2299,-4.1467,-4.072,-4.0419,-4.0189,-4.0048,-3.9109,-3.8648,-3.8569,-3.7648,-3.684,-3.6118,0.0,0.0,-3.4587,-3.5361,-3.5659,-3.5733,-3.6439,-3.6773,-3.6866,-3.6866,-3.6928,-3.7002,0.0,0.0,0.0,0.0,0.0,0.0,0.0,0.0,0.0,0.0,-2.6582,-2.5703,0.0,0.0,0.0,0.0,0.0,0.0,0.0,0.0,0.0,0.0,0.0,0.0,0.0,0.0,0.0,0.0,0.0,0.0,0.0,0.0,0.0,0.0,0.0,0.0,0.0,0.0,0.0,0.0,0.0,0.0,0.0,0.0,0.0,0.0,0.0,0.0,0.0,0.0,-3.0834,-3.1811,-3.4427,-3.58,-3.698,-3.9591,-4.0926,-4.197,-4.3866,-4.4968,-4.5432,-4.4775,-4.3401,-4.1564,-3.9011,-3.6555,0.0,0.0,0.0,-3.2836,-3.1966,-3.3692,0.0,-3.6535,0.0,0.0,0.0,0.0,-4.4736,0.0,0.0,0.0,0.0,0.0,0.0,0.0,0.0,0.0,-4.4632,-4.4594,-4.3866,-4.228,-4.1429,-4.0913,-4.07,-4.064,-4.0169,-3.9282,-3.9095,-3.8895,-3.8689,-3.8486,-3.8207,-3.7856,0.0,0.0,-3.629,-3.6439,-3.6495,-3.6513,-3.6662,-3.7113,-3.7689,-3.7689,-3.8098,-3.8581,0.0,0.0,0.0,0.0,0.0,0.0,0.0,-2.7051,-2.7519,-2.8809,-2.8633,-2.8066,-2.7148,-2.623,0.0,0.0,0.0,0.0,0.0,0.0,0.0,0.0,0.0,0.0,0.0,0.0,0.0,0.0,0.0,0.0,0.0,0.0,0.0,0.0,0.0,0.0,0.0,0.0,0.0,0.0,0.0,0.0,0.0,0.0,0.0,0.0,0.0,0.0,0.0,0.0,-3.0532,-3.1868,-3.5773,-3.758,-3.876,-4.1332,-4.2376,-4.3053,-4.4755,-4.551,-4.5497,-4.4233,-4.2299,-4.0036,-3.7483,0.0,0.0,0.0,-3.1831,-3.2295,-3.1889,0.0,0.0,0.0,0.0,0.0,0.0,0.0,0.0,0.0,0.0,0.0,0.0,0.0,0.0,0.0,0.0,0.0,-4.5258,-4.4407,-4.3537,-4.2705,-4.1448,-4.0784,-4.0746,-4.0726,-4.0447,-3.9926,-3.9911,-3.9819,-3.9673,-3.9545,-3.9185,-3.8649,0.0,0.0,-3.6882,-3.7179,-3.7318,-3.7355,-3.7782,-3.8172,-3.8525,-3.8525,-3.8767,-3.9045,0.0,0.0,0.0,0.0,0.0,0.0,0.0,-2.8457,-2.9023,-3.0254,-3.0859,-3.0586,-2.9023,-2.7305,-2.6113,0.0,0.0,0.0,0.0,0.0,0.0,0.0,0.0,0.0,0.0,0.0,0.0,0.0,0.0,0.0,0.0,0.0,0.0,0.0,0.0,0.0,0.0,0.0,0.0,0.0,0.0,0.0,0.0,0.0,0.0,0.0,0.0,0.0,0.0,0.0,-2.9615,-3.0872,-3.5447,-3.7705,-3.9152,-4.1525,-4.2602,-4.3382,-4.5084,-4.5671,-4.5401,-4.373,-4.1371,-3.8824,-3.6289,-3.3673,0.0,0.0,-3.1236,-3.185,-3.2043,0.0,0.0,0.0,0.0,0.0,0.0,0.0,0.0,0.0,0.0,0.0,0.0,0.0,0.0,0.0,0.0,0.0,0.0,-4.4214,-4.3305,-4.3305,-4.1661,-4.0797,-4.0797,-4.0746,-4.0713,-4.0713,-4.0668,-4.0635,-4.0628,-4.0399,-3.9936,-3.9289,0.0,0.0,0.0,-3.8134,-3.8275,-3.8303,-3.8936,-3.9137,-3.9101,-3.9101,-3.9101,-3.9101,0.0,0.0,0.0,0.0,0.0,0.0,0.0,-2.8965,-3.0332,-3.2734,-3.248,-3.1719,-3.0762,-2.9101,-2.7422,0.0,0.0,0.0,0.0,0.0,0.0,0.0,0.0,0.0,0.0,0.0,0.0,0.0,0.0,0.0,0.0,0.0,0.0,0.0,0.0,0.0,0.0,0.0,0.0,0.0,0.0,0.0,0.0,0.0,0.0,0.0,0.0,0.0,0.0,0.0,0.0,-2.8916,-3.1688,-3.4169,-3.6417,-3.8223,0.0,0.0,-4.4233,-4.5239,-4.5401,-4.373,-4.1371,-3.8824,-3.6289,0.0,0.0,-3.0772,-3.1236,-3.2043,-3.2836,-3.377,0.0,0.0,0.0,0.0,0.0,0.0,0.0,0.0,0.0,0.0,0.0,0.0,0.0,0.0,0.0,0.0,0.0,-4.4214,-4.3305,-4.3305,-4.1661,-4.0797,-4.0797,-4.079,-4.079,-4.079,-4.0784,-4.0784,-4.0784,-4.0694,-4.0518,-4.0274,0.0,0.0,0.0,-3.9686,-3.9577,-3.9364,-3.9439,-3.9311,-3.9101,-3.9101,-3.9101,-3.9101,0.0,0.0,0.0,0.0,0.0,0.0,-2.8027,-2.8594,-2.9746,-3.2344,-3.2812,-3.2617,-3.1777,-3.0586,-2.873,0.0,0.0,0.0,0.0,0.0,0.0,0.0,0.0,0.0,0.0,0.0,0.0,0.0,0.0,0.0,0.0,0.0,0.0,0.0,0.0,0.0,0.0,0.0,0.0,0.0,0.0,0.0,0.0,0.0,0.0,0.0,0.0,0.0,0.0,0.0,0.0,0.0,-2.789,-2.9557,0.0,0.0,-3.8583,-4.0366,-4.3086,-4.4059,-4.4001,-4.2821,-4.021,-3.7406,-3.538,0.0,-3.0984,-3.0675,-3.0849,-3.1483,-3.2856,-3.3378,-3.4176,0.0,0.0,0.0,0.0,0.0,0.0,0.0,0.0,0.0,0.0,0.0,0.0,0.0,0.0,0.0,0.0,-4.4214,-4.3305,-4.3305,-4.1661,-4.0797,-4.0797,-4.0797,-4.0797,-4.0797,-4.0797,-4.0797,-4.0797,-4.0733,-4.0666,-4.0564,0.0,0.0,0.0,-3.9953,-3.9816,-3.9671,-3.9556,-3.9421,-3.9324,-3.917,-3.9101,-3.9101,0.0,0.0,0.0,0.0,0.0,-2.6289,-2.8027,-2.8516,-2.9434,-3.1543,-3.2539,-3.2734,-3.1914,-3.0801,-2.9141,-2.668,-2.5996,0.0,0.0,0.0,0.0,0.0,0.0,0.0,0.0,0.0,0.0,0.0,0.0,0.0,0.0,0.0,0.0,0.0,0.0,0.0,0.0,0.0,0.0,0.0,0.0,0.0,0.0,0.0,0.0,0.0,0.0,0.0,0.0,0.0,0.0,0.0,0.0,0.0,0.0,0.0,-3.6098,-3.819,-4.107,-4.2387,-4.2685,-4.1596,-3.9099,-3.6424,0.0,0.0,-3.0595,-3.0602,-3.0791,-3.1391,-3.2836,-3.33,-3.3963,0.0,0.0,0.0,0.0,0.0,0.0,0.0,0.0,0.0,0.0,0.0,0.0,0.0,0.0,0.0,0.0,-4.4078,-4.3305,-4.3305,-4.1661,-4.0797,-4.0797,-4.0797,-4.0797,-4.0797,-4.0797,-4.0797,-4.0797,-4.0746,-4.0733,0.0,0.0,0.0,0.0,-4.0212,-4.0053,-3.9934,-3.9794,-3.969,-3.9604,-3.9421,-3.9313,-3.93,0.0,0.0,0.0,0.0,0.0,0.0,-2.8027,-2.9023,-2.9902,-3.0801,-3.168,-3.1875,-3.1016,-2.9375,-2.8301,-2.8281,-2.6699,0.0,0.0,0.0,0.0,0.0,0.0,0.0,0.0,0.0,0.0,0.0,0.0,0.0,0.0,0.0,0.0,0.0,0.0,0.0,0.0,0.0,0.0,0.0,0.0,0.0,0.0,0.0,0.0,0.0,0.0,0.0,0.0,0.0,0.0,0.0,0.0,0.0,0.0,0.0,-3.2547,-3.621,-3.7965,-4.0243,-4.1738,-4.0116,-3.835,-3.6321,0.0,0.0,-3.0591,-3.0597,-3.1236,-3.2063,-3.2933,-3.3808,-3.4665,0.0,0.0,0.0,0.0,0.0,0.0,0.0,0.0,0.0,0.0,0.0,0.0,0.0,0.0,0.0,0.0,0.0,-4.3305,-4.3305,-4.1661,-4.0797,-4.0797,-4.0797,-4.0797,-4.0797,-4.0797,-4.0797,-4.0797,-4.0797,0.0,0.0,0.0,0.0,0.0,-4.0694,-4.053,-4.0281,-4.0281,-4.0129,-3.9891,-3.9891,-3.9859,-3.9797,0.0,0.0,0.0,0.0,0.0,0.0,0.0,-2.6758,-2.7461,-2.8926,-2.9355,-2.9883,-3.0801,-2.9336,-2.8301,-2.8301,-2.6719,0.0,0.0,0.0,0.0,0.0,0.0,0.0,0.0,0.0,-2.5996,-2.6582,-2.6582,-2.6582,0.0,0.0,0.0,0.0,0.0,0.0,0.0,0.0,0.0,0.0,0.0,0.0,0.0,0.0,0.0,0.0,0.0,0.0,0.0,0.0,0.0,0.0,0.0,0.0,0.0,0.0,0.0,0.0,-3.4247,-3.5424,-3.5896,-3.5379,-3.4403,-3.3229,-3.1815,0.0,-3.0667,-3.0614,-3.0808,-3.1409,-3.2846,-3.3339,-3.3982,-3.5452,0.0,0.0,0.0,0.0,0.0,0.0,0.0,0.0,0.0,0.0,0.0,0.0,0.0,0.0,0.0,0.0,-4.2415,-4.2415,-4.1351,-4.0797,-4.0797,-4.0797,-4.0797,-4.0797,-4.0797,-4.0797,-4.0797,-4.0797,0.0,0.0,0.0,0.0,0.0,-4.07,-4.0614,-4.0488,-4.0351,-4.0238,-4.0157,-3.9975,-3.9513,-3.8986,0.0,0.0,0.0,0.0,0.0,0.0,0.0,-2.5703,-2.6094,-2.7187,-2.7324,-2.7988,-2.9726,-2.8359,-2.7578,-2.8242,-2.6719,0.0,0.0,0.0,0.0,0.0,0.0,0.0,0.0,-2.5703,-2.6133,-2.6992,-2.7324,-2.748,-2.75,-2.7832,-2.7344,0.0,0.0,0.0,0.0,0.0,0.0,0.0,0.0,0.0,-2.5698,0.0,0.0,0.0,0.0,0.0,0.0,0.0,0.0,0.0,0.0,0.0,0.0,0.0,0.0,0.0,0.0,-3.2303,-3.2715,-3.2409,-3.219,0.0,0.0,0.0,-3.0722,-3.0647,-3.0905,-3.1446,-3.2462,-3.318,-3.3984,0.0,0.0,0.0,0.0,0.0,0.0,0.0,0.0,0.0,0.0,0.0,0.0,0.0,0.0,0.0,0.0,0.0,-4.1854,-4.1564,-4.1067,-4.0797,-4.0797,-4.0797,-4.0797,-4.0797,-4.0797,-4.0797,-4.0797,0.0,0.0,0.0,0.0,0.0,0.0,-4.0739,-4.0707,-4.0661,-4.053,-4.0265,-3.9935,-3.9763,-3.916,-3.84,0.0,0.0,0.0,0.0,0.0,0.0,0.0,-2.5703,-2.5703,-2.5703,-2.5703,-2.6328,-2.7949,-2.668,-2.6348,-2.7969,0.0,0.0,0.0,0.0,0.0,0.0,0.0,0.0,0.0,-2.5703,-2.6152,-2.709,-2.7968,-2.8417,-2.8496,-2.9374,-2.8827,-2.7089,-2.7089,0.0,-2.57,-2.5696,-2.5694,0.0,0.0,-2.5694,0.0,0.0,0.0,0.0,0.0,0.0,0.0,0.0,0.0,0.0,0.0,0.0,0.0,0.0,0.0,0.0,0.0,0.0,0.0,0.0,0.0,0.0,0.0,0.0,0.0,-3.0724,-3.1354,-3.1938,-3.199,-3.3324,0.0,0.0,0.0,0.0,0.0,0.0,0.0,0.0,0.0,0.0,0.0,0.0,0.0,0.0,0.0,0.0,0.0,0.0,0.0,-4.0816,-4.0797,-4.0797,-4.0797,-4.0797,-4.0797,-4.0797,-4.0797,-4.0797,-4.0797,0.0,0.0,0.0,0.0,0.0,0.0,-4.0797,-4.0797,-4.0797,-4.0739,-4.0172,-3.9406,-3.9329,-3.8762,-3.8015,0.0,0.0,0.0,0.0,0.0,0.0,0.0,0.0,0.0,0.0,-2.5703,-2.5859,-2.6268,-2.5956,-2.5859,0.0,0.0,0.0,0.0,0.0,0.0,0.0,0.0,0.0,0.0,-2.5701,-2.6443,-2.7985,-2.8864,-2.9645,-3.0309,-3.1129,-3.025,-2.7985,-2.7985,-2.7144,-2.5695,-2.5691,-2.5709,-2.5709,-2.5709,-2.5709,0.0,0.0,0.0,0.0,-2.5691,-2.5691,0.0,0.0,0.0,0.0,0.0,0.0,0.0,0.0,-2.5696,0.0,0.0,0.0,0.0,0.0,0.0,0.0,0.0,0.0,0.0,0.0,0.0,0.0,0.0,0.0,0.0,0.0,0.0,0.0,0.0,0.0,0.0,0.0,0.0,0.0,0.0,0.0,0.0,0.0,0.0,0.0,0.0,0.0,0.0,-4.0816,-4.0797,-4.0797,-4.0797,-4.0797,-4.0797,-4.0797,-4.0797,-4.0797,-4.0797,0.0,0.0,0.0,0.0,0.0,-4.0797,-4.0797,-4.0797,-4.0739,-4.0062,-3.9669,-3.9392,-3.8728,-3.7931,-3.7288,0.0,0.0,0.0,0.0,0.0,0.0,0.0,0.0,0.0,0.0,0.0,0.0,0.0,0.0,0.0,0.0,0.0,0.0,0.0,0.0,0.0,0.0,0.0,0.0,-2.57,-2.57,-2.6559,-2.8296,-2.9173,-3.0228,-3.1459,-3.1906,-3.0949,-2.8841,-2.7648,-2.6572,-2.5691,-2.5708,-2.5707,-2.5707,-2.5707,0.0,0.0,0.0,0.0,0.0,-2.5707,-2.5707,0.0,-2.6627,-2.6628,-2.6374,0.0,0.0,0.0,0.0,-2.5691,0.0,0.0,0.0,0.0,0.0,0.0,0.0,0.0,0.0,0.0,0.0,0.0,0.0,0.0,0.0,0.0,0.0,0.0,0.0,0.0,0.0,0.0,0.0,0.0,0.0,0.0,0.0,0.0,0.0,0.0,0.0,0.0,0.0,0.0,0.0,-4.0797,-4.0797,-4.0797,-4.0797,-4.0797,-4.0797,-4.0797,-4.0797,-4.0797,0.0,0.0,0.0,0.0,0.0,-4.0797,-4.0797,-4.0797,-4.0758,-4.0274,-3.9617,-3.8856,-3.8373,-3.7646,-3.6977,0.0,0.0,0.0,0.0,0.0,0.0,0.0,0.0,0.0,0.0,0.0,0.0,0.0,0.0,0.0,0.0,0.0,0.0,0.0,0.0,0.0,0.0,0.0,-2.5758,-2.5894,-2.5777,-2.6557,-2.8295,-2.9423,-3.0771,-3.2316,-3.2703,-3.1783,-2.9675,-2.7056,-2.5824,-2.5707,-2.5707,-2.5707,-2.5707,0.0,0.0,0.0,0.0,0.0,0.0,0.0,0.0,0.0,-2.7405,-2.7405,-2.6938,-2.7678,0.0,0.0,0.0,0.0,0.0,0.0,0.0,0.0,0.0,0.0,0.0,0.0,0.0,0.0,0.0,0.0,0.0,0.0,0.0,0.0,0.0,0.0,0.0,0.0,0.0,0.0,0.0,0.0,0.0,0.0,0.0,0.0,0.0,0.0,0.0,0.0,0.0,0.0,0.0,-4.0797,-4.0797,-4.0797,-4.0797,-4.0797,-4.0797,-4.0797,-4.0797,-4.0797,-4.0797,0.0,0.0,0.0,0.0,-4.0797,-4.0797,-4.0797,-4.0797,-4.0642,-3.9707,-3.8392,-3.8251,-3.7729,-3.7096,0.0,0.0,0.0,0.0,0.0,0.0,0.0,0.0,0.0,0.0,0.0,0.0,0.0,0.0,0.0,0.0,0.0,0.0,0.0,0.0,0.0,0.0,-2.5694,-2.6045,-2.6784,-2.6081,-2.6548,-2.8305,-3.0589,-3.2229,-3.3243,-3.5468,-3.4394,-3.0509,-2.7933,-2.6391,-2.5707,-2.5707,-2.5707,-2.5707,0.0,0.0,0.0,0.0,0.0,0.0,0.0,0.0,0.0,-2.6019,-2.6019,-2.5922,-2.6058,0.0,0.0,0.0,0.0,0.0,-2.6606,-2.69,0.0,0.0,0.0,0.0,0.0,0.0,0.0,0.0,0.0,0.0,0.0,0.0,0.0,0.0,0.0,0.0,0.0,0.0,0.0,0.0,0.0,0.0,0.0,0.0,0.0,0.0,0.0,0.0,0.0,0.0,0.0,0.0,0.0,-4.0797,-4.0797,-4.0797,-4.0797,-4.0797,-4.0797,-4.0797,-4.0797,-4.0797,-4.0797,0.0,0.0,-4.0797,-4.0797,-4.0797,-4.0797,-4.0739,-3.9984,-3.9539,-3.921,-3.847,-3.8115,-3.7999,0.0,0.0,0.0,0.0,0.0,0.0,0.0,0.0,0.0,0.0,0.0,0.0,0.0,0.0,0.0,0.0,0.0,0.0,0.0,0.0,0.0,-2.6329,-2.6353,-2.6557,-2.6996,-2.7523,-2.8635,-3.0353,-3.2461,-3.3944,-3.4782,-3.4118,-3.2246,-2.9356,-2.7249,-2.6078,-2.5707,-2.5707,-2.5707,-2.5707,0.0,0.0,0.0,0.0,0.0,0.0,0.0,0.0,0.0,0.0,-2.6391,-2.6391,-2.6391,0.0,0.0,0.0,0.0,0.0,-2.6196,-2.6996,-2.7698,0.0,0.0,0.0,0.0,0.0,0.0,0.0,0.0,0.0,0.0,0.0,0.0,0.0,0.0,0.0,0.0,0.0,0.0,0.0,0.0,0.0,0.0,0.0,0.0,0.0,0.0,0.0,0.0,0.0,0.0,0.0,0.0,-4.01,-4.01,-4.01,-4.0332,-4.0797,-4.0313,-4.0332,-4.0797,-4.0797,-4.0797,-4.0797,0.0,-4.0797,-4.0797,-4.0797,-4.0797,-4.0758,-4.0352,-3.9907,-3.9443,-3.9056,-3.8895,-3.8972,0.0,0.0,0.0,0.0,0.0,0.0,0.0,0.0,0.0,0.0,0.0,0.0,0.0,0.0,0.0,0.0,0.0,0.0,0.0,0.0,-2.5818,-2.6543,-2.6777,-2.7192,-2.7874,-2.9007,-3.0529,-3.2402,-3.4159,-3.5447,-3.6226,-3.2947,-3.041,-2.8537,-2.678,-2.5883,-2.5707,-2.5707,-2.5707,-2.5707,0.0,0.0,0.0,0.0,0.0,0.0,0.0,0.0,0.0,0.0,0.0,0.0,0.0,0.0,0.0,0.0,-2.5707,-2.5746,-2.5941,-2.6976,-2.7874,0.0,0.0,0.0,0.0,0.0,0.0,0.0,0.0,0.0,0.0,0.0,0.0,0.0,0.0,0.0,0.0,0.0,0.0,0.0,0.0,0.0,0.0,0.0,0.0,0.0,0.0,0.0,0.0,0.0,0.0,0.0,0.0,0.0,-3.921,-3.8998,-3.9539,-4.0797,-4.012,-4.0158,-4.0797,-4.0584,-4.0507,-4.0487,-4.0274,-4.0313,-4.0507,-4.0507,-4.0623,-4.0797,-4.0797,-4.039,-3.9791,-3.9791,-3.9791,-3.9907,0.0,0.0,0.0,0.0,0.0,0.0,0.0,0.0,0.0,0.0,0.0,0.0,0.0,0.0,0.0,0.0,0.0,0.0,0.0,0.0,-2.5523,-2.5607,-2.6381,-2.7975,-3.0468,-2.9923,-3.0821,-3.3318,-3.5055,-3.6344,-3.7145,-3.447,-3.1895,-2.9436,-2.7679,-2.6469,-2.5707,-2.5707,-2.5707,-2.5707,-2.5707,0.0,0.0,0.0,0.0,0.0,0.0,0.0,0.0,0.0,0.0,0.0,0.0,0.0,0.0,0.0,-2.5707,-2.5883,-2.6684,-2.6996,-2.7269,-2.801,-2.9416,0.0,-3.0704,-3.1348,0.0,0.0,0.0,0.0,0.0,0.0,0.0,0.0,0.0,0.0,0.0,0.0,0.0,0.0,0.0,0.0,0.0,0.0,0.0,0.0,0.0,0.0,0.0,0.0,0.0,0.0,0.0,0.0,-3.829,-3.7483,-3.8334,-4.0797,-4.0739,-4.0739,-4.0777,-3.9965,-3.9597,-3.9559,-3.874,-3.8856,-3.9597,-3.9597,-4.0062,-4.0797,-4.0797,-4.0758,-4.0719,-4.0719,-4.0719,-4.0719,0.0,0.0,0.0,0.0,0.0,0.0,0.0,0.0,0.0,0.0,0.0,0.0,0.0,0.0,0.0,0.0,0.0,0.0,0.0,0.0,-2.5638,-2.6222,-2.6551,-2.7964,-3.0616,-3.1446,-3.2822,-3.4828,-3.5571,-3.5821,-3.5548,-3.2471,-3.0235,-2.8713,-2.6976,-2.6019,-2.5707,-2.5707,-2.5707,-2.5707,-2.5707,-2.5707,0.0,0.0,0.0,0.0,0.0,0.0,0.0,0.0,0.0,0.0,0.0,0.0,0.0,0.0,0.0,-2.5765,-2.6097,-2.6586,-2.7074,-2.7406,-2.8773,0.0,0.0,-3.1465,-3.258,0.0,0.0,0.0,0.0,0.0,0.0,0.0,0.0,0.0,0.0,0.0,0.0,0.0,0.0,0.0,0.0,0.0,0.0,0.0,0.0,0.0,0.0,0.0,0.0,0.0,0.0,0.0,0.0,-3.7058,-3.7677,-3.9185,-3.8624,-3.9224,-4.0777,-3.9907,-3.9501,-3.9501,-3.9707,-3.9694,-3.9539,-4.0081,-4.0507,-4.0797,-4.0797,-4.0797,-4.0797,-4.0797,-4.0797,-4.0797,0.0,0.0,0.0,0.0,0.0,0.0,0.0,0.0,0.0,0.0,0.0,0.0,0.0,0.0,0.0,0.0,0.0,0.0,-2.5308,-2.5308,-2.5596,-2.6236,-2.6526,-2.7623,-2.9703,-3.1435,-3.3434,-3.5702,-3.5781,-3.5123,-3.3682,-3.1127,-2.9443,-2.8544,-2.71,-2.6456,-2.6437,-2.6165,-2.5894,-2.5642,-2.5653,-2.5676,0.0,0.0,0.0,0.0,0.0,0.0,0.0,0.0,0.0,0.0,0.0,0.0,0.0,0.0,0.0,0.0,-2.5707,-2.6546,-2.7348,0.0,0.0,0.0,-3.1016,-3.2109,0.0,0.0,0.0,0.0,0.0,0.0,0.0,0.0,0.0,0.0,0.0,0.0,0.0,0.0,0.0,0.0,0.0,0.0,0.0,0.0,0.0,0.0,0.0,0.0,0.0,0.0,0.0,0.0,0.0,-3.6245,-3.669,-3.7787,-3.6922,-3.7735,-3.9959,-3.9359,-3.894,-3.8708,-3.9307,-3.9379,-3.9133,-3.9727,-4.0288,-4.0797,-4.0797,-4.0797,-4.0797,-4.0797,-4.0797,-4.0797,0.0,0.0,0.0,0.0,0.0,0.0,0.0,0.0,0.0,0.0,0.0,0.0,0.0,0.0,0.0,0.0,0.0,0.0,-2.5308,-2.5308,-2.5308,-2.5308,-2.6135,-2.7005,-2.7876,-2.9519,-3.2124,-3.5655,-3.5655,-3.4361,-3.188,-3.0992,-3.0123,-2.9278,-2.8463,-2.809,-2.8032,-2.7165,-2.6294,-2.5507,-2.5563,-2.56,-2.5605,0.0,0.0,0.0,0.0,0.0,0.0,0.0,0.0,0.0,0.0,0.0,0.0,0.0,-2.5707,-2.5707,-2.5707,-2.6956,0.0,0.0,0.0,0.0,0.0,0.0,0.0,0.0,0.0,0.0,0.0,0.0,0.0,0.0,0.0,0.0,0.0,0.0,0.0,0.0,0.0,0.0,0.0,0.0,0.0,0.0,0.0,0.0,0.0,0.0,0.0,0.0,0.0,0.0,0.0,-3.4819,-3.522,-3.6864,-3.6071,-3.6574,-3.8193,-3.8193,-3.7709,-3.6903,-3.6903,-3.7406,-3.8193,-3.8212,-3.9224,-4.0797,-4.0797,-4.0797,-4.0797,-4.0797,-4.0797,-4.0797,0.0,0.0,0.0,0.0,0.0,0.0,0.0,0.0,0.0,0.0,0.0,0.0,0.0,0.0,0.0,0.0,0.0,0.0,-2.5308,-2.5308,-2.5308,-2.5308,-2.5558,-2.6096,-2.6967,-2.8621,-3.0609,-3.2885,-3.2319,-3.1659,-3.0903,-3.0079,-2.9553,-2.9297,-2.9054,-2.8297,-2.7165,-2.6913,-2.6294,-2.5504,-2.5521,-2.5529,-2.5532,0.0,0.0,0.0,0.0,0.0,0.0,0.0,0.0,0.0,0.0,0.0,0.0,-2.5707,-2.5707,-2.5707,-2.5707,0.0,0.0,0.0,0.0,0.0,0.0,0.0,0.0,0.0,0.0,0.0,0.0,0.0,0.0,0.0,0.0,0.0,0.0,0.0,0.0,0.0,0.0,0.0,0.0,0.0,0.0,0.0,0.0,0.0,0.0,0.0,0.0,0.0,0.0,0.0,0.0,0.0,-3.404,-3.5148,-3.4897,-3.5974,-3.8174,-3.7574,-3.7135,-3.6942,-3.7555,-3.7613,-3.7386,-3.8605,-3.9791,-4.0797,-4.0797,-4.0797,-4.0797,-4.0797,-4.0797,-4.0797,0.0,0.0,0.0,0.0,0.0,0.0,0.0,0.0,0.0,0.0,0.0,0.0,0.0,0.0,0.0,0.0,0.0,0.0,0.0,-2.5308,-2.5308,-2.5308,-2.5308,-2.5712,-2.6582,-2.7582,-2.8621,-2.9679,-2.9866,-2.9593,-2.8956,-2.9486,-2.9552,-2.9246,-2.9945,-2.9306,-2.7694,-2.7365,-2.673,-2.594,-2.597,-2.5984,-2.5987,0.0,0.0,0.0,0.0,0.0,0.0,0.0,0.0,0.0,0.0,0.0,0.0,-2.5707,-2.5707,-2.5707,-2.5707,0.0,0.0,0.0,0.0,0.0,0.0,0.0,0.0,0.0,0.0,0.0,0.0,0.0,0.0,0.0,0.0,0.0,0.0,0.0,0.0,0.0,0.0,0.0,0.0,0.0,0.0,0.0,0.0,0.0,0.0,0.0,0.0,0.0,0.0,0.0,0.0,0.0,0.0,-3.4394,-3.4394,-3.5394,-3.7193,-3.7,-3.6729,-3.6477,-3.7328,-3.7386,-3.7019,-3.8411,-3.9501,-4.0274,-4.0274,-4.0507,-4.0797,-4.0797,-4.0797,-4.0797,0.0,0.0,0.0,0.0,0.0,0.0,0.0,0.0,0.0,0.0,0.0,0.0,0.0,0.0,0.0,0.0,0.0,0.0,0.0,0.0,-2.5303,-2.5303,-2.5284,-2.5668,-2.6456,-2.6481,-2.6481,-2.6481,-2.8082,-2.8082,-2.6659,-2.9135,-2.9871,-2.9165,-3.0833,-3.0621,-2.8934,-2.8126,-2.7274,-2.6491,-2.6543,-2.6577,-2.6586,-2.6639,0.0,0.0,0.0,0.0,0.0,0.0,0.0,0.0,0.0,0.0,-2.5707,-2.5707,-2.5707,-2.5707,-2.5707,0.0,0.0,0.0,0.0,0.0,0.0,0.0,0.0,0.0,0.0,0.0,0.0,0.0,0.0,0.0,0.0,0.0,0.0,0.0,0.0,0.0,0.0,0.0,0.0,0.0,0.0,0.0,0.0,0.0,0.0,0.0,0.0,0.0,0.0,0.0,0.0,0.0,0.0,0.0,-3.4172,-3.467,-3.5607,-3.6419,-3.6381,-3.5742,-3.6477,-3.6826,-3.6961,-3.7748,-3.8605,-3.9385,-3.9462,-3.9984,-4.07,-4.0777,-4.0797,-4.0797,0.0,0.0,0.0,0.0,0.0,0.0,0.0,0.0,0.0,0.0,0.0,0.0,0.0,0.0,0.0,0.0,0.0,0.0,0.0,0.0,-2.5297,-2.5297,-2.5257,-2.5304,-2.5496,-2.5556,-2.5585,-2.5585,-2.6629,-2.6948,-2.664,-2.8506,-2.928,-2.9146,-3.0217,-2.9737,-2.8107,-2.7236,-2.639,-2.5577,-2.5601,-2.5592,-2.5592,-2.5615,-2.5532,0.0,0.0,0.0,0.0,0.0,0.0,0.0,-2.5682,-2.5707,-2.5707,-2.5707,-2.5707,-2.5707,0.0,-2.5844,0.0,0.0,0.0,0.0,0.0,0.0,0.0,0.0,0.0,0.0,0.0,0.0,0.0,0.0,0.0,0.0,0.0,0.0,0.0,0.0,0.0,0.0,0.0,0.0,0.0,0.0,0.0,0.0,0.0,0.0,0.0,0.0,0.0,0.0,-3.1234,-3.0989,-3.1398,0.0,-3.2446,-3.3222,-3.4703,-3.5568,-3.5858,-3.5704,-3.5878,-3.6323,-3.6903,-3.7096,-3.7696,-3.8547,-3.923,-3.9617,-3.9868,-4.0545,-4.0797,-4.0797,0.0,0.0,0.0,0.0,0.0,0.0,0.0,0.0,0.0,0.0,0.0,0.0,0.0,0.0,0.0,0.0,0.0,0.0,0.0,0.0,0.0,-2.5252,-2.5217,-2.5192,-2.5192,-2.5228,-2.5276,-2.5311,-2.5768,-2.6182,-2.664,-2.8319,-2.9107,-2.9146,-3.0,-2.9456,-2.7797,-2.697,-2.6326,-2.5868,-2.5868,-2.5898,-2.5927,-2.5927,-2.5698,-2.5352,-2.5394,0.0,0.0,0.0,0.0,0.0,0.0,0.0,-2.5653,-2.5684,-2.5707,-2.5707,0.0,0.0,0.0,0.0,0.0,0.0,0.0,0.0,0.0,0.0,0.0,0.0,0.0,0.0,0.0,0.0,0.0,0.0,0.0,0.0,0.0,0.0,0.0,0.0,0.0,0.0,0.0,0.0,0.0,0.0,0.0,0.0,0.0,0.0,0.0,0.0,-3.0709,-3.0633,-3.104,-3.191,-3.191,-3.2586,-3.3918,-3.5151,-3.5704,-3.5704,-3.5704,-3.5936,-3.6323,-3.6323,-3.6826,-3.7618,-3.8083,-3.8766,-3.9559,-4.0004,-4.0448,-4.0797,0.0,0.0,0.0,0.0,0.0,0.0,0.0,0.0,0.0,0.0,0.0,0.0,0.0,0.0,0.0,0.0,0.0,0.0,0.0,0.0,0.0,-2.5201,-2.5201,-2.5201,-2.5201,-2.5201,-2.5236,-2.5276,-2.5282,-2.5816,0.0,-2.8077,-2.8654,-2.8687,-2.9412,-2.892,-2.752,-2.6694,-2.6332,-2.6272,-2.6272,-2.6307,-2.6367,-2.6367,-2.5912,-2.5284,-2.5348,-2.5378,-2.5394,-2.5457,0.0,0.0,0.0,0.0,-2.5598,-2.5648,-2.5677,-2.5681,0.0,0.0,0.0,0.0,0.0,0.0,0.0,0.0,0.0,0.0,0.0,0.0,0.0,0.0,0.0,0.0,0.0,0.0,0.0,0.0,0.0,0.0,0.0,0.0,0.0,0.0,0.0,0.0,0.0,0.0,0.0,0.0,0.0,0.0,0.0,-2.9601,-3.0254,-3.0211,-3.0623,-3.1485,-3.1766,-3.2302,-3.3131,-3.4609,-3.5291,-3.5285,-3.5424,-3.5477,-3.5496,-3.5646,-3.6091,-3.6709,-3.6845,-3.7773,-3.9075,-3.923,-3.9733,-4.0352,0.0,0.0,0.0,0.0,0.0,0.0,0.0,0.0,0.0,0.0,0.0,0.0,0.0,0.0,0.0,0.0,0.0,0.0,0.0,0.0,0.0,-2.5203,-2.5203,-2.5203,-2.5203,-2.5206,-2.5198,-2.5204,-2.5206,0.0,0.0,0.0,0.0,-2.6845,-2.6979,-2.6897,-2.6628,-2.5759,-2.539,-2.5365,-2.5365,-2.539,-2.539,-2.539,-2.5313,-2.5203,-2.5219,-2.5259,-2.5313,-2.5393,-2.5414,0.0,0.0,0.0,0.0,0.0,-2.5578,-2.5609,0.0,0.0,0.0,0.0,0.0,0.0,0.0,0.0,0.0,0.0,0.0,0.0,0.0,0.0,0.0,0.0,0.0,0.0,0.0,0.0,0.0,0.0,0.0,0.0,0.0,0.0,0.0,0.0,0.0,0.0,0.0,0.0,-2.7207,-2.7258,-2.798,0.0,-2.8538,-2.8515,-2.8967,-2.9847,-3.1231,-3.1996,-3.2214,-3.3181,-3.3586,-3.3572,-3.4274,-3.4568,-3.4626,-3.54,-3.5762,-3.5936,-3.6632,-3.7038,-3.7348,-3.8102,-3.845,-3.8541,0.0,0.0,0.0,0.0,0.0,0.0,0.0,0.0,0.0,0.0,0.0,0.0,0.0,0.0,0.0,0.0,0.0,0.0,0.0,0.0,0.0,0.0,-2.5191,-2.5191,-2.5191,-2.5203,-2.5195,-2.5193,0.0,0.0,0.0,-2.6715,-2.7033,0.0,0.0,0.0,0.0,-2.5573,-2.5204,-2.5206,-2.5206,-2.5198,0.0,0.0,-2.5225,-2.5252,-2.5217,-2.5247,-2.5297,-2.5288,-2.5317,-2.5354,0.0,0.0,0.0,0.0,0.0,0.0,-2.5593,0.0,0.0,0.0,0.0,0.0,0.0,0.0,0.0,0.0,0.0,0.0,0.0,0.0,0.0,0.0,0.0,0.0,0.0,0.0,0.0,0.0,0.0,0.0,0.0,0.0,0.0,0.0,0.0,0.0,0.0,-2.6068,-2.6482,-2.6934,-2.7282,0.0,-2.8195,-2.8162,-2.8363,-2.878,-2.9524,-2.9902,-2.9959,-3.0796,-3.1925,-3.3287,-3.3628,-3.3773,-3.3812,-3.4197,-3.4629,-3.5063,-3.541,-3.6141,-3.7067,-3.7436,-3.7864,-3.8253,0.0,0.0,0.0,0.0,0.0,0.0,0.0,0.0,0.0,0.0,0.0,0.0,0.0,0.0,0.0,0.0,0.0,0.0,0.0,0.0,0.0,0.0,0.0,-2.5191,-2.5191,-2.5191,-2.5203,-2.5201,0.0,0.0,-2.6477,-2.6706,-2.7465,0.0,-2.8044,-2.7285,0.0,0.0,0.0,0.0,0.0,0.0,0.0,0.0,0.0,0.0,0.0,-2.5231,-2.5266,-2.5225,-2.5236,-2.5273,0.0,0.0,0.0,0.0,0.0,0.0,0.0,0.0,0.0,0.0,0.0,0.0,0.0,0.0,0.0,0.0,0.0,0.0,0.0,0.0,0.0,0.0,0.0,0.0,0.0,0.0,0.0,0.0,0.0,0.0,0.0,0.0,0.0,0.0,0.0,0.0,-2.5692,-2.5692,-2.6007,-2.6655,-2.6621,-2.6913,-2.7557,-2.7736,-2.7843,-2.7892,-2.8144,-2.8281,-2.832,-2.8925,-3.0346,-3.2377,-3.2785,-3.297,-3.2989,-3.3202,-3.3772,-3.4499,-3.4499,-3.5429,-3.6765,-3.6765,-3.716,-3.7662,0.0,0.0,0.0,0.0,0.0,0.0,0.0,0.0,0.0,0.0,0.0,0.0,0.0,0.0,0.0,0.0,0.0,0.0,0.0,0.0,0.0,0.0,0.0,0.0,-2.5191,-2.5191,-2.5191,0.0,0.0,0.0,-2.6427,-2.7243,-2.7682,-2.7765,-2.772,-2.723,-2.6408,0.0,0.0,0.0,0.0,0.0,0.0,0.0,0.0,0.0,0.0,0.0,0.0,-2.5193,0.0,0.0,0.0,0.0,0.0,0.0,0.0,0.0,0.0,0.0,0.0,0.0,0.0,0.0,0.0,0.0,0.0,0.0,0.0,0.0,0.0,0.0,0.0,0.0,0.0,0.0,0.0,0.0,0.0,0.0,0.0,0.0,0.0,0.0,0.0,0.0,0.0,0.0,-2.5707,-2.5707,-2.5726,-2.5766,-2.5767,-2.579,-2.5832,-2.664,-2.7069,-2.7069,-2.7832,-2.8242,-2.8293,-2.8347,-2.8893,-2.9873,-3.1409,-3.2077,-3.2136,-3.295,-3.3772,-3.4499,-3.4499,-3.5065,-3.5867,-3.5867,-3.5884,-3.5912,0.0,0.0,0.0,0.0,0.0,0.0,0.0,0.0,0.0,0.0,0.0,0.0,0.0,-2.4266,-2.4294,-2.4375,0.0,0.0,0.0,0.0,0.0,0.0,0.0,0.0,0.0,0.0,0.0,0.0,0.0,-2.5606,-2.6402,-2.6727,-2.7166,-2.7701,-2.7701,-2.7224,-2.6364,-2.5854,0.0,0.0,0.0,0.0,0.0,0.0,0.0,0.0,0.0,0.0,0.0,0.0,0.0,0.0,0.0,0.0,0.0,0.0,0.0,0.0,0.0,0.0,0.0,0.0,0.0,0.0,0.0,0.0,0.0,0.0,0.0,0.0,0.0,0.0,0.0,0.0,0.0,0.0,0.0,0.0,0.0,0.0,0.0,0.0,0.0,0.0,0.0,0.0,0.0,0.0,-2.5707,-2.5707,-2.5707,-2.5707,-2.5707,-2.5708,-2.5709,-2.6009,-2.617,-2.6171,-2.6462,-2.6617,-2.6678,-2.7783,-2.8479,-2.8851,-3.0506,-3.123,-3.125,-3.1562,-3.2519,-3.3789,-3.3789,-3.4668,-3.5937,-3.5937,-3.5908,-3.5869,0.0,0.0,0.0,0.0,0.0,0.0,0.0,0.0,0.0,0.0,0.0,0.0,0.0,0.0,-2.419,-2.419,0.0,0.0,0.0,0.0,0.0,0.0,0.0,0.0,0.0,0.0,0.0,0.0,0.0,0.0,0.0,-2.6275,-2.6708,-2.7262,-2.7262,-2.6937,0.0,0.0,0.0,-2.5191,0.0,0.0,-2.5191,0.0,0.0,0.0,0.0,0.0,0.0,0.0,0.0,0.0,0.0,0.0,0.0,0.0,0.0,0.0,0.0,0.0,0.0,0.0,0.0,0.0,0.0,0.0,0.0,0.0,0.0,0.0,0.0,0.0,0.0,0.0,0.0,0.0,0.0,0.0,0.0,0.0,0.0,0.0,0.0,0.0,0.0,0.0,0.0,0.0,-2.5707,-2.5707,-2.5707,-2.5707,-2.5707,-2.5707,-2.5707,-2.5707,-2.5694,-2.5701,-2.5694,-2.5694,-2.574,-2.6903,-2.7756,-2.8362,-2.9473,-3.0273,-3.08,-3.08,-3.1659,-3.2968,-3.2968,-3.4025,-3.5552,-3.5552,-3.5722,-3.5929,0.0,0.0,0.0,0.0,0.0,0.0,0.0,0.0,0.0,0.0,0.0,0.0,0.0,0.0,0.0,-2.4226,-2.4208,-2.419,-2.419,0.0,0.0,0.0,0.0,0.0,0.0,0.0,0.0,0.0,0.0,0.0,0.0,0.0,-2.6364,-2.6364,-2.6364,-2.6364,-2.6364,0.0,-2.5912,-2.5191,0.0,-2.5191,-2.5191,0.0,0.0,0.0,-2.5478,-2.5701,0.0,0.0,0.0,0.0,0.0,0.0,0.0,0.0,0.0,0.0,0.0,0.0,0.0,0.0,0.0,0.0,0.0,0.0,0.0,0.0,0.0,0.0,0.0,0.0,0.0,0.0,0.0,0.0,0.0,0.0,0.0,0.0,0.0,0.0,0.0,0.0,0.0,0.0,0.0,-2.5707,-2.5707,-2.5707,-2.5707,-2.5707,-2.5707,-2.5707,-2.5707,-2.5707,-2.5707,-2.5707,-2.5707,-2.5707,-2.5707,-2.5726,-2.6663,-2.8264,-2.8323,-2.9259,-3.0761,-3.0781,-3.1309,-3.2091,-3.2091,-3.3144,-3.4666,-3.4686,-3.5232,-3.596,0.0,0.0,0.0,0.0,0.0,0.0,0.0,0.0,0.0,0.0,0.0,0.0,-2.419,-2.419,-2.4428,-2.5026,-2.4548,-2.419,-2.419,-2.4228,-2.4257,-2.4257,-2.4312,0.0,0.0,0.0,0.0,0.0,0.0,0.0,0.0,0.0,0.0,0.0,-2.5529,-2.5529,-2.5529,-2.5529,0.0,0.0,-2.5191,-2.5191,0.0,0.0,0.0,0.0,0.0,-2.5344,-2.5497,0.0,-2.5191,-2.5191,0.0,0.0,0.0,0.0,0.0,0.0,-2.5222,0.0,0.0,0.0,0.0,0.0,0.0,0.0,0.0,0.0,0.0,0.0,0.0,0.0,0.0,0.0,0.0,0.0,0.0,0.0,0.0,0.0,0.0,0.0,0.0,0.0,0.0,0.0,0.0,-2.5707,-2.5707,-2.5707,-2.5707,-2.5707,-2.5707,-2.5707,-2.5707,-2.5707,-2.5707,-2.5707,-2.5707,-2.5707,-2.5726,-2.6352,-2.6899,-2.7426,-2.8694,-2.9495,-2.9982,-3.0567,-3.1309,-3.2091,-3.2091,-3.2773,-3.3846,-3.4471,-3.4853,-3.5154,0.0,0.0,0.0,0.0,0.0,0.0,0.0,0.0,0.0,0.0,0.0,0.0,-2.4161,-2.418,-2.4392,-2.486,-2.4475,-2.419,-2.419,-2.419,-2.419,-2.419,-2.419,-2.4247,0.0,0.0,0.0,0.0,0.0,0.0,0.0,0.0,0.0,0.0,0.0,0.0,0.0,0.0,0.0,0.0,-2.5191,0.0,0.0,-2.5191,-2.5421,0.0,0.0,0.0,-2.5644,-2.5306,-2.5191,0.0,0.0,0.0,0.0,0.0,0.0,0.0,0.0,0.0,0.0,0.0,0.0,0.0,0.0,-2.5293,0.0,0.0,0.0,0.0,0.0,0.0,0.0,0.0,0.0,0.0,0.0,0.0,0.0,0.0,0.0,0.0,0.0,0.0,0.0,0.0,-2.5707,-2.5707,-2.5707,-2.5707,-2.5707,-2.5707,-2.5707,-2.5707,-2.5707,-2.5707,-2.5707,-2.5707,-2.5707,-2.5707,-2.5726,-2.6235,-2.6664,-2.7055,-2.807,-2.8929,-2.9631,-3.0118,-3.0801,-3.1563,-3.1563,-3.209,-3.2929,-3.3437,-3.407,-3.4761,0.0,0.0,0.0,0.0,0.0,0.0,0.0,0.0,0.0,0.0,0.0,-2.4268,-2.436,-2.4271,-2.4263,-2.4447,-2.43,-2.419,-2.419,-2.419,-2.419,-2.419,-2.419,-2.4257,-2.4382,0.0,0.0,0.0,0.0,0.0,0.0,0.0,0.0,0.0,0.0,0.0,0.0,0.0,0.0,-2.5168,-2.5185,-2.5191,0.0,0.0,-2.5644,0.0,-2.5459,-2.5663,-2.616,-2.544,-2.5191,0.0,0.0,0.0,0.0,0.0,-2.5208,0.0,0.0,0.0,0.0,0.0,0.0,0.0,-2.5206,-2.5209,-2.5217,0.0,0.0,0.0,0.0,0.0,0.0,0.0,0.0,0.0,0.0,0.0,0.0,0.0,0.0,0.0,0.0,0.0,0.0,-2.5707,-2.5707,-2.5707,-2.5707,-2.5707,-2.5707,-2.5707,-2.5707,-2.5707,-2.5707,-2.5707,-2.5707,-2.5707,-2.5707,-2.5707,-2.5707,-2.5707,-2.6117,-2.686,-2.6957,-2.7875,-2.9339,-2.9514,-3.0079,-3.08,-3.08,-3.127,-3.1973,-3.2052,-3.3085,-3.4432,0.0,0.0,0.0,0.0,0.0,0.0,0.0,0.0,0.0,0.0,0.0,-2.5391,0.0,0.0,0.0,-2.6025,-2.4942,-2.419,-2.419,-2.419,-2.419,-2.419,-2.419,-2.4209,-2.4238,-2.4238,0.0,0.0,0.0,0.0,0.0,0.0,0.0,0.0,0.0,0.0,0.0,0.0,0.0,-2.4974,-2.5131,0.0,-2.5191,-2.5191,-2.5306,-2.5421,-2.5268,-2.5306,-2.5421,0.0,-2.5191,-2.5191,0.0,0.0,0.0,0.0,0.0,0.0,0.0,0.0,0.0,0.0,0.0,0.0,-2.5197,-2.5201,-2.5204,0.0,0.0,0.0,0.0,0.0,0.0,0.0,0.0,0.0,0.0,0.0,0.0,0.0,0.0,0.0,0.0,0.0,-2.5707,-2.5707,-2.5707,-2.5707,-2.5707,-2.5707,-2.5707,-2.5707,-2.5707,-2.5707,-2.5707,-2.5707,-2.5707,-2.5707,-2.5707,-2.5707,-2.5707,-2.5707,-2.5785,-2.598,-2.6703,-2.7191,-2.7621,-2.9026,-3.0079,-3.08,-3.08,-3.0898,-3.1133,-3.1836,-3.2325,-3.2813,0.0,0.0,0.0,0.0,0.0,0.0,0.0,0.0,0.0,0.0,0.0,0.0,0.0,0.0,0.0,0.0,0.0,0.0,0.0,0.0,-2.4094,-2.4094,-2.4094,-2.4094,-2.4094,-2.4094,0.0,0.0,0.0,0.0,0.0,0.0,0.0,0.0,0.0,0.0,0.0,0.0,-2.4927,-2.4915,-2.5119,0.0,-2.5191,-2.5191,-2.5191,-2.5191,-2.5191,-2.5191,-2.5191,-2.5191,-2.5191,0.0,0.0,-2.5191,-2.5191,0.0,-2.5191,-2.5191,0.0,0.0,0.0,-2.5191,0.0,0.0,0.0,-2.5203,-2.5195,0.0,0.0,0.0,0.0,0.0,0.0,0.0,0.0,0.0,0.0,0.0,0.0,0.0,0.0,0.0,0.0,0.0,-2.5663,-2.5698,-2.5699,-2.5701,-2.5703,-2.5703,-2.5704,-2.5707,-2.5707,-2.5707,-2.5707,-2.5707,-2.5707,-2.5707,-2.5707,-2.5707,-2.5707,-2.5707,-2.5707,-2.5726,-2.6156,-2.6606,-2.7074,-2.7933,-2.9046,-3.0235,-3.0644,-3.08,-3.0859,-3.1289,-3.1738,-3.2285,0.0,0.0,0.0,0.0,0.0,0.0,0.0,0.0,0.0,0.0,0.0,0.0,0.0,0.0,0.0,0.0,0.0,0.0,0.0,0.0,0.0,-2.4014,-2.3996,-2.3996,-2.3996,-2.3996,0.0,0.0,0.0,0.0,0.0,0.0,0.0,0.0,0.0,0.0,0.0,0.0,0.0,-2.4811,0.0,-2.5119,-2.5191,-2.5191,-2.5191,-2.521,-2.518,-2.518,-2.518,-2.518,0.0,-2.518,-2.521,-2.5191,0.0,0.0,0.0,0.0,0.0,0.0,0.0,0.0,0.0,-2.5191,0.0,0.0,0.0,0.0,0.0,0.0,0.0,0.0,0.0,0.0,0.0,0.0,0.0,0.0,0.0,0.0,0.0,0.0,0.0,0.0,-2.56,-2.5687,-2.5684,-2.5686,-2.5697,-2.5697,-2.5701,-2.5705,-2.5706,-2.5706,-2.5707,-2.5707,-2.5707,-2.5707,-2.5707,-2.5707,-2.5707,-2.5707,-2.5707,-2.5707,-2.5707,-2.6097,-2.6762,-2.6938,-2.7836,-2.9202,-3.0177,-3.0664,-3.08,-3.08,-3.125,-3.1973,-2.3017,-2.3295,0.0,0.0,0.0,0.0,0.0,0.0,0.0,0.0,0.0,0.0,0.0,0.0,0.0,0.0,0.0,0.0,-2.5243,0.0,0.0,-2.4032,-2.3996,-2.3996,-2.3996,-2.3996,-2.3996,0.0,0.0,0.0,0.0,0.0,0.0,0.0,-2.4257,0.0,0.0,0.0,-2.4458,0.0,-2.4524,-2.4832,0.0,-2.5191,-2.5191,-2.5185,-2.5125,-2.5113,-2.5113,0.0,-2.5113,-2.5119,0.0,-2.5191,0.0,0.0,0.0,0.0,0.0,0.0,0.0,0.0,-2.5191,0.0,0.0,0.0,0.0,0.0,0.0,0.0,0.0,0.0,0.0,0.0,0.0,0.0,0.0,0.0,0.0,0.0,0.0,0.0,0.0,0.0,0.0,-2.5686,-2.564,-2.5636,-2.5708,-2.569,-2.5694,-2.5699,-2.5701,-2.5703,-2.5707,-2.5707,-2.5707,-2.5707,-2.5707,-2.5707,-2.5707,-2.5707,-2.5707,-2.5707,-2.5707,-2.5765,-2.5902,-2.6684,-2.7113,-2.7465,-2.9104,-3.0177,-3.08,-3.08,-3.0859,-3.1075,-2.2588,-2.2721,0.0,0.0,0.0,0.0,0.0,0.0,0.0,0.0,0.0,0.0,0.0,0.0,0.0,0.0,0.0,-2.6642,0.0,0.0,0.0,-2.4595,-2.4122,-2.4104,-2.4576,-2.4122,-2.3886,0.0,-2.3886,0.0,0.0,0.0,0.0,0.0,-2.4047,0.0,-2.3947,0.0,0.0,0.0,0.0,0.0,0.0,-2.4785,-2.4785,-2.4785,-2.4763,-2.4832,-2.4927,0.0,-2.5342,0.0,0.0,0.0,0.0,0.0,0.0,0.0,0.0,0.0,0.0,0.0,0.0,0.0,0.0,0.0,-2.5191,0.0,0.0,0.0,0.0,0.0,0.0,0.0,0.0,0.0,0.0,0.0,0.0,0.0,0.0,0.0,0.0,0.0,0.0,0.0,0.0,-2.5505,-2.5524,-2.5554,-2.5591,-2.5644,-2.5684,-2.5696,-2.5698,-2.5701,-2.5703,-2.5703,-2.5706,-2.5707,-2.5707,-2.5707,-2.5707,-2.5707,-2.5707,-2.5707,-2.5726,-2.6097,-2.6839,-2.7835,-2.8557,-2.9357,-3.0157,-3.0626,-3.08,-3.0917,-2.2296,0.0,0.0,0.0,0.0,0.0,0.0,0.0,0.0,0.0,0.0,0.0,-2.8228,-2.8448,0.0,0.0,-2.8075,-2.7387,0.0,0.0,-2.557,0.0,0.0,0.0,0.0,0.0,0.0,0.0,0.0,0.0,0.0,0.0,0.0,0.0,0.0,-2.3917,-2.3886,0.0,0.0,-2.4154,-2.4154,-2.4229,-2.4317,-2.4456,-2.4505,-2.4505,-2.4489,-2.4588,-2.4716,-2.4716,-2.5234,0.0,-2.5148,0.0,0.0,0.0,0.0,0.0,-2.5075,0.0,0.0,0.0,0.0,0.0,0.0,0.0,0.0,0.0,0.0,0.0,0.0,0.0,0.0,0.0,0.0,0.0,0.0,0.0,0.0,0.0,0.0,0.0,0.0,0.0,0.0,0.0,-2.5255,0.0,-2.5073,-2.5334,-2.5482,-2.554,-2.5611,-2.5648,-2.5621,-2.5657,-2.5641,-2.5611,-2.5668,-2.5675,-2.5675,-2.5684,-2.5707,-2.5707,-2.5706,-2.5705,-2.5705,-2.5704,-2.6581,-2.7967,-2.8219,-2.8827,-2.9668,-3.0507,-3.08,-3.0898,-2.2296,-2.2515,0.0,0.0,0.0,0.0,0.0,0.0,0.0,0.0,0.0,0.0,0.0,0.0,0.0,0.0,0.0,-2.8219,-2.7405,0.0,-2.6971,0.0,0.0,-2.5769,0.0,0.0,0.0,0.0,0.0,0.0,0.0,0.0,0.0,0.0,0.0,-2.3806,-2.3806,-2.3806,-2.3806,-2.3816,-2.3816,-2.3816,-2.387,0.0,-2.4505,-2.4497,-2.4501,0.0,0.0,-2.4512,-2.4539,0.0,0.0,0.0,0.0,0.0,0.0,0.0,0.0,0.0,0.0,-2.5162,0.0,0.0,0.0,0.0,-2.5191,0.0,0.0,0.0,0.0,0.0,0.0,0.0,0.0,0.0,0.0,0.0,0.0,0.0,0.0,0.0,0.0,0.0,0.0,0.0,-2.4891,0.0,-2.4284,-2.4977,-2.5406,-2.5417,-2.5479,-2.5487,-2.5405,-2.5546,-2.5546,-2.5405,-2.5539,-2.5609,-2.5611,-2.5673,-2.5707,-2.5707,-2.5702,-2.5699,-2.5699,-2.5693,-2.6236,-2.7132,-2.7969,-2.8793,-2.9602,-3.0487,-3.08,-3.08,0.0,0.0,0.0,0.0,0.0,0.0,0.0,-2.5551,0.0,0.0,0.0,0.0,0.0,0.0,-2.8607,0.0,0.0,-2.8011,-2.7429,-2.7405,0.0,0.0,0.0,-2.6331,0.0,0.0,0.0,0.0,0.0,0.0,0.0,0.0,0.0,0.0,0.0,-2.3806,0.0,0.0,0.0,0.0,0.0,-2.4121,-2.4541,0.0,0.0,-2.4031,-2.404,-2.4117,0.0,-2.4238,-2.4717,-2.5183,-2.4617,-2.4864,-2.5242,-2.4667,-2.4516,0.0,0.0,0.0,-2.4678,-2.4883,0.0,0.0,0.0,0.0,0.0,0.0,0.0,0.0,0.0,0.0,0.0,0.0,0.0,0.0,0.0,0.0,0.0,0.0,0.0,0.0,0.0,0.0,0.0,-2.401,-2.4229,-2.4262,0.0,-2.4846,-2.5326,-2.5335,-2.5399,-2.5413,-2.5395,-2.5437,-2.5444,-2.5401,-2.5543,-2.5595,-2.5598,-2.5662,-2.5696,-2.5696,-2.5694,-2.6025,-2.6569,-2.6568,-2.7384,-2.8689,-2.8982,-2.9613,-3.0402,-3.0698,-3.0798,-3.08,-2.3619,0.0,0.0,0.0,0.0,0.0,0.0,0.0,0.0,0.0,-2.8525,0.0,-2.8862,0.0,-2.8675,0.0,-2.811,-2.7865,-2.7671,-2.7648,0.0,-2.7821,-2.7333,0.0,0.0,0.0,0.0,0.0,0.0,-2.4067,0.0,0.0,0.0,0.0,0.0,0.0,0.0,0.0,-2.3806,0.0,0.0,-2.4103,0.0,0.0,-2.3976,0.0,0.0,-2.3888,-2.3981,-2.3981,-2.4438,-2.494,-2.4358,-2.4598,-2.4986,-2.4423,-2.4275,-2.4301,-2.4362,-2.4415,0.0,0.0,-2.4693,0.0,-2.5006,0.0,0.0,0.0,0.0,0.0,0.0,0.0,0.0,0.0,0.0,0.0,0.0,0.0,0.0,0.0,0.0,0.0,0.0,0.0,-2.376,-2.346,-2.3722,-2.3894,0.0,0.0,-2.5252,-2.5252,-2.5336,-2.5348,-2.5336,-2.535,-2.5359,-2.5329,-2.5436,-2.5499,-2.5502,-2.5566,-2.5591,-2.5591,-2.5587,-2.6089,-2.6865,-2.6551,-2.7598,-2.9366,-2.9077,-2.9671,-3.0704,-3.0762,-3.0796,-3.08,0.0,0.0,0.0,0.0,-2.4118,0.0,0.0,0.0,-2.7946,0.0,-2.9007,-2.9558,-2.9875,-2.9292,-2.8851,-2.8778,-2.8127,0.0,-2.8061,-2.8088,0.0,0.0,-2.8562,-2.82,-2.7453,0.0,0.0,0.0,0.0,0.0,0.0,0.0,0.0,0.0,-2.3806,0.0,-2.3806,-2.3806,-2.3806,-2.3806,-2.3806,-2.3813,-2.386,-2.3824,0.0,-2.49,-2.4085,-2.3806,-2.3806,-2.3806,-2.3806,-2.3806,-2.3806,-2.3806,-2.3806,-2.3806,-2.3855,-2.3937,-2.4135,-2.4238,-2.4302,-2.4458,0.0,0.0,0.0,0.0,-2.479,0.0,0.0,0.0,0.0,0.0,0.0,0.0,0.0,0.0,0.0,0.0,0.0,0.0,0.0,0.0,0.0,-2.3856,-2.3498,-2.2658,-2.3403,0.0,0.0,0.0,0.0,-2.5191,-2.5271,-2.5252,-2.5191,-2.5252,-2.5252,-2.5191,-2.5274,-2.5297,-2.5302,-2.5372,-2.5395,-2.5395,-2.5397,-2.5925,-2.6711,-2.5863,-2.6992,-2.9192,-2.8412,-2.9107,-3.0528,-3.0713,-3.0791,-3.0796,-2.4208,-2.4994,-2.5631,0.0,-2.5461,-2.5761,0.0,0.0,0.0,0.0,-2.9798,-2.9954,-3.0046,-2.9875,-2.9402,-2.8518,-2.8257,0.0,0.0,0.0,0.0,-2.7933,-2.7933,-2.7939,-2.7924,-2.68,0.0,-2.5896,0.0,0.0,-2.3806,0.0,0.0,0.0,0.0,0.0,-2.3806,-2.3806,-2.3806,-2.3806,-2.3806,-2.4157,0.0,0.0,-2.4302,-2.49,-2.4085,-2.3806,-2.3806,-2.3806,-2.3806,-2.3806,-2.3806,-2.3806,-2.3806,-2.3806,-2.3806,-2.3837,-2.3888,-2.3909,-2.3979,-2.422,-2.4229,-2.4275,0.0,0.0,0.0,0.0,0.0,0.0,0.0,0.0,0.0,0.0,0.0,0.0,0.0,0.0,0.0,0.0,0.0,0.0,-2.399,-2.3307,-2.2849,-2.262,-2.3403,0.0,0.0,0.0,0.0,-2.5191,-2.522,-2.522,-2.5191,-2.522,-2.522,-2.5191,-2.5268,-2.5298,-2.5303,-2.5367,-2.5406,-2.5406,-2.5403,-2.6254,-2.7647,-2.7411,-2.8451,-3.0148,-2.994,-3.0108,-3.0511,-3.0563,-3.0591,-3.0601,-2.5463,0.0,0.0,-2.7789,0.0,0.0,-2.8107,0.0,0.0,-2.9971,-3.0378,0.0,-3.0581,-3.0006,-2.9354,-2.8664,-2.7998,0.0,0.0,0.0,0.0,-2.7683,-2.7701,-2.7771,-2.7926,-2.676,0.0,-2.6033,0.0,0.0,-2.3806,0.0,0.0,0.0,0.0,-2.4005,0.0,-2.432,-2.432,-2.4284,-2.394,0.0,0.0,-2.3958,-2.4067,-2.4411,-2.3958,-2.3806,-2.3806,-2.3806,-2.3806,-2.3806,-2.3806,-2.3806,-2.3806,-2.3806,-2.3806,-2.3806,-2.3806,-2.3806,-2.3837,-2.3989,-2.3999,-2.403,-2.4265,-2.4319,-2.4329,0.0,0.0,0.0,0.0,0.0,0.0,0.0,0.0,0.0,0.0,0.0,0.0,0.0,0.0,0.0,-2.3893,-2.3081,-2.2767,-2.3138,0.0,0.0,0.0,0.0,0.0,0.0,-2.5912,-2.5931,-2.521,-2.5931,-2.5931,-2.5191,-2.5234,-2.5261,-2.5266,-2.5308,-2.5313,-2.5313,-2.5313,-2.6068,-2.7305,-2.7305,-2.8282,-2.9836,-3.0221,-3.0367,-3.0365,-3.0367,-3.0429,-3.0564,0.0,0.0,0.0,0.0,0.0,0.0,0.0,-2.9513,0.0,-3.0169,0.0,-3.1117,-3.1016,-2.9886,-2.9024,-2.8856,0.0,-2.7012,-2.7135,-2.722,-2.7348,-2.7552,-2.755,-2.7597,-2.7627,-2.6932,0.0,0.0,0.0,0.0,0.0,0.0,0.0,0.0,0.0,0.0,0.0,-2.4954,-2.4936,0.0,-2.4067,-2.3806,-2.3806,-2.3806,-2.3806,-2.3806,-2.3806,-2.3806,-2.3806,-2.3806,-2.3806,-2.3806,-2.3806,-2.3806,-2.3806,-2.3806,-2.3806,-2.3806,-2.3806,-2.3806,-2.3806,-2.3806,-2.3806,-2.3847,-2.4029,-2.4068,-2.4068,-2.4068,-2.4201,0.0,0.0,0.0,0.0,0.0,0.0,0.0,0.0,0.0,0.0,0.0,0.0,0.0,0.0,0.0,0.0,0.0,0.0,0.0,0.0,0.0,0.0,0.0,-2.6619,0.0,-2.5535,0.0,-2.6746,-2.5535,-2.5421,-2.5363,-2.5363,-2.5363,-2.5421,-2.5516,-2.5421,-2.5873,-2.6727,-2.6727,-2.7638,-2.9147,-2.9898,-3.0211,-3.0211,-3.0211,-3.0302,-3.0572,0.0,0.0,0.0,0.0,0.0,-3.0207,-3.0349,-3.0012,-2.997,-3.0663,-3.0868,-3.0734,-3.011,-2.9808,-2.9192,-2.8021,-2.8185,0.0,0.0,0.0,0.0,-2.6826,-2.6858,-2.6989,-2.7197,-2.6754,-2.6156,0.0,0.0,0.0,0.0,0.0,0.0,0.0,0.0,0.0,-2.4049,-2.4719,0.0,-2.3994,-2.386,-2.3806,-2.3806,-2.3806,-2.3806,-2.3806,-2.3806,-2.3806,-2.3806,-2.3806,-2.3806,-2.3806,-2.3806,-2.3806,-2.3806,-2.3806,-2.3806,-2.3806,-2.3806,-2.3806,-2.3806,-2.3806,-2.3806,-2.3806,-2.3847,-2.3858,-2.3858,-2.3858,-2.3888,-2.3891,-2.3868,0.0,0.0,0.0,0.0,0.0,0.0,0.0,0.0,0.0,0.0,0.0,0.0,0.0,0.0,0.0,0.0,0.0,0.0,0.0,0.0,0.0,0.0,0.0,0.0,0.0,0.0,-2.7243,-2.6536,-2.6198,-2.6198,-2.6198,-2.6574,-2.7224,-2.6498,-2.7052,-2.8459,-2.8459,-2.9051,-2.9994,-3.0128,-3.0211,-3.0211,-3.0211,-3.0214,-3.028,0.0,0.0,0.0,0.0,0.0,0.0,0.0,-3.0314,0.0,-3.0841,-3.0573,-3.0339,-3.0372,-2.935,-2.855,-2.8288,-2.7865,-2.7363,-2.6742,-2.6995,-2.7012,-2.6674,-2.6691,0.0,-2.6891,-2.6283,-2.5887,-2.5655,0.0,0.0,0.0,0.0,0.0,0.0,0.0,-2.4896,0.0,0.0,0.0,-2.4972,-2.4139,-2.3806,-2.3806,-2.3806,-2.3806,-2.3806,-2.3806,-2.3806,-2.3806,-2.3806,-2.3806,-2.3806,-2.3806,-2.3806,-2.3806,-2.3806,-2.3806,-2.3806,-2.3806,-2.3806,-2.3806,-2.3806,-2.3806,-2.3806,-2.3806,-2.3806,-2.3806,-2.3806,-2.3806,-2.3806,-2.3806,-2.3888,0.0,0.0,0.0,0.0,0.0,0.0,0.0,0.0,0.0,0.0,0.0,0.0,0.0,0.0,0.0,0.0,0.0,0.0,0.0,0.0,0.0,0.0,0.0,0.0,0.0,-2.7033,-2.7065,-2.7071,-2.7071,-2.7071,-2.73,-2.7682,-2.7262,-2.7529,-2.8306,-2.872,-2.9414,-3.0211,-3.0211,-3.0211,-3.0211,-3.0211,-3.0211,-3.0256,0.0,-3.1962,0.0,0.0,-3.1118,0.0,0.0,-3.0506,-3.0589,-3.079,-3.0176,-2.9875,-3.0312,-2.8657,-2.7724,-2.8233,-2.7342,-2.6706,-2.6657,-2.6792,-2.6775,-2.6607,-2.664,-2.664,-2.6607,-2.6083,-2.5776,0.0,0.0,0.0,0.0,0.0,0.0,0.0,0.0,0.0,0.0,0.0,-2.5425,-2.5588,-2.4302,-2.3806,-2.3806,-2.3806,-2.3806,-2.3806,-2.3806,-2.3806,-2.3806,-2.3806,-2.3806,-2.3806,-2.3806,-2.3806,-2.3806,-2.3806,-2.3806,-2.3806,-2.3806,-2.3806,-2.3806,-2.3806,-2.3806,-2.3806,-2.3806,-2.3806,-2.3806,-2.3806,-2.3806,-2.3806,-2.3806,-2.3806,0.0,0.0,0.0,0.0,0.0,0.0,0.0,0.0,0.0,0.0,0.0,0.0,0.0,0.0,0.0,0.0,-2.5118,-2.5273,0.0,0.0,0.0,0.0,-2.6167,0.0,-2.7699,0.0,-2.744,-2.7771,-2.7924,-2.7924,-2.8019,-2.8204,-2.8032,-2.8058,-2.8275,-2.8917,-2.9586,-3.0211,-3.0211,-3.0211,-3.0211,-3.0211,-3.0211,-3.028,0.0,0.0,0.0,0.0,0.0,0.0,0.0,-3.0506,-3.0506,-3.0531,-2.9901,-2.9221,-2.8677,-2.785,-2.7123,-2.6579,-2.6959,-2.7027,-2.6536,-2.7034,-2.7031,-2.6381,-2.6451,-2.6468,-2.6348,-2.6623,-2.63,0.0,0.0,0.0,0.0,0.0,0.0,0.0,0.0,0.0,0.0,-2.5842,-2.5298,-2.4013,-2.385,-2.3806,-2.3806,-2.3806,-2.3806,-2.3806,-2.3806,-2.3806,-2.3806,-2.3806,-2.3806,-2.3806,-2.3806,-2.3806,-2.3806,-2.3806,-2.3806,-2.3806,-2.3806,-2.3806,-2.3806,-2.3806,-2.3806,-2.3806,-2.3806,-2.3806,-2.3806,-2.3806,-2.3806,-2.3806,-2.3806,-2.3806,-2.4031,0.0,0.0,0.0,0.0,0.0,0.0,0.0,0.0,0.0,0.0,0.0,0.0,0.0,0.0,0.0,-2.5006,-2.5766,-2.6552,-2.7347,0.0,-2.7461,-2.96,-2.6859,0.0,-2.856,-2.7925,-2.7994,-2.8698,-2.8698,-2.9139,-2.9823,-2.9105,-2.9241,-2.9975,-3.0051,-3.0128,-3.0211,-3.0211,-3.0211,-3.0211,-3.0211,-3.0211,-3.0211,0.0,0.0,0.0,0.0,0.0,0.0,0.0,-3.1168,-3.1002,-3.0555,-2.986,-2.9463,-2.9648,-2.826,-2.7385,-2.7592,-2.7058,-2.6646,-2.6502,-2.6718,-2.6734,-2.6433,-2.6468,-2.6468,-2.6416,-2.6504,-2.6336,0.0,0.0,0.0,0.0,0.0,0.0,0.0,0.0,-2.6117,-2.6665,-2.5545,-2.5111,-2.5098,-2.4169,-2.3792,-2.3806,-2.3806,-2.3806,-2.3806,-2.3806,-2.3806,-2.3806,-2.3806,-2.3806,-2.3806,-2.3806,-2.3806,-2.3806,-2.3806,-2.3806,-2.3806,-2.3806,-2.3806,-2.3806,-2.3806,-2.3806,-2.3806,-2.3806,-2.3806,-2.3806,-2.3806,-2.3806,-2.3806,-2.3806,-2.3806,-2.3914,0.0,0.0,0.0,0.0,0.0,0.0,0.0,0.0,0.0,0.0,0.0,0.0,0.0,0.0,0.0,-2.5754,-2.5613,-2.6384,-2.8262,0.0,-2.6486,-2.8525,-2.721,-2.7046,-2.8023,-2.8748,-2.9269,-2.9574,-2.9574,-2.9779,-3.0079,-2.9755,-2.982,-3.0147,-3.0142,-3.015,-3.0207,-3.077,-3.0987,-3.0987,-3.0949,-3.0949,-3.0911,-3.48,0.0,-3.4054,0.0,-3.3199,-3.2448,-3.1714,-3.1416,-3.1085,-3.0572,-3.0042,-2.9827,-3.0141,-2.8475,-2.7516,-2.8087,-2.7008,-2.6311,-2.6398,-2.6398,-2.6398,-2.6398,-2.6398,0.0,-2.6398,-2.6329,-2.6277,-2.6277,-2.6258,0.0,0.0,0.0,0.0,0.0,-2.5738,-2.6202,-2.7296,-2.5569,-2.5203,-2.5652,-2.4343,-2.3876,-2.3941,-2.3736,-2.371,-2.3803,-2.3803,-2.3803,-2.3803,-2.3803,-2.3792,-2.3782,-2.3795,-2.3806,-2.3806,-2.3806,-2.3806,-2.3806,-2.3806,-2.3806,-2.3806,-2.3806,-2.3806,-2.3806,-2.3806,-2.3806,-2.3806,-2.3806,-2.3806,-2.3806,-2.3806,-2.3806,-2.3878,0.0,0.0,0.0,0.0,0.0,0.0,0.0,0.0,-2.4203,-2.4346,0.0,0.0,0.0,0.0,0.0,0.0,-2.5577,0.0,0.0,0.0,0.0,0.0,0.0,-2.7371,-2.7877,-2.9091,-2.981,-3.0038,-3.0053,-3.008,-3.008,-3.0095,-3.0095,-3.0122,-3.0365,-3.0315,-3.0208,-3.1371,-3.1519,-3.1145,-3.161,-3.1503,-3.1064,-3.4899,-3.4883,-3.4651,-3.3922,-3.3199,-3.2448,-3.1714,-3.0986,-3.0506,-3.0506,-3.0489,-3.0208,-2.9479,-2.8141,-2.7298,-2.7298,-2.6617,-2.6202,-2.6203,-2.6203,-2.6203,0.0,0.0,-2.6203,-2.6203,-2.6202,-2.6202,-2.6202,0.0,0.0,-2.6202,0.0,0.0,-2.6791,-2.6855,-2.6635,-2.6219,-2.6184,-2.5718,-2.4958,-2.4205,-2.4047,-2.4219,-2.3555,-2.3515,-2.3804,-2.3804,-2.3804,-2.3804,-2.3804,-2.3772,-2.3703,-2.3782,-2.3806,-2.3806,-2.3806,-2.3806,-2.3806,-2.3806,-2.3806,-2.3806,-2.3806,-2.3806,-2.3806,-2.3806,-2.3806,-2.3806,-2.3806,-2.3806,-2.3806,-2.3806,-2.3806,-2.4049,-2.4864,0.0,0.0,0.0,0.0,0.0,0.0,-2.499,-2.499,-2.5001,0.0,0.0,0.0,0.0,0.0,0.0,0.0,0.0,-2.7201,-2.6357,0.0,-2.8665,-2.7043,-2.7043,-2.8684,-2.8703,-2.9139,-2.9897,-2.9964,-3.0007,-2.9996,-3.008,-3.0095,-3.0152,-3.0955,-3.0822,-3.0274,-3.1935,-3.1569,-3.0338,-3.2054,-3.163,-3.0338,-3.3491,-3.3392,-3.3348,-3.31,-3.2868,-3.2448,-3.1714,-3.1399,-3.1068,-3.0572,-3.0506,-3.0406,-3.0174,-2.8887,-2.8044,0.0,-2.6916,-2.6202,0.0,-2.6202,-2.6202,-2.6202,-2.6202,-2.6202,-2.6202,-2.6202,-2.6202,-2.6202,0.0,0.0,0.0,-2.697,-2.6777,-2.6399,-2.6417,-2.6472,-2.6514,-2.597,-2.5735,-2.5646,-2.4362,-2.3906,-2.3951,-2.3237,-2.3026,-2.3153,-2.3383,-2.347,-2.3492,-2.3678,-2.3711,-2.37,-2.3725,-2.3757,-2.3779,-2.3747,-2.3757,-2.3779,-2.3747,-2.3775,-2.3807,-2.3807,-2.3792,-2.3806,-2.3806,-2.3806,-2.3806,-2.3806,-2.3806,-2.3795,-2.38,-2.3807,-2.3869,-2.4078,0.0,0.0,0.0,0.0,0.0,0.0,0.0,-2.4183,0.0,-2.4187,0.0,0.0,0.0,0.0,0.0,0.0,0.0,0.0,-2.5899,0.0,-2.8268,-2.7165,-2.7147,-2.8222,-2.883,-2.9298,-2.9717,-3.0469,-3.049,-2.9978,-3.0582,-3.0514,-2.9983,-3.0299,-3.025,-3.0152,-3.1275,-3.1748,-3.1862,-3.243,-3.264,-3.2545,-3.2801,-3.2702,-3.2702,-3.2702,-3.2464,-3.2133,-3.1664,-3.1366,-3.1019,-3.0555,-3.0506,-3.0506,-3.0506,-2.9466,0.0,-2.8426,-2.7296,0.0,-2.6219,-2.6202,-2.6202,-2.6202,-2.6202,-2.6202,-2.6202,0.0,0.0,-2.6202,-2.6651,-2.6901,-2.6901,-2.6901,-2.6634,-2.6202,-2.6202,-2.6328,-2.647,-2.5682,-2.5494,-2.5597,-2.4064,-2.3554,-2.3591,-2.2858,-2.2656,-2.2784,-2.2995,-2.3074,-2.311,-2.3265,-2.3318,-2.3336,-2.3447,-2.3515,-2.3582,-2.3678,-2.3721,-2.3743,-2.3711,-2.3721,-2.3772,-2.3793,-2.3807,-2.3792,-2.3792,-2.3792,-2.3782,-2.3761,-2.3782,-2.38,-2.3765,-2.3793,-2.3783,-2.3711,0.0,-2.3754,0.0,0.0,0.0,0.0,0.0,0.0,0.0,-2.4245,0.0,0.0,0.0,0.0,0.0,0.0,0.0,-2.6552,-2.5384,0.0,-2.7585,-2.7361,-2.7667,-2.8493,-2.946,-2.9961,-3.0124,-3.1163,-3.1151,-3.0315,-3.0932,-3.0658,-2.9823,-3.0265,-3.0457,-3.0571,-3.176,-3.2365,-3.264,-3.3304,-3.3246,-3.2809,-3.2636,-3.2586,0.0,0.0,-3.1984,0.0,-3.1515,-3.0936,-3.0506,-3.0506,-3.0506,-3.0506,-3.0506,-2.9877,-2.9201,-2.8525,0.0,0.0,0.0,-2.6202,-2.6202,-2.6202,-2.6202,0.0,-2.6202,-2.6202,-2.6202,-2.6202,-2.6202,-2.6202,-2.6202,-2.6202,-2.6202,-2.6202,-2.6202,-2.6202,-2.6152,-2.5475,-2.516,-2.4978,-2.3553,-2.3109,-2.3197,-2.2451,-2.2368,-2.2643,-2.2656,-2.2669,-2.2669,-2.2682,-2.2691,-2.2743,-2.299,-2.3126,-2.3242,-2.356,-2.3667,-2.3667,-2.3656,-2.3667,-2.3689,-2.3772,-2.3793,-2.3793,-2.3793,-2.3793,-2.3783,-2.3711,-2.3743,-2.3765,-2.37,-2.3732,-2.3754,-2.37,-2.3689,-2.3689,-2.3689,0.0,0.0,0.0,0.0,0.0,0.0,-2.4879,-2.462,0.0,0.0,0.0,0.0,0.0,0.0,-2.4197,-2.4902,-2.5774,-2.683,-2.7581,-2.8415,-2.9344,-3.0419,-3.093,-3.0949,-3.1977,-3.1855,-3.0884,-3.1137,-3.06,-2.9655,-3.0721,-3.1113,-3.1235,-3.2917,-3.3115,-3.265,-3.427,-3.3451,-3.1741,0.0,0.0,-3.1019,-3.1019,-3.087,-3.0754,-3.0754,-3.0605,-3.0506,-3.0506,-3.0506,-3.0506,-3.0506,-3.034,-2.9943,-2.9234,-2.8028,-2.7,-2.6252,-2.6202,-2.6202,-2.6202,-2.6202,-2.6202,-2.6202,-2.6202,-2.6202,-2.6202,-2.6202,-2.6202,-2.6202,-2.6202,-2.6202,-2.6202,-2.6202,-2.6202,-2.6185,-2.6003,-2.5606,-2.5027,-2.4116,-2.3435,-2.2899,-2.2182,-2.194,-2.2039,-2.2248,-2.2313,-2.2371,-2.2616,-2.2699,-2.2717,-2.2769,-2.2807,-2.2867,-2.3163,-2.3283,-2.3301,-2.3259,-2.3283,-2.3359,-2.3596,-2.3696,-2.3721,-2.3721,-2.3721,-2.3711,-2.37,-2.3711,-2.37,-2.3641,-2.3641,-2.3618,-2.3562,-2.3596,-2.3618,-2.3618,0.0,0.0,0.0,-2.3999,-2.3977,-2.3916,-2.3928,-2.4358,0.0,0.0,0.0,0.0,0.0,-2.55,-2.4813,-2.4976,-2.5779,-2.7237,-2.7455,-2.8257,-2.9685,-3.0717,-3.1211,-3.1241,-3.2299,-3.1986,-3.0621,-3.1281,-3.074,-2.9431,-3.0311,-3.0294,-2.9847,-3.0874,-3.1539,-3.1931,-3.2345,-3.306,-3.3795,-3.1234,-3.077,-3.0506,-3.0506,-3.0506,-3.0506,-3.0506,-3.0506,-3.0506,-3.0506,-3.0506,-3.0506,-3.0506,-3.0506,-3.0191,-2.9446,-2.8704,-2.781,-2.6766,-2.67,-2.6551,-2.6202,-2.6202,-2.6202,-2.6202,-2.6202,-2.6202,-2.6202,-2.6202,-2.6202,-2.6202,-2.6202,-2.6202,-2.6202,-2.6202,-2.6202,-2.6169,-2.5838,-2.5259,-2.453,-2.3785,-2.3056,-2.2377,-2.2327,-2.2079,-2.186,-2.2354,-2.2298,-2.2039,-2.2226,-2.2281,-2.2309,-2.2429,-2.247,-2.2497,-2.2647,-2.2829,-2.2955,-2.2922,-2.3022,-2.3235,-2.3528,-2.3652,-2.3689,-2.3663,-2.395,-2.419,-2.4167,-2.4179,-2.4179,-2.4128,-2.3824,-2.3573,-2.3517,-2.3528,-2.3551,-2.3551,-2.3596,0.0,-2.4102,-2.419,-2.4322,-2.4581,-2.4629,-2.4998,-2.585,0.0,0.0,-2.5936,-2.5954,-2.5632,-2.4926,-2.5658,-2.6465,-2.735,-2.8111,-2.9119,-3.0364,-3.1404,-3.1885,-3.1935,-3.3007,-3.274,-3.1498,-3.2022,-3.1462,-3.026,-3.0813,-3.1006,-3.0991,-3.1426,-3.2124,-3.2841,-3.2841,-3.3257,-3.3818,-3.0995,-3.0761,-3.0671,-3.0671,-3.0572,-3.0506,-3.0506,-3.0506,-3.0506,-3.0506,-3.0506,-3.0506,-3.0506,-3.0506,-3.0241,-2.9612,-2.9562,-2.8969,-2.7564,-2.7348,-2.7017,-2.6402,-2.6252,-2.6202,-2.6202,-2.6202,-2.6202,-2.6202,-2.6202,-2.6202,-2.6202,-2.6202,-2.6202,-2.6202,-2.6202,-2.6202,-2.6152,-2.5541,-2.4845,-2.4116,-2.3487,-2.2791,-2.221,-2.2824,-2.2675,-2.221,-2.2708,-2.2508,-2.1961,-2.1845,-2.1812,-2.184,-2.2068,-2.2136,-2.2136,-2.2136,-2.2334,-2.2567,-2.2607,-2.289,-2.3265,-2.3543,-2.3772,-2.3929,-2.3867,-2.4391,-2.4861,-2.4794,-2.4794,-2.4746,-2.4585,-2.4076,-2.3719,-2.378,-2.3625,-2.3577,-2.3808,0.0,-2.3933,-2.4623,-2.4849,-2.5171,-2.5747,-2.5856,-2.5904,-2.5979,-2.5872,0.0,0.0,-2.6179,-2.5959,-2.5327,-2.6609,-2.7343,-2.7469,-2.9135,-3.0314,-3.1003,-3.215,-3.2708,-3.2758,-3.3671,-3.3517,-3.2538,-3.2724,-3.2207,-3.1272,-3.163,-3.2113,-3.2625,-3.2754,-3.3247,-3.3901,-3.3901,-3.3525,-3.3111,-3.2642,-3.197,-3.1432,-3.1432,-3.0903,-3.0506,-3.0506,-3.0506,-3.0506,-3.0506,-3.0506,-3.0506,-3.0506,-3.0506,-3.0456,-3.034,-3.0323,-2.9731,-2.8326,-2.7647,-2.7249,-2.7133,-2.6535,-2.6202,-2.6202,-2.6202,-2.6202,-2.6202,-2.6202,-2.6202,-2.6202,-2.6202,-2.6202,-2.6202,-2.6202,-2.6202,-2.6185,-2.607,-2.559,-2.4928,-2.4812,-2.4315,-2.3669,-2.3785,-2.3768,-2.3586,-2.3073,-2.2824,-2.2626,-2.2011,-2.1812,-2.1812,-2.1855,-2.1855,-2.1855,-2.1855,-2.1899,-2.1984,-2.2223,-2.2928,-2.3615,-2.3669,-2.4374,-2.5055,-2.5042,-2.513,-2.5217,-2.5204,-2.4983,-2.4607,-2.3963,-2.4003,-2.4329,-2.4989,-2.4211,-2.3951,0.0,0.0,-2.4569,-2.4694,-2.5247,-2.5688,-2.58,-2.58,-2.6086,-2.6746,-2.6175,-2.6104,-2.6777,-2.7473,-2.7781,-2.7687,-2.7389,-2.7543,-2.8208,-2.9891,-3.078,-3.0924,-3.252,-3.3285,-3.3285,-3.3437,-3.3055,-3.225,-3.2306,-3.1838,-3.1089,-3.1819,-3.181,-3.1356,-3.2047,-3.2392,-3.2502,-3.2502,-3.2994,-3.3579,-3.2297,-3.1906,-3.1704,-3.2028,-3.1874,-3.1686,-3.1686,-3.135,-3.1234,-3.1636,-3.0986,-3.0654,-3.1052,-3.0737,-3.0506,-3.0506,-3.0506,-3.0208,-2.9566,-2.8508,-2.7713,-2.7315,-2.6584,-2.6202,-2.6202,-2.6202,-2.6202,-2.6202,-2.6202,-2.6202,-2.6202,-2.6202,-2.6202,-2.6202,-2.6202,-2.6202,-2.6202,-2.6202,-2.5772,-2.511,-2.511,-2.4663,-2.405,-2.4448,-2.4348,-2.3967,-2.3603,-2.3238,-2.2791,-2.2061,-2.1812,-2.1812,-2.1812,-2.1812,-2.1879,-2.2293,-2.2377,-2.2453,-2.2714,-2.3415,-2.4108,-2.4268,-2.4654,-2.5031,-2.5031,-2.5357,-2.5684,-2.5684,-2.555,-2.5326,-2.4996,-2.4386,-2.4242,-2.5203,-2.4191,0.0,0.0,-2.5176,-2.5015,-2.5836,-2.6247,-2.6621,-2.7054,-2.709,-2.7442,-2.8227,-2.7549,-2.7607,-2.8816,-2.8855,-2.8838,-2.8838,-2.8989,-2.9502,-3.0334,-3.1114,-3.1686,-3.2082,-3.2883,-3.3241,-3.3241,-3.3241,-3.309,-3.2792,-3.2792,-3.2589,-3.2325,-3.2687,-3.2632,-3.2325,-3.2705,-3.285,-3.285,-3.285,-3.3154,-3.3536,-3.1754,-3.1772,-3.1951,-3.2432,-3.2554,-3.2613,-3.2613,-3.2128,-3.1979,-3.2569,-3.1676,-3.1196,-3.1797,-3.135,-3.0936,-3.077,-3.0754,-3.0688,-3.0506,-2.9314,-2.8288,-2.758,-2.6684,-2.6202,-2.6202,-2.6202,-2.6202,-2.6202,-2.6202,-2.6202,-2.6202,-2.6202,-2.6202,-2.6202,-2.6202,-2.6202,-2.6202,-2.6202,-2.5871,-2.5359,-2.5359,-2.5027,-2.458,-2.5126,-2.5011,-2.4497,-2.4315,-2.3785,-2.3073,-2.2493,-2.221,-2.2094,-2.226,-2.2311,-2.241,-2.299,-2.3272,-2.3434,-2.3451,-2.4016,-2.4602,-2.4819,-2.506,-2.524,-2.524,-2.5718,-2.616,-2.616,-2.6098,-2.6032,-2.5905,-2.4927,-2.4483,-2.5589,0.0,0.0,0.0,-2.5753,-2.5867,-2.7139,-2.7603,-2.8066,-2.8677,-2.8731,-2.898,-2.9619,-2.9069,-2.9248,-3.044,-3.0136,-3.0029,-3.0208,-3.0323,-3.0793,-3.1637,-3.185,-3.2242,-3.2801,-3.2996,-3.3101,-3.3101,-3.3101,-3.3273,-3.3563,-3.3382,-3.3554,-3.3936,-3.3556,-3.352,-3.3665,-3.3465,-3.352,-3.3683,-3.3683,-3.3683,-3.3647,-3.1893,-3.2165,-3.2444,-3.2494,-3.2399,-3.2341,-3.2341,-3.2292,-3.2298,-3.2484,-3.2424,-3.2419,-3.2597,-3.2586,-3.2249,-3.1581,-3.1515,-3.1234,-3.0539,-2.9712,-2.8969,-2.8359,-2.6965,-2.6202,-2.6202,-2.6202,-2.6202,-2.6202,-2.6202,-2.6202,-2.6202,-2.6202,-2.6202,-2.6202,-2.6202,-2.6202,-2.6202,-2.6202,-2.6169,-2.6119,-2.6119,-2.6086,-2.6036,-2.6103,-2.6086,-2.5937,-2.5259,-2.4547,-2.3918,-2.3868,-2.3388,-2.294,-2.3619,-2.3835,-2.3851,-2.3901,-2.4398,-2.4795,-2.4133,-2.4497,-2.5045,-2.5062,-2.5816,-2.6555,-2.6555,-2.6606,-2.664,-2.664,-2.6402,-2.6064,-2.5693,-2.5489,-2.5755,-2.6966,0.0,0.0,-2.7283,-2.7502,-2.7638,-2.8061,-2.9373,-3.0279,-3.0318,-3.0318,-3.0353,-3.0407,-3.0353,-3.0371,-3.0478,-3.1153,-3.1867,-3.2614,-3.0597,-2.9851,-3.0597,-3.1404,-3.1843,-3.1897,-3.2711,-3.3101,-3.3101,-3.3101,-3.3579,-3.4375,-3.3617,-3.4186,-3.5514,-3.4009,-3.3846,-3.4443,-3.3701,-3.3864,-3.4516,-3.4516,-3.4516,-3.4407,-3.1764,-3.2458,-3.3061,-3.3061,-3.3396,-3.3661,-3.3661,-3.3285,-3.3154,-3.3684,-3.2945,-3.2574,-3.308,-3.2735,-3.234,-3.2054,-3.1665,-3.1303,-3.1007,-3.0274,-2.9375,-2.8326,-2.73,-2.6792,-2.6884,-2.6435,-2.6202,-2.6202,-2.6202,-2.6202,-2.6202,-2.6202,-2.6202,-2.6202,-2.6202,-2.6202,-2.6202,-2.6202,-2.6202,-2.6202,-2.6202,-2.6202,-2.6202,-2.6202,-2.6202,-2.6103,-2.5358,-2.4928,-2.4613,-2.4149,-2.3818,-2.3636,-2.3918,-2.4,-2.41,-2.4547,-2.5192,-2.5822,-2.6006,-2.5922,-2.5772,-2.5772,-2.6094,-2.6399,-2.6399,-2.6399,-2.6516,-2.6984,-2.6959,-2.697,-2.7282,-2.695,-2.6972,-2.81,0.0,-2.6582,-2.8483,-2.8325,-2.8349,-2.9213,-2.9823,-3.0269,-3.0481,-3.0496,-3.0725,-3.1207,-3.0779,-3.0939,-3.1938,-3.1811,-3.2079,-3.2864,-3.1546,-3.1189,-3.1974,-3.2324,-3.2483,-3.2483,-3.2818,-3.2979,-3.2979,-3.2979,-3.3187,-3.3571,-3.3294,-3.3571,-3.424,-3.416,-3.4027,-3.3918,-3.4609,-3.4769,-3.4645,-3.5152,-3.5333,-3.5297,-3.1335,-3.2142,-3.281,-3.281,-3.3511,-3.4093,-3.4093,-3.3836,-3.3754,-3.4103,-3.3267,-3.2781,-3.3144,-3.2732,-3.2409,-3.2366,-3.1739,-3.1342,-3.1303,-3.0577,-2.9648,-2.8536,-2.7586,-2.7132,-2.7243,-2.6781,-2.6435,-2.6202,-2.6399,-2.6399,-2.6202,-2.6399,-2.6383,-2.6202,-2.6202,-2.6202,-2.6202,-2.6202,-2.6202,-2.6202,-2.6202,-2.6202,-2.6202,-2.6202,-2.6202,-2.6119,-2.5623,-2.5292,-2.506,-2.4779,-2.4547,-2.4398,-2.463,-2.4696,-2.4795,-2.5292,-2.5971,-2.6601,-2.6884,-2.6916,-2.6899,-2.6899,-2.6899,-2.6899,-2.6899,-2.6899,-2.7031,-2.7531,-2.7647,-2.7833,-2.8446,-2.8054,-2.7927,-2.8763,-2.7918,-2.765,-2.904,-2.8972,-2.9111,-3.0053,-3.0382,-3.0622,-3.0848,-3.0993,-3.1286,-3.1836,-3.1484,-3.174,-3.2846,-3.2382,-3.2329,-3.2882,-3.2364,-3.2347,-3.2882,-3.29,-3.29,-3.29,-3.29,-3.3025,-3.3275,-3.3025,-3.32,-3.3729,-3.3273,-3.3422,-3.4001,-3.4083,-3.4099,-3.415,-3.5033,-3.5193,-3.5013,-3.5858,-3.6019,-3.5804,-3.0598,-3.1087,-3.1508,-3.1508,-3.2446,-3.3182,-3.3182,-3.3697,-3.3917,-3.3443,-3.3391,-3.3219,-3.2752,-3.2698,-3.2646,-3.2513,-3.1885,-3.1436,-3.1313,-3.0468,-2.9734,-2.912,-2.7827,-2.7111,-2.7111,-2.7243,-2.695,-2.6202,-2.6821,-2.6805,-2.6219,-2.6803,-2.6772,-2.6202,-2.6202,-2.6202,-2.6202,-2.6202,-2.6202,-2.6202,-2.6202,-2.6202,-2.6202,-2.6202,-2.6202,-2.6202,-2.6202,-2.5722,-2.5209,-2.5937,-2.5705,-2.5243,-2.597,-2.6202,-2.6202,-2.6202,-2.6717,-2.7149,-2.6419,-2.7296,-2.8409,-2.8392,-2.8392,-2.8392,-2.8392,-2.8392,-2.8392,-2.8409,-2.8409,-2.8508,-2.8864,-2.8641,-2.8524,-2.8864,-2.8622,-2.8543,-2.8864,-2.9548,-3.0121,-3.0452,-3.1212,-3.1695,-3.1695,-3.2074,-3.2301,-3.2301,-3.2672,-3.29,-3.29,-3.29,-3.29,-3.29,-3.29,-3.29,-3.29,-3.29,-3.29,-3.29,-3.29,-3.3328,-3.4079,-3.3275,-3.3824,-3.5303,-3.3693,-3.3936,-3.5362,-3.3764,-3.4054,-3.5418,-3.476,-3.4954,-3.571,-3.6638,-3.6472,-3.5804,-3.0687,-3.1437,-3.1992,-3.1566,-3.2117,-3.2641,-3.2641,-3.2792,-3.2873,-3.2722,-3.2695,-3.2641,-3.2489,-3.2504,-3.2482,-3.2442,-3.1762,-3.1089,-3.0433,-2.9629,-2.9307,-2.9664,-2.8832,-2.8408,-2.8509,-2.804,-2.7682,-2.7465,-2.7115,-2.6869,-2.6677,-2.6395,-2.6149,-2.6021,-2.648,-2.6693,-2.6726,-2.7344,-2.7297,-2.6838,-2.693,-2.6651,-2.6202,-2.6202,-2.6202,-2.6202,-2.6202,-2.6053,-2.5922,-2.6119,-2.6053,-2.5904,-2.6119,-2.6551,-2.6967,-2.6967,-2.7497,-2.8127,-2.839,-2.8771,-2.8853,-2.7862,-2.8011,-2.8392,-2.8392,-2.8392,-2.8525,-2.9003,-2.9102,-2.9287,-2.9922,-2.9941,-2.9921,-3.0005,-2.9941,-2.9921,-3.0005,-3.0209,-3.0486,-3.0883,-3.1125,-3.149,-3.2074,-3.2231,-3.242,-3.2705,-3.2836,-3.29,-3.29,-3.29,-3.29,-3.29,-3.29,-3.3168,-3.374,-3.374,-3.3455,-3.29,-3.3473,-3.3865,-3.4079,-3.3275,-3.3487,-3.4434,-3.3428,-3.3279,-3.3759,-3.3894,-3.3892,-3.391,-3.4839,-3.4983,-3.4785,-3.5643,-3.5804,-3.5588,-3.0657,-3.1204,-3.1566,-3.1204,-3.1623,-3.2048,-3.2048,-3.2259,-3.2299,-3.2092,-3.2048,-3.1936,-3.1709,-3.168,-3.1794,-3.202,-3.1343,-3.0567,-2.9768,-2.9028,-2.8805,-2.9257,-2.8866,-2.8779,-2.9025,-2.8428,-2.7924,-2.7548,-2.7185,-2.6812,-2.6503,-2.6335,-2.6269,-2.6307,-2.6733,-2.7057,-2.7371,-2.7905,-2.7879,-2.7539,-2.7618,-2.7243,-2.6634,-2.6634,-2.6634,-2.6634,-2.6634,-2.6816,-2.7065,-2.7065,-2.7065,-2.7065,-2.7065,-2.7381,-2.7729,-2.7729,-2.8243,-2.882,-2.8969,-2.9417,-2.9546,-2.8406,-2.8688,-2.9218,-2.9218,-2.9218,-2.9433,-3.0125,-3.0257,-3.0406,-3.0853,-3.1168,-3.1272,-3.0986,-3.0936,-3.0936,-3.0936,-3.0688,-3.0593,-3.0841,-3.0861,-3.1162,-3.1956,-3.1903,-3.1985,-3.2386,-3.2437,-3.2628,-3.3115,-3.3133,-3.3341,-3.3794,-3.3526,-3.374,-3.4543,-3.4543,-3.4294,-3.3812,-3.4311,-3.4704,-3.4989,-3.4169,-3.4079,-3.449,-3.3772,-3.3251,-3.2999,-3.353,-3.3635,-3.3582,-3.4596,-3.4686,-3.4363,-3.5184,-3.529,-3.5038,-3.0685,-3.0641,-3.0598,-3.0598,-3.1058,-3.1422,-3.1422,-3.1879,-3.2048,-3.148,-3.1422,-3.1204,-3.0657,-3.0598,-3.0836,-3.1379,-3.0737,-3.0017,-2.9347,-2.8732,-2.8365,-2.8288,-2.8288,-2.8482,-2.8833,-2.8484,-2.787,-2.7036,-2.7072,-2.6721,-2.6026,-2.6552,-2.6851,-2.6896,-2.7019,-2.7447,-2.8069,-2.8154,-2.821,-2.8277,-2.8277,-2.791,-2.7363,-2.7363,-2.7363,-2.7363,-2.7363,-2.7793,-2.8373,-2.8373,-2.8373,-2.8373,-2.8373,-2.8423,-2.8472,-2.8472,-2.895,-2.9363,-2.8738,-2.9533,-3.0357,-2.9744,-3.0092,-3.0605,-3.0605,-3.0605,-3.0803,-3.1548,-3.1697,-3.1697,-3.1697,-3.2249,-3.2481,-3.1797,-3.1697,-3.1681,-3.1615,-3.1019,-3.0605,-3.0605,-3.0539,-3.0824,-3.1679,-3.151,-3.1504,-3.1865,-3.1902,-3.2379,-3.3475,-3.3546,-3.4005,-3.5047,-3.4425,-3.4425,-3.5172,-3.519,-3.5189,-3.5186,-3.5258,-3.5685,-3.6363,-3.5507,-3.5133,-3.5151,-3.4347,-3.358,-3.29,-3.29,-3.333,-3.399,-3.4053,-3.4085,-3.4193,-3.4972,-3.479,-3.4181,-3.1308,-3.0916,-3.0598,-3.0598,-3.0717,-3.0807,-3.0807,-3.0925,-3.094,-3.0807,-3.0807,-3.0747,-3.0598,-3.0598,-3.0657,-3.0777,-3.0549,-3.0093,-2.9417,-2.9195,-2.8849,-2.8319,-2.8288,-2.8347,-2.8428,-2.8342,-2.8202,-2.7999,-2.7449,-2.7086,-2.6925,-2.6898,-2.6878,-2.6936,-2.7941,-2.8484,-2.8679,-2.9295,-2.924,-2.8755,-2.8858,-2.8476,-2.784,-2.784,-2.784,-2.784,-2.784,-2.7938,-2.8086,-2.8086,-2.8162,-2.8237,-2.8237,-2.8633,-2.9094,-2.9094,-2.9626,-3.0158,-3.0009,-3.0232,-3.0605,-3.1019,-3.1234,-3.1366,-3.1366,-3.1366,-3.1565,-3.2299,-3.2448,-3.2448,-3.2448,-3.258,-3.2652,-3.2481,-3.2448,-3.2266,-3.1681,-3.1466,-3.1366,-3.1366,-3.0853,-3.1149,-3.2774,-3.3138,-3.3333,-3.3431,-3.3431,-3.3539,-3.3809,-3.3809,-3.3934,-3.417,-3.4031,-3.4326,-3.5107,-3.5124,-3.5158,-3.5204,-3.5846,-3.6238,-3.6345,-3.4972,-3.4634,-3.5115,-3.374,-3.3061,-3.29,-3.29,-3.3007,-3.3168,-3.3166,-3.3182,-3.32,-3.3377,-3.3357,-3.3214,-3.1192,-3.1047,-3.093,-3.0656,-3.0598,-3.0598,-3.0598,-3.0598,-3.0598,-3.0598,-3.0598,-3.0598,-3.0598,-3.0598,-3.0598,-3.0598,-3.0236,-2.988,-2.9526,-2.9181,-2.8712,-2.8038,-2.7993,-2.7884,-2.7595,-2.758,-2.7639,-2.7787,-2.715,-2.6807,-2.6719,-2.6614,-2.6747,-2.7081,-2.8005,-2.8612,-2.8986,-2.9674,-2.974,-2.9425,-2.9489,-2.9127,-2.8518,-2.8518,-2.8518,-2.8518,-2.8518,-2.8747,-2.9059,-2.9059,-2.91,-2.9157,-2.9218,-2.9461,-2.9732,-2.9815,-3.0058,-3.0399,-3.0825,-3.0686,-3.0728,-3.1846,-3.1846,-3.1697,-3.205,-3.2133,-3.2332,-3.3061,-3.3232,-3.3232,-3.3232,-3.3508,-3.3624,-3.3299,-3.3232,-3.3077,-3.2713,-3.2365,-3.2133,-3.2133,-3.1785,-3.1938,-3.2909,-3.3511,-3.3706,-3.3355,-3.3339,-3.3575,-3.4157,-3.4195,-3.4432,-3.4981,-3.4654,-3.4843,-3.5621,-3.5294,-3.5292,-3.5688,-3.6092,-3.6418,-3.6606,-3.581,-3.535,-3.5151,-3.4347,-3.358,-3.29,-3.29,-3.29,-3.29,-3.29,-3.29,-3.29,-3.29,-3.29,-3.29,-3.1309,-3.1308,-3.1351,-3.0829,-3.067,-3.0598,-3.0598,-3.0598,-3.0598,-3.0598,-3.0598,-3.0598,-3.0598,-3.0598,-3.0598,-3.0598,-3.0089,-2.9711,-2.961,-2.9029,-2.8448,-2.7898,-2.7652,-2.7374,-2.6953,-2.6837,-2.6927,-2.7126,-2.6737,-2.6467,-2.6289,-2.6367,-2.6726,-2.7277,-2.7805,-2.8385,-2.9005,-2.9448,-2.9665,-2.9716,-2.9804,-2.9535,-2.9105,-2.9205,-2.9225,-2.9225,-2.9225,-2.9618,-3.0162,-3.0162,-3.0162,-3.0189,-3.0312,-3.0351,-3.0385,-3.0493,-3.0532,-3.0697,-3.1413,-3.1177,-3.1072,-3.248,-3.2365,-3.2095,-3.2827,-3.2939,-3.31,-3.3822,-3.3988,-3.3988,-3.3988,-3.4485,-3.47,-3.4087,-3.3988,-3.3938,-3.3806,-3.3282,-3.2901,-3.2901,-3.3017,-3.3033,-3.2917,-3.3564,-3.3723,-3.3133,-3.3083,-3.3506,-3.4509,-3.4582,-3.5011,-3.5959,-3.5373,-3.5356,-3.5959,-3.5373,-3.5373,-3.5977,-3.5977,-3.6316,-3.69,-3.6759,-3.6159,-3.5186,-3.5062,-3.4204,-3.29,-3.29,-3.29,-3.29,-3.29,-3.29,-3.29,-3.29,-3.29,-3.29,-3.314,-3.2237,-3.1451,-3.1409,-3.0945,-3.0598,-3.0598,-3.0598,-3.0598,-3.0598,-3.0598,-3.0598,-3.0598,-3.0598,-3.0598,-3.0598,-3.0525,-3.0205,-2.9639,-2.9029,-2.8665,-2.8578,-2.7505,-2.7128,-2.7565,-2.707,-2.6814,-2.6842,-2.6805,-2.6761,-2.6725,-2.7125,-2.7365,-2.748,-2.8005,-2.8307,-2.8408,-2.8496,-2.8519,-2.8551,-2.9051,-2.9164,-2.9153,-2.9609,-2.9778,-2.9778,-2.9778,-2.9859,-2.9924,-2.9924,-2.9989,-3.0038,-3.0038,-3.0478,-3.0984,-3.1006,-3.1446,-3.1945,-3.2066,-3.2076,-3.2243,-3.3102,-3.3233,-3.3348,-3.4086,-3.3924,-3.3856,-3.4601,-3.475,-3.475,-3.475,-3.4833,-3.4866,-3.4767,-3.475,-3.4518,-3.3889,-3.3707,-3.364,-3.364,-3.4203,-3.4336,-3.3707,-3.4319,-3.47,-3.4601,-3.4601,-3.4658,-3.4828,-3.4844,-3.4925,-3.5078,-3.4971,-3.4971,-3.5078,-3.4971,-3.4971,-3.5095,-3.5095,-3.571,-3.6882,-3.6178,-3.5611,-3.5151,-3.4543,-3.374,-3.29,-3.29,-3.29,-3.29,-3.29,-3.29,-3.29,-3.29,-3.29,-3.29,-3.3079,-3.2759,-3.2382,-3.1642,-3.1293,-3.0988,-3.0656,-3.0598,-3.0598,-3.0598,-3.0598,-3.0598,-3.0598,-3.0598,-3.0598,-3.0598,-3.0598,-3.0481,-3.0176,-2.9929,-2.9581,-2.9232,-2.8666,-2.8173,-2.771,-2.7434,-2.7142,-2.6806,-2.7142,-2.7128,-2.682,-2.7351,-2.7412,-2.7126,-2.7615,-2.7849,-2.7874,-2.8167,-2.8288,-2.8312,-2.8567,-2.8662,-2.8685,-2.8912,-2.9205,-2.9493,-2.9792,-3.0139,-3.0393,-3.0026,-3.0178,-3.0524,-3.0591,-3.1056,-3.1619,-3.1687,-3.1892,-3.2187,-3.2631,-3.2523,-3.252,-3.3719,-3.3694,-3.3694,-3.4841,-3.4643,-3.4296,-3.4714,-3.4804,-3.4811,-3.4899,-3.4899,-3.4899,-3.4899,-3.4851,-3.4688,-3.4358,-3.4308,-3.4332,-3.4402,-3.47,-3.4767,-3.4435,-3.47,-3.4899,-3.4899,-3.4899,-3.4899,-3.4899,-3.4899,-3.4899,-3.4899,-3.4899,-3.4899,-3.4899,-3.4899,-3.4899,-3.4899,-3.4899,-3.5339,-3.6151,-3.5373,-3.4972,-3.4818,-3.4093,-3.3434,-3.29,-3.29,-3.29,-3.29,-3.29,-3.29,-3.29,-3.29,-3.29,-3.29]},{"header":{"parameterUnit":"m.s-1","parameterCategory":1,"la1":30.6,"la2":28.766,"lo1":-90.7593,"lo2":-88.6598,"dy":0.0162,"dx":0.0183,"nx":116,"ny":114,"refTime":"2023-02-23T18:00:00:Z","depth":0,"parameterNumber":3,"parameterNumberName":"V-component_of_WINDS"},"data":[0.0,0.0,0.0,0.0,0.0,0.0,0.0,0.0,0.0,0.0,0.0,0.0,0.0,0.0,0.0,0.0,0.0,0.0,0.0,0.0,0.0,0.0,0.0,0.0,0.0,0.0,0.0,0.0,0.0,0.0,0.0,0.0,0.0,0.0,0.0,0.0,0.0,0.0,0.0,0.0,0.0,0.0,0.0,0.0,0.0,0.0,0.0,0.0,0.0,0.0,0.0,0.0,0.0,0.0,0.0,0.0,0.0,0.0,0.0,0.0,0.0,0.0,0.0,0.0,0.0,0.0,0.0,0.0,0.0,0.0,0.0,0.0,0.0,0.0,0.0,0.0,0.0,0.0,0.0,0.0,0.0,0.0,0.0,0.0,0.0,0.0,0.0,0.0,0.0,0.0,0.0,0.0,0.0,0.0,0.0,0.0,0.0,0.0,0.0,0.0,0.0,0.0,0.0,0.0,0.0,0.0,0.0,0.0,0.0,0.0,0.0,0.0,0.0,0.0,0.0,0.0,0.0,0.0,0.0,0.0,0.0,0.0,0.0,0.0,0.0,0.0,0.0,0.0,0.0,0.0,0.0,0.0,0.0,0.0,0.0,0.0,0.0,0.0,0.0,0.0,0.0,0.0,0.0,0.0,0.0,0.0,0.0,0.0,0.0,0.0,0.0,0.0,0.0,0.0,0.0,0.0,0.0,0.0,0.0,0.0,0.0,0.0,0.0,0.0,0.0,0.0,0.0,0.0,0.0,0.0,0.0,0.0,0.0,0.0,0.0,0.0,0.0,0.0,0.0,0.0,0.0,0.0,0.0,0.0,0.0,0.0,0.0,0.0,0.0,0.0,0.0,0.0,0.0,0.0,0.0,0.0,0.0,0.0,0.0,0.0,0.0,0.0,0.0,0.0,0.0,0.0,0.0,0.0,0.0,0.0,0.0,0.0,0.0,0.0,0.0,0.0,0.0,0.0,0.0,0.0,0.0,0.0,0.0,0.0,0.0,0.0,0.0,0.0,0.0,0.0,0.0,0.0,0.0,0.0,0.0,0.0,0.0,0.0,0.0,0.0,0.0,0.0,0.0,0.0,0.0,0.0,0.0,0.0,0.0,0.0,0.0,0.0,0.0,0.0,0.0,0.0,0.0,0.0,0.0,0.0,0.0,0.0,0.0,0.0,0.0,0.0,0.0,0.0,0.0,0.0,0.0,0.0,0.0,0.0,0.0,0.0,0.0,0.0,0.0,0.0,0.0,0.0,0.0,0.0,0.0,0.0,0.0,0.0,0.0,0.0,0.0,0.0,0.0,0.0,0.0,0.0,0.0,0.0,0.0,0.0,0.0,0.0,0.0,0.0,0.0,0.0,0.0,0.0,0.0,0.0,0.0,0.0,0.0,0.0,0.0,0.0,0.0,0.0,0.0,0.0,0.0,0.0,0.0,0.0,0.0,0.0,0.0,0.0,0.0,0.0,0.0,0.0,0.0,0.0,0.0,0.0,0.0,0.0,0.0,0.0,0.0,0.0,0.0,0.0,0.0,0.0,0.0,0.0,0.0,0.0,0.0,0.0,0.0,0.0,0.0,0.0,0.0,0.0,0.0,0.0,0.0,0.0,0.0,0.0,0.0,0.0,0.0,0.0,0.0,0.0,0.0,0.0,0.0,0.0,0.0,0.0,0.0,0.0,0.0,0.0,0.0,0.0,0.0,0.0,0.0,0.0,0.0,0.0,0.0,0.0,0.0,0.0,0.0,0.0,0.0,0.0,0.0,0.0,0.0,0.0,0.0,0.0,0.0,0.0,0.0,0.0,0.0,0.0,0.0,0.0,0.0,0.0,0.0,0.0,0.0,0.0,0.0,0.0,0.0,0.0,0.0,0.0,0.0,0.0,0.0,0.0,0.0,0.0,0.0,0.0,0.0,0.0,0.0,0.0,0.0,0.0,0.0,0.0,0.0,0.0,0.0,0.0,0.0,0.0,0.0,0.0,0.0,0.0,0.0,0.0,0.0,0.0,0.0,0.0,0.0,0.0,0.0,0.0,0.0,0.0,0.0,0.0,0.0,0.0,0.0,0.0,0.0,0.0,0.0,0.0,0.0,0.0,0.0,0.0,0.0,0.0,0.0,0.0,0.0,0.0,0.0,0.0,0.0,0.0,0.0,0.0,0.0,0.0,0.0,0.0,0.0,0.0,0.0,0.0,0.0,0.0,0.0,0.0,0.0,0.0,0.0,0.0,0.0,0.0,0.0,0.0,0.0,0.0,0.0,0.0,0.0,0.0,0.0,0.0,0.0,0.0,0.0,0.0,0.0,0.0,0.0,0.0,0.0,0.0,0.0,0.0,0.0,0.0,0.0,0.0,0.0,0.0,0.0,0.0,0.0,0.0,0.0,0.0,0.0,0.0,0.0,0.0,0.0,0.0,0.0,0.0,0.0,0.0,0.0,0.0,0.0,0.0,0.0,0.0,0.0,0.0,0.0,0.0,0.0,0.0,0.0,0.0,0.0,0.0,0.0,0.0,0.0,0.0,0.0,0.0,0.0,0.0,0.0,0.0,0.0,0.0,0.0,0.0,0.0,0.0,0.0,0.0,0.0,0.0,0.0,0.0,0.0,0.0,0.0,0.0,0.0,0.0,0.0,0.0,0.0,0.0,0.0,0.0,0.0,0.0,0.0,0.0,0.0,0.0,0.0,0.0,0.0,0.0,0.0,0.0,0.0,0.0,0.0,0.0,0.0,0.0,0.0,0.0,0.0,0.0,0.0,0.0,0.0,0.0,0.0,0.0,0.0,0.0,0.0,0.0,0.0,0.0,0.0,0.0,0.0,0.0,0.0,0.0,0.0,0.0,0.0,0.0,0.0,0.0,0.0,0.0,0.0,0.0,0.0,0.0,0.0,0.0,0.0,0.0,0.0,0.0,0.0,0.0,0.0,0.0,0.0,0.0,0.0,0.0,0.0,0.0,0.0,0.0,0.0,0.0,0.0,0.0,0.0,0.0,0.0,0.0,0.0,0.0,0.0,0.0,0.0,0.0,0.0,0.0,0.0,0.0,0.0,0.0,0.0,0.0,0.0,0.0,0.0,0.0,0.0,0.0,0.0,0.0,0.0,0.0,0.0,0.0,0.0,0.0,0.0,0.0,0.0,0.0,0.0,0.0,0.0,0.0,0.0,0.0,0.0,0.0,0.0,0.0,0.0,0.0,0.0,0.0,0.0,0.0,0.0,0.0,0.0,0.0,0.0,0.0,0.0,0.0,0.0,0.0,0.0,0.0,0.0,0.0,0.0,0.0,0.0,0.0,0.0,0.0,0.0,0.0,0.0,0.0,0.0,0.0,0.0,0.0,0.0,0.0,0.0,0.0,0.0,0.0,0.0,0.0,0.0,0.0,0.0,0.0,0.0,0.0,0.0,0.0,0.0,0.0,0.0,0.0,0.0,0.0,0.0,0.0,0.0,0.0,0.0,0.0,0.0,0.0,0.0,0.0,0.0,0.0,0.0,0.0,0.0,0.0,0.0,0.0,0.0,0.0,0.0,0.0,0.0,0.0,0.0,0.0,0.0,0.0,0.0,0.0,0.0,0.0,0.0,0.0,0.0,0.0,0.0,0.0,0.0,0.0,0.0,0.0,0.0,0.0,0.0,0.0,0.0,0.0,0.0,0.0,0.0,0.0,0.0,0.0,0.0,0.0,0.0,0.0,0.0,0.0,0.0,0.0,0.0,0.0,0.0,0.0,0.0,0.0,0.0,0.0,0.0,0.0,0.0,0.0,0.0,0.0,0.0,0.0,0.0,0.0,0.0,0.0,0.0,0.0,0.0,0.0,0.0,0.0,0.0,0.0,0.0,0.0,0.0,0.0,0.0,0.0,0.0,0.0,0.0,0.0,0.0,0.0,0.0,0.0,0.0,0.0,0.0,0.0,0.0,0.0,0.0,0.0,0.0,0.0,0.0,0.0,0.0,0.0,0.0,0.0,0.0,0.0,0.0,0.0,0.0,0.0,0.0,0.0,0.0,0.0,0.0,0.0,0.0,0.0,0.0,0.0,0.0,0.0,0.0,0.0,0.0,0.0,0.0,0.0,0.0,0.0,0.0,0.0,0.0,0.0,0.0,0.0,0.0,0.0,0.0,0.0,0.0,0.0,0.0,0.0,0.0,0.0,0.0,0.0,0.0,0.0,0.0,0.0,0.0,0.0,0.0,0.0,0.0,0.0,0.0,0.0,0.0,0.0,0.0,0.0,0.0,0.0,0.0,0.0,0.0,0.0,0.0,0.0,0.0,0.0,0.0,0.0,0.0,0.0,0.0,0.0,0.0,0.0,0.0,0.0,0.0,0.0,0.0,0.0,0.0,0.0,0.0,0.0,0.0,0.0,0.0,0.0,0.0,0.0,0.0,0.0,0.0,0.0,0.0,0.0,0.0,0.0,0.0,0.0,0.0,0.0,0.0,0.0,0.0,0.0,0.0,0.0,0.0,0.0,0.0,0.0,0.0,0.0,0.0,0.0,0.0,0.0,0.0,0.0,0.0,0.0,0.0,0.0,0.0,0.0,0.0,0.0,0.0,0.0,0.0,0.0,0.0,0.0,0.0,0.0,0.0,0.0,0.0,0.0,0.0,0.0,0.0,0.0,0.0,0.0,0.0,0.0,0.0,0.0,0.0,0.0,0.0,0.0,0.0,0.0,0.0,0.0,0.0,0.0,0.0,0.0,0.0,0.0,0.0,0.0,0.0,0.0,0.0,0.0,0.0,0.0,0.0,0.0,0.0,0.0,0.0,0.0,0.0,0.0,0.0,0.0,0.0,0.0,0.0,0.0,0.0,0.0,0.0,0.0,0.0,0.0,0.0,0.0,0.0,0.0,0.0,0.0,0.0,0.0,0.0,0.0,0.0,0.0,0.0,0.0,0.0,0.0,0.0,0.0,0.0,0.0,0.0,0.0,0.0,0.0,0.0,0.0,0.0,0.0,0.0,0.0,0.0,0.0,0.0,0.0,0.0,0.0,0.0,0.0,0.0,0.0,0.0,0.0,0.0,0.0,0.0,0.0,0.0,0.0,0.0,0.0,0.0,0.0,0.0,0.0,0.0,0.0,0.0,0.0,0.0,0.0,0.0,0.0,0.0,0.0,0.0,0.0,0.0,0.0,0.0,0.0,0.0,0.0,0.0,0.0,0.0,0.0,0.0,0.0,0.0,0.0,0.0,0.0,0.0,0.0,0.0,0.0,0.0,0.0,0.0,0.0,0.0,0.0,0.0,0.0,0.0,0.0,0.0,0.0,0.0,0.0,0.0,0.0,0.0,0.0,0.0,0.0,0.0,0.0,0.0,0.0,0.0,0.0,0.0,0.0,0.0,0.0,0.0,0.0,0.0,0.0,0.0,0.0,0.0,0.0,0.0,0.0,0.0,0.0,0.0,0.0,0.0,0.0,0.0,0.0,0.0,0.0,0.0,0.0,0.0,0.0,0.0,0.0,0.0,0.0,0.0,0.0,0.0,0.0,0.0,0.0,0.0,0.0,0.0,0.0,0.0,0.0,0.0,0.0,0.0,0.0,0.0,0.0,0.0,0.0,0.0,0.0,0.0,0.0,0.0,0.0,0.0,0.0,0.0,0.0,0.0,0.0,0.0,0.0,0.0,0.0,0.0,0.0,0.0,0.0,0.0,0.0,0.0,0.0,0.0,0.0,0.0,0.0,0.0,0.0,0.0,0.0,0.0,0.0,0.0,0.0,0.0,0.0,0.0,0.0,0.0,0.0,0.0,0.0,0.0,0.0,0.0,0.0,0.0,0.0,0.0,0.0,0.0,0.0,0.0,0.0,0.0,0.0,0.0,0.0,0.0,0.0,0.0,0.0,0.0,0.0,0.0,0.0,0.0,0.0,0.0,0.0,0.0,0.0,0.0,0.0,0.0,0.0,0.0,0.0,0.0,0.0,0.0,0.0,0.0,0.0,0.0,0.0,0.0,0.0,0.0,0.0,0.0,0.0,0.0,0.0,0.0,0.0,0.0,0.0,0.0,0.0,0.0,0.0,0.0,0.0,0.0,0.0,0.0,0.0,0.0,0.0,0.0,0.0,0.0,0.0,0.0,0.0,0.0,0.0,0.0,0.0,0.0,0.0,0.0,0.0,-0.8388,0.0,0.0,0.0,0.0,0.0,0.0,0.0,0.0,0.0,0.0,0.0,0.0,0.0,0.0,0.0,0.0,0.0,0.0,0.0,0.0,0.0,0.0,0.0,0.0,0.0,0.0,0.0,0.0,0.0,0.0,0.0,0.0,0.0,0.0,0.0,0.0,0.0,0.0,0.0,0.0,0.0,0.0,0.0,0.0,0.0,0.0,0.0,0.0,0.0,0.0,0.0,0.0,0.0,0.0,0.0,0.0,0.0,0.0,0.0,0.0,0.0,0.0,0.0,0.0,0.0,0.0,0.0,0.0,0.0,0.0,0.0,0.0,0.0,0.0,0.0,0.0,0.0,0.0,0.0,0.0,0.0,0.0,0.0,0.0,0.0,0.0,0.0,0.0,0.0,0.0,0.0,0.0,0.0,0.0,0.0,0.0,0.0,0.0,0.0,0.0,0.0,0.0,0.0,0.0,0.0,0.0,0.0,0.0,0.0,0.0,0.0,0.0,0.0,0.0,0.0,0.0,-0.8935,0.0,0.0,0.0,0.0,0.0,0.0,0.0,0.0,0.0,0.0,0.0,0.0,0.0,0.0,0.0,0.0,0.0,0.0,0.0,0.0,0.0,0.0,0.0,0.0,0.0,0.0,0.0,0.0,0.0,0.0,0.0,0.0,0.0,0.0,0.0,0.0,0.0,0.0,0.0,0.0,0.0,0.0,0.0,0.0,0.0,0.0,0.0,0.0,0.0,0.0,0.0,0.0,0.0,0.0,0.0,0.0,0.0,0.0,0.0,0.0,0.0,0.0,0.0,0.0,0.0,0.0,0.0,0.0,0.0,0.0,0.0,0.0,0.0,0.0,0.0,0.0,0.0,0.0,0.0,0.0,0.0,0.0,0.0,0.0,0.0,0.0,0.0,0.0,0.0,0.0,0.0,0.0,0.0,0.0,0.0,0.0,0.0,0.0,0.0,0.0,0.0,0.0,0.0,0.0,0.0,0.0,0.0,0.0,0.0,-0.8596,-0.8848,-0.88,-0.8776,-0.8752,-0.8243,-0.8454,-0.9112,0.0,0.0,0.0,0.0,0.0,0.0,0.0,0.0,0.0,0.0,0.0,0.0,0.0,0.0,0.0,0.0,0.0,0.0,0.0,0.0,0.0,0.0,0.0,0.0,0.0,0.0,0.0,0.0,0.0,0.0,0.0,0.0,0.0,0.0,0.0,0.0,0.0,0.0,0.0,-0.4,-0.4062,-0.4142,-0.4172,0.0,0.0,0.0,0.0,0.0,0.0,0.0,0.0,0.0,0.0,0.0,0.0,0.0,0.0,0.0,0.0,0.0,0.0,0.0,0.0,0.0,0.0,0.0,0.0,0.0,0.0,0.0,0.0,0.0,0.0,0.0,0.0,0.0,0.0,0.0,0.0,0.0,0.0,0.0,0.0,0.0,0.0,0.0,0.0,-0.6426,-0.7031,0.0,0.0,0.0,0.0,0.0,0.0,0.0,0.0,0.0,0.0,0.0,0.0,0.0,0.0,-0.8237,-0.8487,-0.8734,-0.8993,-0.8993,-0.9143,-0.9402,-0.9155,-0.9047,-0.9029,-0.8734,0.0,-0.9524,-0.9524,0.0,0.0,0.0,0.0,0.0,0.0,0.0,0.0,0.0,0.0,0.0,0.0,0.0,0.0,0.0,0.0,0.0,0.0,0.0,0.0,0.0,0.0,0.0,0.0,0.0,0.0,0.0,0.0,0.0,0.0,0.0,0.0,0.0,0.0,0.0,0.0,-0.3975,-0.4272,-0.4495,-0.4593,-0.4669,-0.4731,-0.426,-0.3797,-0.3371,-0.3155,0.0,0.0,0.0,0.0,0.0,0.0,0.0,0.0,0.0,0.0,0.0,0.0,0.0,0.0,0.0,0.0,0.0,0.0,0.0,0.0,0.0,0.0,0.0,0.0,0.0,0.0,0.0,0.0,0.0,0.0,0.0,0.0,0.0,0.0,0.0,0.0,0.0,0.0,0.0,-0.6399,-0.681,-0.7058,-0.7112,-0.7112,0.0,0.0,0.0,0.0,0.0,0.0,0.0,0.0,0.0,-0.8242,-0.8447,-0.8608,-0.8752,-0.8866,-0.9137,-0.9552,-0.9552,-0.969,-0.9949,-0.9823,-0.9769,-0.9757,-0.9492,-0.9536,-0.9706,-0.9116,-0.9266,-0.9906,0.0,0.0,0.0,0.0,0.0,-1.308,0.0,0.0,0.0,0.0,0.0,0.0,0.0,0.0,0.0,0.0,0.0,0.0,0.0,0.0,0.0,0.0,0.0,0.0,0.0,0.0,0.0,0.0,0.0,0.0,0.0,0.0,0.0,0.0,-0.4586,-0.4855,-0.5027,-0.5219,-0.5306,-0.5336,-0.5148,-0.4566,-0.3657,-0.3421,-0.2774,0.0,0.0,0.0,0.0,0.0,0.0,0.0,0.0,0.0,0.0,0.0,0.0,0.0,0.0,0.0,0.0,0.0,0.0,0.0,0.0,0.0,0.0,0.0,0.0,0.0,0.0,0.0,0.0,0.0,0.0,0.0,0.0,0.0,0.0,0.0,0.0,0.0,0.0,-0.6943,-0.7013,-0.709,-0.7139,-0.7155,0.0,0.0,0.0,0.0,0.0,0.0,-0.8034,-0.8201,-0.8469,-0.88,-0.8939,-0.9107,-0.93,-0.9372,-0.9642,-1.0106,-1.0106,-1.0244,-1.0491,-1.0424,-1.0394,-1.0382,-1.0118,-0.9925,-0.9745,-0.8951,-0.8855,-0.9241,-0.9241,-0.9807,-1.0656,-1.1123,-1.203,-1.3056,0.0,0.0,0.0,0.0,0.0,0.0,0.0,0.0,0.0,0.0,0.0,0.0,0.0,0.0,0.0,0.0,0.0,0.0,0.0,0.0,0.0,0.0,0.0,0.0,0.0,0.0,0.0,-0.4662,-0.5211,-0.5518,-0.5648,-0.5923,-0.6094,-0.6243,-0.5961,-0.5266,-0.4313,-0.3675,-0.2963,-0.2241,0.0,0.0,0.0,0.0,0.0,0.0,0.0,0.0,0.0,0.0,0.0,0.0,0.0,0.0,0.0,0.0,0.0,0.0,0.0,0.0,0.0,0.0,0.0,0.0,0.0,0.0,0.0,0.0,0.0,0.0,0.0,0.0,0.0,0.0,0.0,0.0,0.0,0.0,0.0,-0.7058,-0.7262,0.0,0.0,0.0,0.0,-0.7638,-0.7683,-0.7903,-0.8451,-0.8722,-0.8918,-0.9077,-0.9576,-0.9853,-0.9865,-1.0112,-1.037,-1.0647,-1.0647,-1.0816,-1.1063,-1.0816,-1.0665,-1.0647,-1.0388,-0.9991,-0.9534,-0.9474,-0.9631,-0.995,-0.995,-1.0668,-1.1748,-1.1953,-1.3055,-1.4378,0.0,0.0,0.0,0.0,0.0,0.0,0.0,0.0,0.0,0.0,0.0,0.0,0.0,0.0,0.0,0.0,0.0,0.0,0.0,0.0,0.0,0.0,0.0,0.0,0.0,0.0,-0.4757,-0.523,-0.5597,-0.5839,-0.5964,-0.6127,-0.6184,-0.6151,-0.6143,-0.5796,-0.5117,-0.4409,-0.3511,-0.2534,-0.2157,-0.1707,0.0,0.0,0.0,0.0,0.0,0.0,0.0,0.0,0.0,0.0,0.0,0.0,0.0,0.0,0.0,0.0,0.0,0.0,0.0,0.0,0.0,0.0,0.0,0.0,0.0,0.0,0.0,0.0,0.0,0.0,0.0,0.0,0.0,0.0,0.0,0.0,0.0,-0.7111,-0.771,0.0,0.0,-0.7798,-0.7925,-0.8192,-0.8173,-0.8413,-0.9035,-0.9241,-0.9435,-0.9665,-0.9984,-1.0238,-1.0406,-1.0497,-1.0677,-1.0972,-1.0972,-1.1021,-1.1105,-1.1015,-1.0972,-1.096,-1.0659,-1.0346,-1.0015,-1.0015,-0.9681,-0.9199,-0.9636,-1.0353,-1.1216,-1.1821,-1.3029,-1.4373,0.0,0.0,0.0,0.0,0.0,0.0,0.0,0.0,0.0,0.0,0.0,0.0,0.0,0.0,0.0,0.0,0.0,0.0,0.0,0.0,0.0,0.0,0.0,0.0,0.0,-0.4747,-0.5148,-0.5623,-0.5947,-0.6146,-0.6265,-0.6306,-0.6325,-0.6328,-0.6325,-0.6141,-0.5821,-0.5099,-0.4102,-0.2928,-0.2377,-0.1724,-0.1149,0.0,0.0,0.0,0.0,0.0,0.0,0.0,0.0,0.0,0.0,0.0,0.0,0.0,0.0,0.0,0.0,0.0,0.0,0.0,0.0,0.0,0.0,0.0,0.0,0.0,0.0,0.0,0.0,0.0,0.0,0.0,0.0,0.0,0.0,0.0,-0.766,-0.7592,-0.8194,-0.8538,-0.8328,-0.8306,-0.8428,-0.8695,-0.8674,-0.8891,-0.9462,-0.9742,-0.9939,-1.0143,-1.0402,-1.0689,-1.0954,-1.0954,-1.1044,-1.1212,-1.1212,-1.1202,-1.1111,-1.1111,-1.1111,-1.1099,-1.0894,-1.0665,-1.0418,-1.0328,-0.9829,-0.9144,-0.959,-1.0251,-1.1003,-1.157,-1.2715,-1.4063,0.0,0.0,0.0,0.0,0.0,0.0,0.0,0.0,0.0,0.0,0.0,0.0,0.0,0.0,0.0,0.0,0.0,0.0,0.0,0.0,0.0,0.0,0.0,0.0,-0.4525,-0.5117,-0.5556,-0.592,-0.6222,-0.6452,-0.6616,-0.6452,-0.6573,-0.6787,-0.6548,-0.6389,-0.6371,-0.5709,-0.4691,-0.3508,-0.2669,-0.191,-0.1301,0.0,0.0,0.0,0.0,0.0,0.0,0.0,0.0,0.0,0.0,0.0,0.0,0.0,0.0,0.0,0.0,0.0,0.0,0.0,0.0,0.0,0.0,0.0,0.0,0.0,0.0,0.0,0.0,0.0,0.0,0.0,0.0,0.0,-0.5979,-0.6904,-0.7789,-0.8424,-0.877,-0.8863,-0.8592,-0.8571,-0.8728,-0.9119,-0.9125,-0.9303,-0.9705,-1.0152,-1.0424,-1.0436,-1.0892,-1.123,-1.1501,-1.1495,-1.1495,-1.1495,-1.1483,-1.1339,-1.1111,-1.1111,-1.1111,-1.1111,-1.1099,-1.0954,-1.0665,-1.04,-1.0142,-0.9907,-0.9928,-1.046,-1.1226,-1.1376,-1.2241,-1.3535,0.0,0.0,0.0,0.0,0.0,0.0,0.0,0.0,0.0,0.0,0.0,0.0,0.0,0.0,0.0,0.0,0.0,0.0,0.0,0.0,0.0,0.0,0.0,0.0,-0.5147,-0.5458,-0.585,-0.6241,-0.6478,-0.6586,-0.6622,-0.6676,-0.669,-0.6668,-0.66,-0.6468,-0.6376,-0.5935,-0.5463,-0.489,-0.3417,-0.2259,-0.1423,0.0,0.0,0.0,0.0,0.0,0.0,0.0,0.0,0.0,0.0,0.0,0.0,0.0,0.0,0.0,0.0,0.0,0.0,0.0,0.0,0.0,0.0,0.0,0.0,0.0,0.0,0.0,0.0,0.0,0.0,0.0,0.0,-0.5087,-0.5564,-0.7603,-0.8949,-0.8813,-0.9588,-1.0056,-0.9825,-0.9809,-0.9905,-1.0153,-0.9876,-0.9958,-1.0529,-1.0566,-1.071,-1.1042,-1.1308,-1.1581,-1.1778,-1.1585,-1.1495,-1.1489,-1.1285,-1.1184,-1.1111,-1.1111,-1.1111,-1.1099,-1.0869,-1.0785,-1.0665,-1.04,-1.0142,-0.9916,-1.0205,-1.0863,-1.1674,-1.188,-1.2476,-1.3194,0.0,0.0,0.0,0.0,0.0,0.0,0.0,0.0,0.0,0.0,0.0,0.0,0.0,0.0,0.0,0.0,0.0,0.0,0.0,0.0,0.0,0.0,0.0,-0.4939,-0.551,-0.5809,-0.614,-0.6462,-0.6635,-0.6722,-0.6774,-0.6793,-0.6763,-0.6695,-0.6641,-0.65,-0.6381,-0.6069,-0.583,-0.5494,-0.4348,-0.2953,-0.1557,-0.1353,-0.0483,0.0586,0.0172,0.0068,0.0069,-0.0032,0.0,0.0,0.0,0.0,0.0,0.0,0.0,0.0,0.0,0.0,0.0,0.0,0.0,0.0,0.0,0.0,0.0,0.0,0.0,0.0,0.0,0.0,0.0,0.0,-0.4725,-0.5343,-0.5813,-0.7269,-0.8302,-0.8417,-0.9372,-0.9969,-0.9842,-1.0195,-1.0478,-1.0592,-1.0338,-1.0342,-1.0737,-1.0743,-1.0897,-1.1278,-1.1479,-1.1733,-1.2042,-1.1892,-1.1766,-1.1657,-1.1528,-1.1335,-1.1111,-1.1111,-1.1111,0.0,-1.0954,-1.0882,-1.0864,-1.0563,-1.037,0.0,0.0,0.0,0.0,0.0,-1.1913,-1.2535,0.0,0.0,0.0,0.0,0.0,0.0,0.0,0.0,0.0,0.0,0.0,0.0,0.0,0.0,0.0,0.0,0.0,0.0,0.0,0.0,0.0,-0.4775,-0.5123,-0.5439,-0.5761,-0.6151,-0.6431,-0.6641,-0.6763,-0.6877,-0.6983,-0.6888,-0.6834,-0.6817,-0.6709,-0.6592,-0.6427,-0.6181,-0.5927,-0.5663,-0.5176,-0.3689,-0.169,-0.1511,-0.0253,0.1376,0.1266,0.1214,0.1224,0.1158,0.0,0.0,0.0,0.0,0.0,0.0,0.0,0.0,0.0,0.0,0.0,0.0,0.0,0.0,0.0,0.0,0.0,0.0,0.0,0.0,0.0,0.0,0.0,0.0,-0.539,-0.6101,-0.6304,-0.6332,-0.6747,-0.7732,-0.8689,-0.9289,-0.9265,-1.0136,-1.0672,-1.0672,-1.0651,-1.0646,-1.0672,0.0,0.0,0.0,0.0,-1.1881,-1.2355,-1.233,-1.2198,-1.1922,-1.1868,-1.1624,-1.1154,-1.1123,-1.1111,-1.1105,-1.1081,-1.1087,-1.1087,-1.0797,-1.0659,-1.0695,-1.043,-1.0322,-1.0322,-1.0557,-1.1029,0.0,0.0,0.0,0.0,0.0,0.0,0.0,0.0,0.0,0.0,0.0,0.0,0.0,0.0,0.0,0.0,0.0,0.0,0.0,0.0,0.0,-0.4798,-0.5311,-0.5627,-0.5931,-0.6244,-0.6562,-0.6719,-0.6766,-0.6891,-0.6961,-0.6986,-0.7109,-0.7092,-0.6948,-0.6923,-0.6844,-0.673,-0.6681,-0.6469,-0.6148,-0.4872,-0.3285,-0.1668,-0.1603,-0.0311,0.1384,0.1296,0.1306,0.1371,0.1287,0.0754,0.0119,0.0037,0.0,0.0,0.0,0.0,0.0,0.0,0.0,0.0,0.0,0.0,0.0,0.0,0.0,0.0,0.0,0.0,0.0,0.0,0.0,0.0,-0.4722,-0.5246,-0.5673,-0.5822,-0.6014,-0.6661,-0.7967,-0.9204,-0.9867,-0.9794,-1.0605,-1.1171,-1.1171,-1.1031,-1.1004,-1.116,-1.1067,0.0,-1.1847,-1.1895,-1.2167,-1.2626,-1.2415,-1.2288,-1.2234,0.0,0.0,-1.1405,-1.1214,-1.1111,-1.1099,-1.0888,-1.0918,-1.1075,-1.0563,-1.0491,-1.0677,-1.0629,-1.0478,-1.0304,-1.0352,-1.0676,-1.1161,0.0,0.0,0.0,0.0,0.0,0.0,0.0,0.0,0.0,0.0,0.0,0.0,0.0,0.0,0.0,0.0,0.0,0.0,0.0,-0.4881,-0.5322,-0.5885,-0.6135,-0.6374,-0.6613,-0.6798,-0.6893,-0.6893,-0.7013,-0.7125,-0.7125,-0.7182,-0.715,-0.6986,-0.6986,-0.6918,-0.6801,-0.6801,-0.664,-0.6321,-0.5576,-0.4316,-0.2663,-0.1332,-0.0192,0.0749,0.1286,0.114,0.077,0.1216,0.0339,-0.0874,-0.0628,-0.1181,-0.2037,0.0,0.0,0.0,0.0,0.0,0.0,0.0,0.0,0.0,0.0,0.0,0.0,0.0,0.0,-0.424,0.0,0.0,-0.4909,-0.5114,-0.5451,-0.5726,-0.5893,-0.6064,-0.6414,-0.7056,-0.8072,-0.889,-0.9444,-1.0292,-1.0813,-1.0813,-1.0707,-1.0641,-1.0603,-1.0497,-1.0915,-1.1952,-1.2,-1.2246,-1.2705,-1.2572,-1.2445,-1.2312,-1.2047,-1.1748,-1.1489,-1.1345,-1.1244,-1.1105,-1.0972,-1.0991,-1.1093,-1.0828,-1.0761,-1.0918,-1.0918,-1.0755,-1.0472,-1.0346,-1.056,-1.0935,0.0,0.0,0.0,0.0,0.0,0.0,0.0,0.0,0.0,0.0,0.0,0.0,0.0,0.0,0.0,0.0,0.0,0.0,0.0,-0.5227,-0.5719,-0.6394,-0.6575,-0.6747,-0.6869,-0.6967,-0.7029,-0.7054,-0.7146,-0.7245,-0.7245,-0.7245,-0.713,-0.7018,-0.7043,-0.6986,-0.6872,-0.6896,-0.6784,-0.6544,-0.6221,-0.5407,-0.4158,-0.1472,-0.0258,0.0101,0.0994,0.0766,0.0184,0.0873,-0.0221,-0.1811,-0.1562,-0.2109,-0.292,-0.3124,-0.3144,0.0,0.0,0.0,0.0,0.0,0.0,0.0,0.0,0.0,-0.4235,-0.4281,-0.4461,-0.4684,-0.4807,-0.5106,-0.5363,-0.554,-0.5817,-0.6007,-0.6108,-0.6225,-0.6265,-0.6165,-0.6882,-0.7752,-0.8691,-0.9537,-1.0021,-0.9979,-0.9979,-0.9981,-0.9912,-0.9903,-1.0559,-1.1957,-1.2,-1.2246,-1.2705,-1.2705,-1.2596,-1.2391,-1.2337,-1.2065,-1.1567,-1.1513,-1.1339,-1.1111,-1.1111,-1.1111,-1.1111,-1.1111,-1.1111,-1.1111,-1.1111,-1.0954,-1.0659,-1.0448,-1.061,-1.0916,0.0,0.0,0.0,0.0,0.0,0.0,0.0,0.0,0.0,0.0,0.0,0.0,0.0,0.0,0.0,0.0,0.0,0.0,0.0,-0.5483,-0.6007,-0.6711,-0.6872,-0.6997,-0.7166,-0.7185,-0.7187,-0.7239,-0.7309,-0.7315,-0.7315,-0.7315,-0.7249,-0.7196,-0.7247,-0.723,-0.7177,-0.723,-0.7214,-0.7003,-0.5614,-0.5566,-0.5978,-0.3144,-0.1221,-0.0052,0.0101,0.0288,0.0409,0.0244,-0.1031,-0.253,-0.2707,-0.3276,-0.3812,-0.3612,0.0,-0.3066,-0.2985,-0.2964,-0.3044,-0.3364,-0.3552,-0.382,0.0,0.0,-0.469,-0.4871,-0.5018,-0.5143,-0.5309,-0.5499,-0.5669,-0.5841,-0.607,-0.6281,-0.6295,-0.6344,-0.6363,-0.6349,-0.7119,-0.7661,-0.7684,-0.8493,-0.9016,-0.8898,-0.8886,-0.917,-0.9868,-0.9903,-1.0559,-1.1957,-1.2,-1.2246,-1.2705,-1.2705,-1.2687,-1.2656,-1.2421,-1.2161,-1.1832,-1.1597,-1.1339,-1.1111,-1.1111,-1.1111,-1.1111,-1.1111,-1.1111,-1.1111,-1.1111,-1.0954,-1.0719,-1.0653,-1.0767,-1.091,0.0,0.0,0.0,0.0,0.0,0.0,0.0,0.0,0.0,0.0,0.0,0.0,0.0,0.0,0.0,0.0,0.0,0.0,-0.5056,-0.5556,-0.6121,-0.6774,-0.6983,-0.7161,-0.721,-0.7225,-0.7285,-0.728,-0.735,-0.735,-0.728,-0.728,-0.7271,-0.7213,-0.7206,-0.7201,-0.7213,-0.7209,-0.7201,-0.7154,-0.6482,-0.6366,-0.6364,-0.4955,-0.3419,-0.1841,-0.0625,-0.0275,0.0,0.0,-0.143,-0.3273,-0.2758,-0.3194,-0.3814,-0.3453,-0.325,0.0,-0.3006,-0.3108,-0.3297,0.0,-0.3985,-0.435,-0.4766,-0.4917,-0.5034,-0.5235,-0.5381,-0.554,-0.5659,-0.5822,-0.5977,0.0,-0.6248,-0.629,-0.6358,-0.635,-0.6339,-0.6339,-0.6617,-0.7053,-0.7731,-0.7976,-0.8103,-0.8129,-0.804,-0.8099,-0.8245,-0.8807,-0.968,-1.0992,-1.165,-1.216,-1.2534,-1.2619,-1.2705,-1.2699,-1.2439,-1.2174,-1.1874,-1.1615,-1.1339,-1.1111,-1.1111,-1.1111,-1.1111,-1.1111,-1.1111,-1.1111,-1.1111,-1.0954,-1.0683,-1.0683,-1.0624,-1.0566,0.0,0.0,0.0,0.0,0.0,0.0,0.0,0.0,0.0,0.0,0.0,0.0,0.0,0.0,0.0,0.0,0.0,0.0,0.0,-0.5474,-0.6075,-0.6676,-0.6964,0.0,-0.721,-0.7241,-0.7301,-0.728,-0.7423,-0.7423,-0.728,-0.728,-0.7271,-0.7213,-0.7245,-0.7243,-0.7213,-0.7245,-0.7017,-0.671,-0.671,-0.6291,-0.5659,-0.5438,-0.433,-0.2676,-0.1453,-0.1074,0.0,0.0,-0.1935,-0.3575,-0.2908,-0.3202,-0.3665,-0.3354,-0.3197,-0.312,-0.3103,0.0,0.0,-0.402,-0.4444,-0.4822,-0.513,-0.5279,-0.5396,-0.5561,-0.5675,-0.5806,-0.5888,-0.6002,-0.6127,-0.6298,-0.6317,-0.6295,-0.638,-0.632,-0.6306,-0.627,-0.6083,-0.6361,-0.7388,-0.7234,-0.7125,-0.7193,-0.7099,-0.7069,-0.7105,-0.7753,-0.8675,-0.9854,-1.103,-1.172,-1.2009,-1.2485,-1.2705,-1.2699,-1.2512,-1.2246,-1.1908,-1.1531,-1.1266,-1.1111,-1.1111,-1.1111,-1.1111,-1.1111,-1.1111,-1.1111,-1.1111,-1.0997,-1.0828,-1.0828,-1.0623,-1.0394,0.0,0.0,0.0,0.0,0.0,0.0,0.0,0.0,0.0,0.0,0.0,0.0,0.0,0.0,0.0,0.0,0.0,0.0,0.0,-0.5227,-0.578,-0.6371,-0.6796,-0.7043,-0.7207,-0.7215,-0.7217,-0.728,-0.7282,-0.7282,-0.728,-0.728,-0.7271,-0.7215,-0.7277,-0.7266,-0.7218,-0.7279,-0.6584,-0.5483,-0.5483,-0.4769,-0.3699,-0.3959,-0.2989,-0.1563,-0.2434,0.0,0.0,0.0,-0.2721,-0.3273,-0.3656,-0.3703,0.0,-0.3449,-0.3302,0.0,0.0,0.0,-0.4068,-0.4465,-0.4877,-0.5271,-0.5586,-0.5669,-0.5704,-0.5869,-0.5896,-0.5899,-0.5904,-0.6002,-0.6127,-0.6298,-0.6317,-0.632,-0.6322,-0.632,-0.6273,-0.6105,-0.5885,-0.5836,0.0,-0.6133,-0.6079,-0.5963,-0.595,-0.6303,-0.7058,-0.7139,-0.7709,-0.889,-1.0053,-1.0783,-1.1042,-1.2137,-1.2705,-1.2705,-1.2699,-1.2421,-1.1862,-1.1365,-1.1123,-1.1111,-1.1111,-1.1111,-1.1111,-1.1111,-1.1111,-1.1111,-1.1111,-1.1105,-1.1099,-1.1099,-1.093,-1.0635,0.0,0.0,0.0,0.0,0.0,0.0,0.0,0.0,0.0,0.0,0.0,0.0,0.0,0.0,0.0,0.0,0.0,0.0,0.0,-0.3789,-0.4376,-0.574,-0.58,-0.6068,-0.6676,-0.6918,-0.71,-0.7217,-0.7296,-0.728,-0.728,-0.728,-0.7271,-0.7152,-0.6393,-0.6026,-0.5937,-0.519,-0.4588,-0.4245,-0.4775,-0.4395,-0.3531,-0.3923,-0.3275,-0.2116,0.0,0.0,0.0,0.0,0.0,0.0,-0.3456,0.0,0.0,-0.3355,0.0,0.0,0.0,0.0,-0.4613,-0.5039,-0.5386,-0.5738,-0.6024,-0.5964,-0.588,-0.5999,-0.5836,-0.5623,-0.5623,-0.5659,-0.5795,-0.5994,-0.6094,-0.6176,-0.6306,-0.6317,-0.624,-0.5988,-0.5893,0.0,0.0,0.0,0.0,-0.5893,-0.5904,-0.6022,-0.6297,-0.6876,-0.7413,-0.7814,-0.9033,-1.0009,-1.074,-1.1402,-1.21,-1.2699,-1.2355,-1.1958,-1.1615,-1.1435,-1.1248,-1.1123,-1.131,-1.1242,-1.1111,-1.1111,-1.1111,-1.1111,-1.1111,-1.1111,-1.1111,-1.1111,-1.1057,-1.0966,0.0,0.0,0.0,0.0,0.0,0.0,0.0,0.0,0.0,0.0,0.0,0.0,0.0,0.0,0.0,0.0,0.0,0.0,0.0,0.0,-0.3302,-0.4533,-0.4576,-0.4837,-0.5388,-0.5645,-0.5837,-0.5903,-0.596,-0.5962,-0.5964,-0.5989,-0.5934,-0.587,-0.5093,-0.4781,-0.4725,-0.3943,-0.3359,-0.2979,-0.3508,-0.3091,-0.2253,-0.277,-0.2405,0.0,0.0,0.0,0.0,0.0,0.0,0.0,0.0,0.0,0.0,0.0,0.0,0.0,0.0,-0.4691,-0.5097,-0.5545,-0.5831,-0.6075,-0.6281,-0.6078,-0.5901,-0.5896,-0.564,-0.5378,-0.5378,-0.5346,-0.5408,-0.573,-0.5806,-0.5901,-0.6108,-0.6138,-0.6094,-0.5983,-0.5928,0.0,0.0,0.0,0.0,-0.5833,-0.592,-0.595,-0.5907,-0.6493,-0.681,-0.681,-0.796,-0.8925,-0.9614,-1.0318,-1.1192,-1.218,-1.2004,-1.1796,-1.1627,-1.1429,-1.1242,-1.1123,-1.1266,-1.1242,-1.1111,-1.1111,-1.1111,-1.1111,-1.1111,-1.1111,-1.1111,-1.1111,-1.1111,-1.1099,0.0,0.0,0.0,0.0,0.0,0.0,0.0,0.0,0.0,0.0,0.0,0.0,0.0,0.0,0.0,0.0,0.0,0.0,0.0,0.0,0.0,-0.2943,-0.3183,-0.3384,-0.3577,-0.3588,-0.3593,-0.3597,-0.359,-0.3585,-0.3592,-0.3607,-0.3582,-0.3588,-0.3534,-0.3495,-0.3495,-0.3444,-0.275,-0.1689,-0.1744,-0.1055,-0.0078,-0.0682,0.0,0.0,0.0,0.0,0.0,0.0,0.0,0.0,0.0,0.0,0.0,0.0,0.0,-0.4229,-0.4721,-0.5138,-0.5561,-0.598,-0.6184,-0.6317,-0.6309,-0.6064,-0.5817,-0.5537,-0.5339,-0.5165,0.0,0.0,-0.5089,-0.5435,-0.5455,-0.5561,-0.5863,-0.5923,-0.5969,0.0,0.0,0.0,0.0,0.0,0.0,-0.5715,0.0,-0.6043,-0.5918,-0.5912,-0.5909,-0.5904,-0.6901,-0.7529,-0.779,-0.9013,-1.0183,-1.1257,-1.1671,-1.184,-1.1868,-1.1389,-1.1148,-1.1135,-1.1148,-1.1135,-1.1111,-1.1111,-1.1111,-1.1111,-1.1111,-1.1123,-1.1135,-1.1135,-1.1141,-1.1111,0.0,0.0,0.0,0.0,0.0,0.0,0.0,0.0,0.0,0.0,0.0,0.0,0.0,0.0,0.0,0.0,0.0,0.0,0.0,0.0,0.0,0.0,0.0,0.0,0.0,0.0,0.0,0.0,0.0,-0.3496,-0.3593,-0.3592,-0.361,0.0,-0.2654,-0.2265,-0.222,-0.1302,-0.0739,-0.0518,0.0,-0.0865,-0.0072,0.0,0.0,0.0,0.0,0.0,0.0,0.0,0.0,0.0,0.0,0.0,-0.3964,0.0,0.0,-0.4841,-0.5226,-0.561,-0.5953,-0.6216,-0.6295,-0.6292,-0.6154,-0.5877,-0.5529,-0.533,-0.5091,-0.4868,0.0,0.0,0.0,-0.5252,-0.5553,0.0,-0.6013,-0.6189,0.0,-0.6102,0.0,-0.6151,-0.6092,-0.614,0.0,0.0,-0.6135,-0.6168,-0.6045,-0.604,-0.5996,-0.5907,-0.6281,-0.683,-0.7573,-0.8925,-1.0067,-1.1021,-1.0914,-1.1221,-1.192,-1.1781,-1.1573,-1.1399,-1.1591,-1.1486,-1.1111,-1.1111,-1.1111,-1.1111,-1.1111,-1.12,-1.1387,-1.1387,-1.1507,-1.1679,0.0,0.0,0.0,0.0,0.0,0.0,0.0,0.0,0.0,0.0,0.0,0.0,0.0,0.0,0.0,0.0,0.0,0.0,0.0,0.0,0.0,0.0,0.0,0.0,0.0,0.0,0.0,0.0,0.0,0.0,0.0,-0.2012,-0.2033,-0.1996,-0.1293,-0.0993,-0.0954,0.0,0.0,0.0,0.0,0.0,0.0,0.0,0.0,0.0,0.0,0.0,0.0,0.0,0.0,-0.3983,-0.4178,-0.4333,-0.4501,-0.4901,0.0,-0.5286,-0.5645,-0.5972,-0.6184,-0.63,-0.6276,-0.613,-0.5901,-0.561,-0.5306,-0.5051,-0.4847,0.0,0.0,0.0,0.0,0.0,0.0,0.0,-0.5966,-0.6165,-0.6271,0.0,-0.6301,0.0,-0.6246,-0.6301,-0.6314,0.0,-0.6304,-0.629,-0.6173,-0.6165,-0.6111,-0.5988,-0.6005,-0.6314,-0.6874,-0.8269,-0.9217,-0.971,-0.9957,-1.0352,-1.0849,-1.1151,-1.113,-1.0901,0.0,-1.151,-1.1123,-1.1244,-1.1298,-1.131,-1.1425,-1.1525,-1.1663,-1.1663,-1.1754,-1.1862,0.0,0.0,0.0,0.0,0.0,0.0,0.0,0.0,0.0,0.0,0.0,0.0,0.0,0.0,0.0,0.0,0.0,0.0,0.0,0.0,0.0,0.0,0.0,0.0,0.0,0.0,0.0,0.0,0.0,0.0,0.0,0.0,0.0,0.0,0.0,0.0,0.0,0.0,0.0,0.0,0.0,0.0,0.0,0.0,0.0,0.0,0.0,0.0,0.0,0.0,-0.3632,-0.4227,-0.4624,-0.4784,-0.4911,-0.5311,-0.5504,-0.5626,-0.6015,-0.6198,-0.6287,-0.6322,-0.6165,-0.5966,-0.5564,-0.5325,-0.5042,-0.4736,0.0,-0.4651,-0.4528,0.0,-0.4813,-0.5004,0.0,-0.5396,-0.5863,-0.6032,-0.6192,-0.636,-0.6387,-0.6387,-0.6387,-0.6387,-0.6387,-0.6387,-0.6387,-0.6388,-0.6322,-0.6317,-0.6254,-0.6067,-0.5945,-0.5966,-0.6086,-0.7309,-0.7994,-0.8102,-0.8849,-0.9279,-0.9438,-1.0044,-1.026,-1.0229,0.0,0.0,-1.1238,-1.1447,-1.1543,-1.1567,-1.1796,-1.1904,-1.1934,-1.1934,-1.1999,-1.2023,0.0,0.0,0.0,0.0,0.0,0.0,0.0,0.0,0.0,0.0,0.0,0.0,0.0,0.0,0.0,0.0,0.0,0.0,0.0,0.0,0.0,0.0,0.0,0.0,0.0,0.0,0.0,0.0,0.0,0.0,0.0,0.0,0.0,0.0,0.0,0.0,0.0,0.0,0.0,0.0,0.0,0.0,0.0,0.0,0.0,0.0,0.0,0.0,0.0,0.0,-0.3854,-0.4506,-0.4838,-0.5031,-0.5197,-0.5564,-0.5752,-0.5899,-0.6165,-0.632,-0.6385,-0.6293,-0.61,-0.5841,-0.5483,-0.5137,0.0,0.0,0.0,-0.4651,-0.4528,-0.4735,0.0,-0.5135,0.0,0.0,0.0,0.0,-0.6287,0.0,0.0,0.0,0.0,0.0,0.0,0.0,0.0,0.0,-0.6322,-0.6317,-0.6165,-0.5942,-0.5822,-0.5841,-0.6083,-0.6346,-0.6812,-0.7547,-0.7688,-0.8179,-0.8932,-0.9284,-0.9837,-1.0543,0.0,0.0,-1.1748,-1.1796,-1.1814,-1.182,-1.1868,-1.2059,-1.2246,-1.2246,-1.2379,-1.2536,0.0,0.0,0.0,0.0,0.0,0.0,0.0,0.0,0.0,0.0,0.0,0.0,0.0,0.0,0.0,0.0,0.0,0.0,0.0,0.0,0.0,0.0,0.0,0.0,0.0,0.0,0.0,0.0,0.0,0.0,0.0,0.0,0.0,0.0,0.0,0.0,0.0,0.0,0.0,0.0,0.0,0.0,0.0,0.0,0.0,0.0,0.0,0.0,0.0,0.0,-0.3041,-0.4089,-0.4948,-0.5281,-0.5447,-0.5809,-0.5956,-0.6051,-0.629,-0.6396,-0.6344,-0.6217,-0.5945,-0.5627,-0.5268,0.0,0.0,0.0,-0.4509,-0.4575,-0.4517,0.0,0.0,0.0,0.0,0.0,0.0,0.0,0.0,0.0,0.0,0.0,0.0,0.0,0.0,0.0,0.0,0.0,-0.6361,-0.6241,-0.6119,-0.6002,-0.5825,-0.5777,-0.5908,-0.6041,-0.6316,-0.6726,-0.6813,-0.7111,-0.7577,-0.8315,-0.8867,-0.919,0.0,0.0,-1.1232,-1.1856,-1.2125,-1.2137,-1.2276,-1.2403,-1.2518,-1.2518,-1.2596,-1.2687,0.0,0.0,0.0,0.0,0.0,0.0,0.0,0.0,0.0,0.0,0.0,0.0,0.0,0.0,0.0,0.0,0.0,0.0,0.0,0.0,0.0,0.0,0.0,0.0,0.0,0.0,0.0,0.0,0.0,0.0,0.0,0.0,0.0,0.0,0.0,0.0,0.0,0.0,0.0,0.0,0.0,0.0,0.0,0.0,0.0,0.0,0.0,0.0,0.0,0.0,-0.2071,-0.3177,-0.4431,-0.509,-0.5459,-0.5697,-0.5893,-0.6097,-0.6336,-0.6368,-0.633,-0.6146,-0.5814,-0.5413,-0.506,-0.4732,0.0,0.0,-0.439,-0.4512,-0.4539,0.0,0.0,0.0,0.0,0.0,0.0,0.0,0.0,0.0,0.0,0.0,0.0,0.0,0.0,0.0,0.0,0.0,0.0,-0.6214,-0.6086,-0.6086,-0.5855,-0.5688,-0.5688,-0.5908,-0.5994,-0.5994,-0.6169,-0.6254,-0.6299,-0.7305,-0.7763,-0.7815,0.0,0.0,0.0,-1.1341,-1.1885,-1.2123,-1.2323,-1.2528,-1.2705,-1.2705,-1.2705,-1.2705,0.0,0.0,0.0,0.0,0.0,0.0,0.0,0.0,0.0,0.0,0.0,0.0,0.0,0.0,0.0,0.0,0.0,0.0,0.0,0.0,0.0,0.0,0.0,0.0,0.0,0.0,0.0,0.0,0.0,0.0,0.0,0.0,0.0,0.0,0.0,0.0,0.0,0.0,0.0,0.0,0.0,0.0,0.0,0.0,0.0,0.0,0.0,0.0,0.0,0.0,0.0,-0.1674,-0.2633,-0.3931,-0.4997,-0.4736,0.0,0.0,-0.6217,-0.6358,-0.633,-0.6146,-0.5814,-0.5413,-0.506,0.0,0.0,-0.4325,-0.439,-0.4539,-0.4651,-0.4746,0.0,0.0,0.0,0.0,0.0,0.0,0.0,0.0,0.0,0.0,0.0,0.0,0.0,0.0,0.0,0.0,0.0,-0.6214,-0.6086,-0.6086,-0.5855,-0.5688,-0.5688,-0.5733,-0.5733,-0.5733,-0.5777,-0.5777,-0.5777,-0.6127,-0.6735,-0.7555,0.0,0.0,0.0,-0.9803,-1.0466,-1.1381,-1.1402,-1.1972,-1.2705,-1.2705,-1.2705,-1.2705,0.0,0.0,0.0,0.0,0.0,0.0,0.0,0.0,0.0,0.0,0.0,0.0,0.0,0.0,0.0,0.0,0.0,0.0,0.0,0.0,0.0,0.0,0.0,0.0,0.0,0.0,0.0,0.0,0.0,0.0,0.0,0.0,0.0,0.0,0.0,0.0,0.0,0.0,0.0,0.0,0.0,0.0,0.0,0.0,0.0,0.0,0.0,0.0,0.0,0.0,0.0,0.0,-0.1065,-0.2067,0.0,0.0,-0.4695,-0.5225,-0.5959,-0.6192,-0.6184,-0.6018,-0.5651,-0.5257,-0.4933,0.0,-0.4355,-0.4311,-0.4336,-0.446,-0.4654,-0.4728,-0.4803,0.0,0.0,0.0,0.0,0.0,0.0,0.0,0.0,0.0,0.0,0.0,0.0,0.0,0.0,0.0,0.0,-0.6214,-0.6086,-0.6086,-0.5855,-0.5688,-0.5688,-0.5688,-0.5688,-0.5688,-0.5688,-0.5688,-0.5688,-0.5997,-0.6305,-0.6697,0.0,0.0,0.0,-0.9362,-0.9927,-1.0491,-1.1063,-1.1537,-1.1929,-1.2491,-1.2705,-1.2705,0.0,0.0,0.0,0.0,0.0,0.0,0.0,0.0,0.0,0.0,0.0,0.0,0.0,0.0,0.0,0.0,0.0,0.0,0.0,0.0,0.0,0.0,0.0,0.0,0.0,0.0,0.0,0.0,0.0,0.0,0.0,0.0,0.0,0.0,0.0,0.0,0.0,0.0,0.0,0.0,0.0,0.0,0.0,0.0,0.0,0.0,0.0,0.0,0.0,0.0,0.0,0.0,0.0,0.0,0.0,0.0,-0.3714,-0.4182,-0.4952,-0.5439,-0.5572,-0.5153,-0.4974,-0.4795,0.0,0.0,-0.4028,-0.4267,-0.4327,-0.4412,-0.4651,-0.4717,-0.4773,0.0,0.0,0.0,0.0,0.0,0.0,0.0,0.0,0.0,0.0,0.0,0.0,0.0,0.0,0.0,0.0,-0.6195,-0.6086,-0.6086,-0.5855,-0.5688,-0.5688,-0.5688,-0.5688,-0.5688,-0.5688,-0.5688,-0.5688,-0.5908,-0.5997,0.0,0.0,0.0,0.0,-0.8273,-0.8834,-0.9357,-1.0014,-1.0496,-1.089,-1.1537,-1.1832,-1.1875,0.0,0.0,0.0,0.0,0.0,0.0,0.0,0.0,0.0,0.0,0.0,0.0,0.0,0.0,0.0,0.0,0.0,0.0,0.0,0.0,0.0,0.0,0.0,0.0,0.0,0.0,0.0,0.0,0.0,0.0,0.0,0.0,0.0,0.0,0.0,0.0,0.0,0.0,0.0,0.0,0.0,0.0,0.0,0.0,0.0,0.0,0.0,0.0,0.0,0.0,0.0,0.0,0.0,0.0,0.0,0.0,-0.2133,-0.2929,-0.303,-0.3875,-0.4433,-0.3333,-0.3566,-0.4018,0.0,0.0,-0.3418,-0.4164,-0.439,-0.4542,-0.4665,-0.4751,-0.4833,0.0,0.0,0.0,0.0,0.0,0.0,0.0,0.0,0.0,0.0,0.0,0.0,0.0,0.0,0.0,0.0,0.0,-0.6086,-0.6086,-0.5855,-0.5688,-0.5688,-0.5688,-0.5688,-0.5688,-0.5688,-0.5688,-0.5688,-0.5688,0.0,0.0,0.0,0.0,0.0,-0.6127,-0.6782,-0.783,-0.783,-0.8575,-0.9623,-0.9623,-0.9753,-0.9923,0.0,0.0,0.0,0.0,0.0,0.0,0.0,0.0,0.0,0.0,0.0,0.0,0.0,0.0,0.0,0.0,0.0,0.0,0.0,0.0,0.0,0.0,0.0,0.0,0.0,0.0,0.0,0.0,0.0,0.0,0.0,0.0,0.0,0.0,0.0,0.0,0.0,0.0,0.0,0.0,0.0,0.0,0.0,0.0,0.0,0.0,0.0,0.0,0.0,0.0,0.0,0.0,0.0,0.0,0.0,0.0,0.0,0.0,-0.2733,-0.3177,-0.3377,-0.3018,-0.2972,-0.2944,-0.2748,0.0,-0.2649,-0.3387,-0.3578,-0.3822,-0.458,-0.4723,-0.4776,-0.4982,0.0,0.0,0.0,0.0,0.0,0.0,0.0,0.0,0.0,0.0,0.0,0.0,0.0,0.0,0.0,0.0,-0.5961,-0.5961,-0.5812,-0.5688,-0.5688,-0.5688,-0.5688,-0.5688,-0.5688,-0.5688,-0.5688,-0.5688,0.0,0.0,0.0,0.0,0.0,-0.6083,-0.6387,-0.6912,-0.757,-0.8049,-0.8444,-0.9091,-0.9441,-0.954,0.0,0.0,0.0,0.0,0.0,0.0,0.0,0.0,0.0,0.0,0.0,0.0,0.0,0.0,0.0,0.0,0.0,0.0,0.0,0.0,0.0,0.0,0.0,0.0,0.0,0.0,0.0,0.0,0.0089,0.006,0.0,0.0091,0.0089,0.0,0.0,0.0,0.0,0.0,0.0,0.0,0.0,0.0,0.0505,0.0,0.0,0.0,0.0,0.0,0.0,0.0,0.0,0.0,0.0,0.0,0.0,0.0,0.0,0.0,0.0,-0.1976,-0.2252,-0.184,-0.1898,0.0,0.0,0.0,-0.1913,-0.2648,-0.284,-0.3132,-0.4058,-0.4295,-0.4474,0.0,0.0,0.0,0.0,0.0,0.0,0.0,0.0,0.0,0.0,0.0,0.0,0.0,0.0,0.0,0.0,0.0,-0.5882,-0.5841,-0.5726,-0.5688,-0.5688,-0.5688,-0.5688,-0.5688,-0.5688,-0.5688,-0.5688,0.0,0.0,0.0,0.0,0.0,0.0,-0.5952,-0.6038,-0.6213,-0.6782,-0.7055,-0.7131,-0.7729,-0.8056,-0.8162,0.0,0.0,0.0,0.0,0.0,0.0,0.0,0.0028,0.0028,0.0028,0.0028,0.0029,0.003,0.0029,0.0029,0.0031,0.0,0.0,0.0,0.0,0.0,0.0,0.0,0.0,0.0,0.0028,0.0029,0.003,0.0214,0.0217,0.0062,0.0224,0.0283,0.0207,0.0207,0.0,0.0421,0.0617,0.0701,0.0,0.0,0.0701,0.0,0.0,0.0,0.0,0.0,0.0,0.0,0.0,0.0,0.0,0.0,0.0,0.0,0.0,0.0,0.0,0.0,0.0,0.0,0.0,0.0,0.0,0.0,0.0,0.0,-0.1879,-0.2124,-0.2443,-0.3186,-0.3576,0.0,0.0,0.0,0.0,0.0,0.0,0.0,0.0,0.0,0.0,0.0,0.0,0.0,0.0,0.0,0.0,0.0,0.0,0.0,-0.5691,-0.5688,-0.5688,-0.5688,-0.5688,-0.5688,-0.5688,-0.5688,-0.5688,-0.5688,0.0,0.0,0.0,0.0,0.0,0.0,-0.5688,-0.5688,-0.5688,-0.568,-0.578,-0.5889,-0.5878,-0.5966,-0.6064,0.0,0.0,0.0,0.0,0.0,0.0,0.0,0.0,0.0,0.0,0.014,0.0197,0.0287,0.0227,0.0197,0.0,0.0,0.0,0.0,0.0,0.0,0.0,0.0,0.0,0.0,0.0308,0.0317,0.0397,0.0441,0.0453,0.0463,0.0509,0.0495,0.0427,0.0427,0.0503,0.0645,0.0785,0.0842,0.0842,0.0842,0.0842,0.0,0.0,0.0,0.0,0.0785,0.0785,0.0,0.0,0.0,0.0,0.0,0.0,0.0,0.0,0.0589,0.0,0.0,0.0,0.0,0.0,0.0,0.0,0.0,0.0,0.0,0.0,0.0,0.0,0.0,0.0,0.0,0.0,0.0,0.0,0.0,0.0,0.0,0.0,0.0,0.0,0.0,0.0,0.0,0.0,0.0,0.0,0.0,0.0,0.0,-0.5691,-0.5688,-0.5688,-0.5688,-0.5688,-0.5688,-0.5688,-0.5688,-0.5688,-0.5688,0.0,0.0,0.0,0.0,0.0,-0.5688,-0.5688,-0.5688,-0.568,-0.5586,-0.5575,-0.558,-0.5529,-0.5584,-0.5656,0.0,0.0,0.0,0.0,0.0,0.0,0.0,0.0,0.0,0.0,0.0,0.0,0.0,0.0,0.0,0.0,0.0,0.0,0.0,0.0,0.0,0.0,0.0,0.0,0.0393,0.0393,0.0435,0.0494,0.0605,0.0627,0.0618,0.0696,0.0709,0.0629,0.0664,0.0725,0.0785,0.087,0.0898,0.0898,0.0898,0.0,0.0,0.0,0.0,0.0,0.0898,0.0898,0.0,0.0843,0.0814,0.0806,0.0,0.0,0.0,0.0,0.0785,0.0,0.0,0.0,0.0,0.0,0.0,0.0,0.0,0.0,0.0,0.0,0.0,0.0,0.0,0.0,0.0,0.0,0.0,0.0,0.0,0.0,0.0,0.0,0.0,0.0,0.0,0.0,0.0,0.0,0.0,0.0,0.0,0.0,0.0,0.0,-0.5688,-0.5688,-0.5688,-0.5688,-0.5688,-0.5688,-0.5688,-0.5688,-0.5688,0.0,0.0,0.0,0.0,0.0,-0.5688,-0.5688,-0.5688,-0.5683,-0.5615,-0.5524,-0.5461,-0.5393,-0.5375,-0.5361,0.0,0.0,0.0,0.0,0.0,0.0,0.0,0.0,0.0,0.0,0.0,0.0,0.0,0.0,0.0,0.0,0.0,0.0,0.0,0.0,0.0,0.0,0.0,0.045,0.048,0.0478,0.0522,0.0587,0.077,0.0806,0.0705,0.0892,0.0936,0.0842,0.0886,0.0902,0.0898,0.0898,0.0898,0.0898,0.0,0.0,0.0,0.0,0.0,0.0,0.0,0.0,0.0,0.0957,0.0957,0.0911,0.0967,0.0,0.0,0.0,0.0,0.0,0.0,0.0,0.0,0.0,0.0,0.0,0.0,0.0,0.0,0.0,0.0,0.0,0.0,0.0,0.0,0.0,0.0,0.0,0.0,0.0,0.0,0.0,0.0,0.0,0.0,0.0,0.0,0.0,0.0,0.0,0.0,0.0,0.0,0.0,-0.5688,-0.5688,-0.5688,-0.5688,-0.5688,-0.5688,-0.5688,-0.5688,-0.5688,-0.5688,0.0,0.0,0.0,0.0,-0.5688,-0.5688,-0.5688,-0.5688,-0.5667,-0.5581,-0.5396,-0.5418,-0.5344,-0.5214,0.0,0.0,0.0,0.0,0.0,0.0,0.0,0.0,0.0,0.0,0.0,0.0,0.0,0.0,0.0,0.0,0.0,0.0,0.0,0.0,0.0,0.0,0.0701,0.071,0.0818,0.0825,0.0869,0.0927,0.1001,0.1055,0.1125,0.12,0.1164,0.1065,0.0945,0.0893,0.0898,0.0898,0.0898,0.0898,0.0,0.0,0.0,0.0,0.0,0.0,0.0,0.0,0.0,0.0909,0.0909,0.0905,0.091,0.0,0.0,0.0,0.0,0.0,0.09,0.0881,0.0,0.0,0.0,0.0,0.0,0.0,0.0,0.0,0.0,0.0,0.0,0.0,0.0,0.0,0.0,0.0,0.0,0.0,0.0,0.0,0.0,0.0,0.0,0.0,0.0,0.0,0.0,0.0,0.0,0.0,0.0,0.0,0.0,-0.5688,-0.5688,-0.5688,-0.5688,-0.5688,-0.5688,-0.5688,-0.5688,-0.5688,-0.5688,0.0,0.0,-0.5688,-0.5688,-0.5688,-0.5688,-0.568,-0.5575,-0.5513,-0.5467,-0.5407,-0.5399,-0.5383,0.0,0.0,0.0,0.0,0.0,0.0,0.0,0.0,0.0,0.0,0.0,0.0,0.0,0.0,0.0,0.0,0.0,0.0,0.0,0.0,0.0,0.1409,0.1323,0.1159,0.0913,0.0931,0.1,0.106,0.1134,0.1185,0.1253,0.1229,0.1126,0.1057,0.0952,0.0911,0.0898,0.0898,0.0898,0.0898,0.0,0.0,0.0,0.0,0.0,0.0,0.0,0.0,0.0,0.0,0.0893,0.0893,0.0893,0.0,0.0,0.0,0.0,0.0,0.0886,0.0913,0.0967,0.0,0.0,0.0,0.0,0.0,0.0,0.0,0.0,0.0,0.0,0.0,0.0,0.0,0.0,0.0,0.0,0.0,0.0,0.0,0.0,0.0,0.0,0.0,0.0,0.0,0.0,0.0,0.0,0.0,0.0,0.0,0.0,-0.5591,-0.5591,-0.5591,-0.5623,-0.5688,-0.5621,-0.5623,-0.5688,-0.5688,-0.5688,-0.5688,0.0,-0.5688,-0.5688,-0.5688,-0.5688,-0.5683,-0.5626,-0.5564,-0.5499,-0.5445,-0.5466,-0.5477,0.0,0.0,0.0,0.0,0.0,0.0,0.0,0.0,0.0,0.0,0.0,0.0,0.0,0.0,0.0,0.0,0.0,0.0,0.0,0.0,0.2486,0.2031,0.2049,0.1723,0.0973,0.0981,0.1033,0.1132,0.1193,0.1238,0.1305,0.1187,0.1095,0.0997,0.0935,0.0904,0.0898,0.0898,0.0898,0.0898,0.0,0.0,0.0,0.0,0.0,0.0,0.0,0.0,0.0,0.0,0.0,0.0,0.0,0.0,0.0,0.0,0.0898,0.0899,0.0906,0.0942,0.0973,0.0,0.0,0.0,0.0,0.0,0.0,0.0,0.0,0.0,0.0,0.0,0.0,0.0,0.0,0.0,0.0,0.0,0.0,0.0,0.0,0.0,0.0,0.0,0.0,0.0,0.0,0.0,0.0,0.0,0.0,0.0,0.0,0.0,-0.5467,-0.5437,-0.5513,-0.5688,-0.5594,-0.5599,-0.5688,-0.5659,-0.5648,-0.5645,-0.5615,-0.5621,-0.5648,-0.5648,-0.5664,-0.5688,-0.5688,-0.5632,-0.5548,-0.5548,-0.5548,-0.5564,0.0,0.0,0.0,0.0,0.0,0.0,0.0,0.0,0.0,0.0,0.0,0.0,0.0,0.0,0.0,0.0,0.0,0.0,0.0,0.0,0.2683,0.2635,0.2744,0.2263,0.1097,0.1045,0.1076,0.12,0.1262,0.1309,0.1297,0.1241,0.1114,0.0996,0.0936,0.0895,0.0898,0.0898,0.0898,0.0898,0.0898,0.0,0.0,0.0,0.0,0.0,0.0,0.0,0.0,0.0,0.0,0.0,0.0,0.0,0.0,0.0,0.0898,0.0904,0.0903,0.0913,0.0922,0.0978,0.1027,0.0,0.1072,0.1095,0.0,0.0,0.0,0.0,0.0,0.0,0.0,0.0,0.0,0.0,0.0,0.0,0.0,0.0,0.0,0.0,0.0,0.0,0.0,0.0,0.0,0.0,0.0,0.0,0.0,0.0,0.0,0.0,-0.5424,-0.5268,-0.5388,-0.5688,-0.568,-0.568,-0.5686,-0.5572,-0.5521,-0.5516,-0.5445,-0.5461,-0.5521,-0.5521,-0.5586,-0.5688,-0.5688,-0.5683,-0.5677,-0.5677,-0.5677,-0.5677,0.0,0.0,0.0,0.0,0.0,0.0,0.0,0.0,0.0,0.0,0.0,0.0,0.0,0.0,0.0,0.0,0.0,0.0,0.0,0.0,0.366,0.3278,0.3319,0.3001,0.2309,0.2475,0.2655,0.2817,0.2292,0.2034,0.2019,0.1382,0.1056,0.1003,0.0942,0.0909,0.0898,0.0898,0.0898,0.0898,0.0898,0.0898,0.0,0.0,0.0,0.0,0.0,0.0,0.0,0.0,0.0,0.0,0.0,0.0,0.0,0.0,0.0,0.09,0.0911,0.0899,0.0916,0.0927,0.0973,0.0,0.0,0.1099,0.1067,0.0,0.0,0.0,0.0,0.0,0.0,0.0,0.0,0.0,0.0,0.0,0.0,0.0,0.0,0.0,0.0,0.0,0.0,0.0,0.0,0.0,0.0,0.0,0.0,0.0,0.0,0.0,0.0,-0.5208,-0.5295,-0.5507,-0.5428,-0.5513,-0.5686,-0.5564,-0.5508,-0.5508,-0.5581,-0.5534,-0.5513,-0.5588,-0.5648,-0.5688,-0.5688,-0.5688,-0.5688,-0.5688,-0.5688,-0.5688,0.0,0.0,0.0,0.0,0.0,0.0,0.0,0.0,0.0,0.0,0.0,0.0,0.0,0.0,0.0,0.0,0.0,0.0,0.4491,0.4491,0.4312,0.3892,0.3935,0.3851,0.3614,0.3929,0.3994,0.3752,0.313,0.2803,0.2688,0.2006,0.1704,0.1683,0.1628,0.1589,0.1588,0.1543,0.1499,0.1456,0.126,0.1177,0.0,0.0,0.0,0.0,0.0,0.0,0.0,0.0,0.0,0.0,0.0,0.0,0.0,0.0,0.0,0.0,0.0898,0.0927,0.0925,0.0,0.0,0.0,0.1083,0.1121,0.0,0.0,0.0,0.0,0.0,0.0,0.0,0.0,0.0,0.0,0.0,0.0,0.0,0.0,0.0,0.0,0.0,0.0,0.0,0.0,0.0,0.0,0.0,0.0,0.0,0.0,0.0,0.0,0.0,-0.5094,-0.5156,-0.5353,-0.5189,-0.5303,-0.5616,-0.5532,-0.5429,-0.5397,-0.5481,-0.5534,-0.5456,-0.5583,-0.5662,-0.5688,-0.5688,-0.5688,-0.5688,-0.5688,-0.5688,-0.5688,0.0,0.0,0.0,0.0,0.0,0.0,0.0,0.0,0.0,0.0,0.0,0.0,0.0,0.0,0.0,0.0,0.0,0.0,0.4491,0.4491,0.4491,0.4491,0.4638,0.4762,0.4884,0.5238,0.4801,0.363,0.363,0.3422,0.3105,0.3155,0.3199,0.3206,0.3117,0.3107,0.3101,0.2945,0.2822,0.2653,0.204,0.1818,0.1734,0.0,0.0,0.0,0.0,0.0,0.0,0.0,0.0,0.0,0.0,0.0,0.0,0.0,0.0898,0.0898,0.0898,0.0941,0.0,0.0,0.0,0.0,0.0,0.0,0.0,0.0,0.0,0.0,0.0,0.0,0.0,0.0,0.0,0.0,0.0,0.0,0.0,0.0,0.0,0.0,0.0,0.0,0.0,0.0,0.0,0.0,0.0,0.0,0.0,0.0,0.0,0.0,0.0,-0.4855,-0.495,-0.5181,-0.5069,-0.514,-0.541,-0.541,-0.5342,-0.5186,-0.5186,-0.5257,-0.541,-0.5413,-0.5513,-0.5688,-0.5688,-0.5688,-0.5688,-0.5688,-0.5688,-0.5688,0.0,0.0,0.0,0.0,0.0,0.0,0.0,0.0,0.0,0.0,0.0,0.0,0.0,0.0,0.0,0.0,0.0,0.0,0.4491,0.4491,0.4491,0.4491,0.4535,0.4631,0.4755,0.5047,0.5122,0.4988,0.4398,0.4028,0.3931,0.3427,0.3204,0.3209,0.3278,0.3193,0.2945,0.2918,0.2822,0.2681,0.2514,0.243,0.2402,0.0,0.0,0.0,0.0,0.0,0.0,0.0,0.0,0.0,0.0,0.0,0.0,0.0898,0.0898,0.0898,0.0898,0.0,0.0,0.0,0.0,0.0,0.0,0.0,0.0,0.0,0.0,0.0,0.0,0.0,0.0,0.0,0.0,0.0,0.0,0.0,0.0,0.0,0.0,0.0,0.0,0.0,0.0,0.0,0.0,0.0,0.0,0.0,0.0,0.0,0.0,0.0,0.0,0.0,-0.4784,-0.4901,-0.4866,-0.5056,-0.5407,-0.5322,-0.5219,-0.5192,-0.532,-0.5328,-0.5254,-0.5426,-0.5548,-0.5688,-0.5688,-0.5688,-0.5688,-0.5688,-0.5688,-0.5688,0.0,0.0,0.0,0.0,0.0,0.0,0.0,0.0,0.0,0.0,0.0,0.0,0.0,0.0,0.0,0.0,0.0,0.0,0.0,0.4491,0.4491,0.4491,0.4491,0.4563,0.4687,0.4863,0.5047,0.5233,0.4831,0.4555,0.4457,0.421,0.4022,0.3948,0.4175,0.4086,0.3769,0.3724,0.3608,0.3473,0.3246,0.3133,0.3105,0.0,0.0,0.0,0.0,0.0,0.0,0.0,0.0,0.0,0.0,0.0,0.0,0.0898,0.0898,0.0898,0.0898,0.0,0.0,0.0,0.0,0.0,0.0,0.0,0.0,0.0,0.0,0.0,0.0,0.0,0.0,0.0,0.0,0.0,0.0,0.0,0.0,0.0,0.0,0.0,0.0,0.0,0.0,0.0,0.0,0.0,0.0,0.0,0.0,0.0,0.0,0.0,0.0,0.0,0.0,-0.4795,-0.4795,-0.4974,-0.5227,-0.52,-0.5162,-0.5127,-0.5246,-0.5254,-0.5203,-0.5398,-0.5508,-0.5615,-0.5615,-0.5648,-0.5688,-0.5688,-0.5688,-0.5688,0.0,0.0,0.0,0.0,0.0,0.0,0.0,0.0,0.0,0.0,0.0,0.0,0.0,0.0,0.0,0.0,0.0,0.0,0.0,0.0,0.4519,0.4519,0.4515,0.4584,0.4725,0.4699,0.4699,0.4699,0.4952,0.4952,0.4701,0.517,0.5267,0.511,0.5437,0.5399,0.5069,0.4928,0.4809,0.4641,0.4085,0.3854,0.3796,0.3241,0.0,0.0,0.0,0.0,0.0,0.0,0.0,0.0,0.0,0.0,0.0898,0.0898,0.0898,0.0898,0.0898,0.0,0.0,0.0,0.0,0.0,0.0,0.0,0.0,0.0,0.0,0.0,0.0,0.0,0.0,0.0,0.0,0.0,0.0,0.0,0.0,0.0,0.0,0.0,0.0,0.0,0.0,0.0,0.0,0.0,0.0,0.0,0.0,0.0,0.0,0.0,0.0,0.0,0.0,0.0,-0.4689,-0.4795,-0.5004,-0.5118,-0.5113,-0.5023,-0.5127,-0.5175,-0.5195,-0.5347,-0.5426,-0.5491,-0.5502,-0.5575,-0.5675,-0.5686,-0.5688,-0.5688,0.0,0.0,0.0,0.0,0.0,0.0,0.0,0.0,0.0,0.0,0.0,0.0,0.0,0.0,0.0,0.0,0.0,0.0,0.0,0.0,0.466,0.466,0.4767,0.4833,0.4869,0.4765,0.4713,0.4713,0.4755,0.4752,0.4697,0.5026,0.513,0.5106,0.5328,0.5243,0.4924,0.4802,0.4653,0.4539,0.4399,0.434,0.434,0.42,0.3844,0.0,0.0,0.0,0.0,0.0,0.0,0.0,0.1037,0.0898,0.0898,0.0898,0.0898,0.0898,0.0,0.0902,0.0,0.0,0.0,0.0,0.0,0.0,0.0,0.0,0.0,0.0,0.0,0.0,0.0,0.0,0.0,0.0,0.0,0.0,0.0,0.0,0.0,0.0,0.0,0.0,0.0,0.0,0.0,0.0,0.0,0.0,0.0,0.0,0.0,0.0,-0.2424,-0.2984,-0.3404,0.0,-0.3697,-0.4116,-0.4839,-0.4999,-0.504,-0.5018,-0.5042,-0.5105,-0.5186,-0.5214,-0.5298,-0.5417,-0.547,-0.5524,-0.5559,-0.5653,-0.5688,-0.5688,0.0,0.0,0.0,0.0,0.0,0.0,0.0,0.0,0.0,0.0,0.0,0.0,0.0,0.0,0.0,0.0,0.0,0.0,0.0,0.0,0.0,0.4794,0.4873,0.4897,0.4897,0.4818,0.477,0.4691,0.4689,0.4705,0.4697,0.4961,0.51,0.5106,0.5324,0.526,0.4995,0.4847,0.479,0.4794,0.4794,0.4741,0.4688,0.4688,0.4416,0.3987,0.371,0.0,0.0,0.0,0.0,0.0,0.0,0.0,0.126,0.0981,0.0898,0.0898,0.0,0.0,0.0,0.0,0.0,0.0,0.0,0.0,0.0,0.0,0.0,0.0,0.0,0.0,0.0,0.0,0.0,0.0,0.0,0.0,0.0,0.0,0.0,0.0,0.0,0.0,0.0,0.0,0.0,0.0,0.0,0.0,0.0,0.0,0.0,0.0,-0.2114,-0.2815,-0.3262,-0.3389,-0.3389,-0.3497,-0.3715,-0.4589,-0.5018,-0.5018,-0.5018,-0.505,-0.5105,-0.5105,-0.5175,-0.5287,-0.5352,-0.5405,-0.5516,-0.5578,-0.564,-0.5688,0.0,0.0,0.0,0.0,0.0,0.0,0.0,0.0,0.0,0.0,0.0,0.0,0.0,0.0,0.0,0.0,0.0,0.0,0.0,0.0,0.0,0.4956,0.4956,0.4956,0.4956,0.4956,0.4877,0.477,0.4743,0.4756,0.0,0.4982,0.5085,0.5123,0.5285,0.5262,0.51,0.4947,0.497,0.5077,0.5077,0.4995,0.4887,0.4887,0.4773,0.4515,0.4015,0.3821,0.371,0.3098,0.0,0.0,0.0,0.0,0.1846,0.1344,0.1149,0.1065,0.0,0.0,0.0,0.0,0.0,0.0,0.0,0.0,0.0,0.0,0.0,0.0,0.0,0.0,0.0,0.0,0.0,0.0,0.0,0.0,0.0,0.0,0.0,0.0,0.0,0.0,0.0,0.0,0.0,0.0,0.0,0.0,0.0,0.0,0.0,-0.1292,-0.1884,-0.2477,-0.2915,-0.3136,-0.3269,-0.3004,-0.2462,-0.3867,-0.4568,-0.4763,-0.49,-0.4947,-0.4949,-0.501,-0.5072,-0.5159,-0.5178,-0.5309,-0.5448,-0.547,-0.554,-0.5626,0.0,0.0,0.0,0.0,0.0,0.0,0.0,0.0,0.0,0.0,0.0,0.0,0.0,0.0,0.0,0.0,0.0,0.0,0.0,0.0,0.0,0.5242,0.5242,0.5242,0.5242,0.5128,0.5069,0.5042,0.4928,0.0,0.0,0.0,0.0,0.5097,0.5122,0.5137,0.5086,0.4949,0.4906,0.493,0.493,0.4906,0.4906,0.4906,0.4892,0.4842,0.4759,0.4653,0.4463,0.3852,0.3572,0.0,0.0,0.0,0.0,0.0,0.2097,0.1679,0.0,0.0,0.0,0.0,0.0,0.0,0.0,0.0,0.0,0.0,0.0,0.0,0.0,0.0,0.0,0.0,0.0,0.0,0.0,0.0,0.0,0.0,0.0,0.0,0.0,0.0,0.0,0.0,0.0,0.0,0.0,0.0,0.0059,-0.0654,-0.0672,0.0,-0.0965,-0.1058,-0.1455,-0.212,-0.2698,-0.2694,-0.2147,-0.232,-0.2901,-0.3825,-0.4512,-0.482,-0.4828,-0.4936,-0.5026,-0.505,-0.5148,-0.5205,-0.5249,-0.5355,-0.5404,-0.5459,0.0,0.0,0.0,0.0,0.0,0.0,0.0,0.0,0.0,0.0,0.0,0.0,0.0,0.0,0.0,0.0,0.0,0.0,0.0,0.0,0.0,0.0,0.5297,0.5297,0.5297,0.5242,0.5183,0.5097,0.0,0.0,0.0,0.5253,0.5255,0.0,0.0,0.0,0.0,0.5087,0.5042,0.5128,0.5128,0.5069,0.0,0.0,0.4932,0.4794,0.4873,0.4822,0.466,0.4487,0.4322,0.4101,0.0,0.0,0.0,0.0,0.0,0.0,0.1902,0.0,0.0,0.0,0.0,0.0,0.0,0.0,0.0,0.0,0.0,0.0,0.0,0.0,0.0,0.0,0.0,0.0,0.0,0.0,0.0,0.0,0.0,0.0,0.0,0.0,0.0,0.0,0.0,0.0,0.0,0.0569,0.0376,-0.0029,-0.0417,0.0,-0.0677,-0.1106,-0.1424,-0.1666,-0.1257,-0.1077,-0.1144,-0.121,-0.1743,-0.2729,-0.309,-0.3215,-0.3218,-0.3293,-0.3296,-0.326,-0.3332,-0.348,-0.3651,-0.3687,-0.4105,-0.4655,0.0,0.0,0.0,0.0,0.0,0.0,0.0,0.0,0.0,0.0,0.0,0.0,0.0,0.0,0.0,0.0,0.0,0.0,0.0,0.0,0.0,0.0,0.0,0.5297,0.5297,0.5297,0.5242,0.5156,0.0,0.0,0.5447,0.5494,0.5588,0.0,0.5578,0.5489,0.0,0.0,0.0,0.0,0.0,0.0,0.0,0.0,0.0,0.0,0.0,0.4904,0.4825,0.4932,0.4877,0.4684,0.0,0.0,0.0,0.0,0.0,0.0,0.0,0.0,0.0,0.0,0.0,0.0,0.0,0.0,0.0,0.0,0.0,0.0,0.0,0.0,0.0,0.0,0.0,0.0,0.0,0.0,0.0,0.0,0.0,0.0,0.0,0.0,0.0,0.0,0.0,0.0,0.0757,0.0757,0.0681,0.0523,0.0029,-0.0235,-0.0271,-0.0999,-0.1246,-0.1004,-0.0154,0.0123,-0.0124,-0.0158,-0.0563,-0.1272,-0.1754,-0.1944,-0.1945,-0.1994,-0.1955,-0.1884,-0.1884,-0.2051,-0.2289,-0.2289,-0.2802,-0.3585,0.0,0.0,0.0,0.0,0.0,0.0,0.0,0.0,0.0,0.0,0.0,0.0,0.0,0.0,0.0,0.0,0.0,0.0,0.0,0.0,0.0,0.0,0.0,0.0,0.5297,0.5297,0.5297,0.0,0.0,0.0,0.5587,0.5791,0.5884,0.587,0.5892,0.5757,0.5583,0.0,0.0,0.0,0.0,0.0,0.0,0.0,0.0,0.0,0.0,0.0,0.0,0.5097,0.0,0.0,0.0,0.0,0.0,0.0,0.0,0.0,0.0,0.0,0.0,0.0,0.0,0.0,0.0,0.0,0.0,0.0,0.0,0.0,0.0,0.0,0.0,0.0,0.0,0.0,0.0,0.0,0.0,0.0,0.0,0.0,0.0,0.0,0.0,0.0,0.0,0.0,0.0898,0.0898,0.0898,0.0872,0.0844,0.076,0.062,-0.0087,-0.0207,0.0295,0.0061,0.0185,0.0648,0.0835,0.0883,0.075,-0.1028,-0.1821,-0.1825,-0.1943,-0.1955,-0.1884,-0.1884,-0.1914,-0.1919,-0.1919,-0.1959,-0.2157,0.0,0.0,0.0,0.0,0.0,0.0,0.0,0.0,0.0,0.0,0.0,0.0,0.0,0.8474,0.8395,0.8215,0.0,0.0,0.0,0.0,0.0,0.0,0.0,0.0,0.0,0.0,0.0,0.0,0.0,0.5413,0.5612,0.5681,0.5774,0.5888,0.5888,0.5787,0.5604,0.5466,0.0,0.0,0.0,0.0,0.0,0.0,0.0,0.0,0.0,0.0,0.0,0.0,0.0,0.0,0.0,0.0,0.0,0.0,0.0,0.0,0.0,0.0,0.0,0.0,0.0,0.0,0.0,0.0,0.0,0.0,0.0,0.0,0.0,0.0,0.0,0.0,0.0,0.0,0.0,0.0,0.0,0.0,0.0,0.0,0.0,0.0,0.0,0.0,0.0,0.0,0.0898,0.0898,0.0898,0.0898,0.0898,0.087,0.0842,0.0568,0.0343,0.0143,0.0404,0.0436,0.0262,0.0758,0.0994,0.0976,0.0333,0.0068,0.0068,0.0,0.0035,0.0074,0.0074,0.0,-0.0118,-0.0118,-0.0862,-0.188,0.0,0.0,0.0,0.0,0.0,0.0,0.0,0.0,0.0,0.0,0.0,0.0,0.0,0.0,0.8804,0.8804,0.0,0.0,0.0,0.0,0.0,0.0,0.0,0.0,0.0,0.0,0.0,0.0,0.0,0.0,0.0,0.5555,0.5677,0.5795,0.5795,0.5726,0.0,0.0,0.0,0.5297,0.0,0.0,0.5297,0.0,0.0,0.0,0.0,0.0,0.0,0.0,0.0,0.0,0.0,0.0,0.0,0.0,0.0,0.0,0.0,0.0,0.0,0.0,0.0,0.0,0.0,0.0,0.0,0.0,0.0,0.0,0.0,0.0,0.0,0.0,0.0,0.0,0.0,0.0,0.0,0.0,0.0,0.0,0.0,0.0,0.0,0.0,0.0,0.0,0.0898,0.0898,0.0898,0.0898,0.0898,0.0898,0.0898,0.0898,0.0701,0.0308,0.0701,0.0701,0.0309,0.0763,0.0969,0.099,0.1061,0.109,0.1109,0.1109,0.114,0.1151,0.1151,0.1114,0.1009,0.1009,0.0234,-0.0784,0.0,0.0,0.0,0.0,0.0,0.0,0.0,0.0,0.0,0.0,0.0,0.0,0.0,0.0,0.0,0.8818,0.8811,0.8804,0.8804,0.0,0.0,0.0,0.0,0.0,0.0,0.0,0.0,0.0,0.0,0.0,0.0,0.0,0.5604,0.5604,0.5604,0.5604,0.5604,0.0,0.5478,0.5297,0.0,0.5297,0.5297,0.0,0.0,0.0,0.5357,0.5434,0.0,0.0,0.0,0.0,0.0,0.0,0.0,0.0,0.0,0.0,0.0,0.0,0.0,0.0,0.0,0.0,0.0,0.0,0.0,0.0,0.0,0.0,0.0,0.0,0.0,0.0,0.0,0.0,0.0,0.0,0.0,0.0,0.0,0.0,0.0,0.0,0.0,0.0,0.0,0.0898,0.0898,0.0898,0.0898,0.0898,0.0898,0.0898,0.0898,0.0898,0.0898,0.0898,0.0898,0.0898,0.0898,0.0898,0.0931,0.0987,0.0989,0.1022,0.1108,0.1109,0.1093,0.1086,0.1086,0.1157,0.1211,0.1211,0.123,0.1099,0.0,0.0,0.0,0.0,0.0,0.0,0.0,0.0,0.0,0.0,0.0,0.0,0.8804,0.8804,0.8891,0.9078,0.8904,0.8804,0.8804,0.8639,0.856,0.856,0.8401,0.0,0.0,0.0,0.0,0.0,0.0,0.0,0.0,0.0,0.0,0.0,0.5397,0.5397,0.5397,0.5397,0.0,0.0,0.5297,0.5297,0.0,0.0,0.0,0.0,0.0,0.5329,0.5361,0.0,0.5297,0.5297,0.0,0.0,0.0,0.0,0.0,0.0,0.4846,0.0,0.0,0.0,0.0,0.0,0.0,0.0,0.0,0.0,0.0,0.0,0.0,0.0,0.0,0.0,0.0,0.0,0.0,0.0,0.0,0.0,0.0,0.0,0.0,0.0,0.0,0.0,0.0,0.0898,0.0898,0.0898,0.0898,0.0898,0.0898,0.0898,0.0898,0.0898,0.0898,0.0898,0.0898,0.0898,0.0898,0.0891,0.091,0.0928,0.0971,0.0998,0.1047,0.1067,0.1093,0.1086,0.1086,0.1144,0.1182,0.1204,0.0837,0.0422,0.0,0.0,0.0,0.0,0.0,0.0,0.0,0.0,0.0,0.0,0.0,0.0,0.8883,0.8831,0.8878,0.9018,0.8878,0.8804,0.8804,0.8804,0.8804,0.8804,0.8804,0.8527,0.0,0.0,0.0,0.0,0.0,0.0,0.0,0.0,0.0,0.0,0.0,0.0,0.0,0.0,0.0,0.0,0.5297,0.0,0.0,0.5297,0.5345,0.0,0.0,0.0,0.5422,0.5321,0.5297,0.0,0.0,0.0,0.0,0.0,0.0,0.0,0.0,0.0,0.0,0.0,0.0,0.0,0.0,0.4346,0.0,0.0,0.0,0.0,0.0,0.0,0.0,0.0,0.0,0.0,0.0,0.0,0.0,0.0,0.0,0.0,0.0,0.0,0.0,0.0,0.0898,0.0898,0.0898,0.0898,0.0898,0.0898,0.0898,0.0898,0.0898,0.0898,0.0898,0.0898,0.0898,0.0898,0.0898,0.0887,0.0902,0.0915,0.095,0.0979,0.1002,0.1052,0.1076,0.1102,0.1102,0.1121,0.115,0.1168,0.0892,0.0569,0.0,0.0,0.0,0.0,0.0,0.0,0.0,0.0,0.0,0.0,0.0,0.9043,0.9077,0.8924,0.8831,0.8898,0.8844,0.8804,0.8804,0.8804,0.8804,0.8804,0.8804,0.856,0.801,0.0,0.0,0.0,0.0,0.0,0.0,0.0,0.0,0.0,0.0,0.0,0.0,0.0,0.0,0.5407,0.5325,0.5297,0.0,0.0,0.5422,0.0,0.5353,0.5426,0.5531,0.5349,0.5297,0.0,0.0,0.0,0.0,0.0,0.5215,0.0,0.0,0.0,0.0,0.0,0.0,0.0,0.5128,0.5014,0.4873,0.0,0.0,0.0,0.0,0.0,0.0,0.0,0.0,0.0,0.0,0.0,0.0,0.0,0.0,0.0,0.0,0.0,0.0,0.0898,0.0898,0.0898,0.0898,0.0898,0.0898,0.0898,0.0898,0.0898,0.0898,0.0898,0.0898,0.0898,0.0898,0.0898,0.0898,0.0898,0.0912,0.0909,0.0912,0.0943,0.0992,0.0998,0.105,0.1109,0.1109,0.1092,0.1117,0.1084,0.1155,0.1202,0.0,0.0,0.0,0.0,0.0,0.0,0.0,0.0,0.0,0.0,0.0,0.9273,0.0,0.0,0.0,0.9472,0.9078,0.8804,0.8804,0.8804,0.8804,0.8804,0.8804,0.8752,0.8613,0.8613,0.0,0.0,0.0,0.0,0.0,0.0,0.0,0.0,0.0,0.0,0.0,0.0,0.0,0.5996,0.5485,0.0,0.5297,0.5297,0.5321,0.5345,0.5313,0.5321,0.5345,0.0,0.5297,0.5297,0.0,0.0,0.0,0.0,0.0,0.0,0.0,0.0,0.0,0.0,0.0,0.0,0.527,0.5156,0.5042,0.0,0.0,0.0,0.0,0.0,0.0,0.0,0.0,0.0,0.0,0.0,0.0,0.0,0.0,0.0,0.0,0.0,0.0898,0.0898,0.0898,0.0898,0.0898,0.0898,0.0898,0.0898,0.0898,0.0898,0.0898,0.0898,0.0898,0.0898,0.0898,0.0898,0.0898,0.0898,0.09,0.0907,0.0903,0.092,0.0934,0.0982,0.105,0.1109,0.1109,0.1113,0.1087,0.1112,0.1094,0.111,0.0,0.0,0.0,0.0,0.0,0.0,0.0,0.0,0.0,0.0,0.0,0.0,0.0,0.0,0.0,0.0,0.0,0.0,0.0,0.0,0.9008,0.9008,0.9008,0.9008,0.9008,0.9008,0.0,0.0,0.0,0.0,0.0,0.0,0.0,0.0,0.0,0.0,0.0,0.0,0.6186,0.6154,0.554,0.0,0.5297,0.5297,0.5297,0.5297,0.5297,0.5297,0.5297,0.5297,0.5297,0.0,0.0,0.5297,0.5297,0.0,0.5297,0.5297,0.0,0.0,0.0,0.5297,0.0,0.0,0.0,0.5242,0.5183,0.0,0.0,0.0,0.0,0.0,0.0,0.0,0.0,0.0,0.0,0.0,0.0,0.0,0.0,0.0,0.0,0.0,0.1429,0.1122,0.1094,0.1066,0.101,0.101,0.0982,0.0898,0.0898,0.0898,0.0898,0.0898,0.0898,0.0898,0.0898,0.0898,0.0898,0.0898,0.0898,0.0898,0.0913,0.09,0.0916,0.0945,0.0983,0.1056,0.1104,0.1109,0.1111,0.1093,0.1108,0.1127,0.0,0.0,0.0,0.0,0.0,0.0,0.0,0.0,0.0,0.0,0.0,0.0,0.0,0.0,0.0,0.0,0.0,0.0,0.0,0.0,0.0,0.9218,0.9211,0.9211,0.9211,0.9211,0.0,0.0,0.0,0.0,0.0,0.0,0.0,0.0,0.0,0.0,0.0,0.0,0.0,0.6561,0.0,0.554,0.5297,0.5297,0.5297,0.5301,0.5352,0.5352,0.5352,0.5352,0.0,0.5352,0.5301,0.5297,0.0,0.0,0.0,0.0,0.0,0.0,0.0,0.0,0.0,0.5297,0.0,0.0,0.0,0.0,0.0,0.0,0.0,0.0,0.0,0.0,0.0,0.0,0.0,0.0,0.0,0.0,0.0,0.0,0.0,0.0,0.2071,0.1346,0.1402,0.1374,0.115,0.115,0.1066,0.0954,0.0926,0.0926,0.0898,0.0898,0.0898,0.0898,0.0898,0.0898,0.0898,0.0898,0.0898,0.0898,0.0898,0.0911,0.0905,0.0911,0.0942,0.0988,0.1054,0.1104,0.1109,0.1109,0.1091,0.1117,1.1351,1.077,0.0,0.0,0.0,0.0,0.0,0.0,0.0,0.0,0.0,0.0,0.0,0.0,0.0,0.0,0.0,0.0,0.9722,0.0,0.0,0.9225,0.9211,0.9211,0.9211,0.9211,0.9211,0.0,0.0,0.0,0.0,0.0,0.0,0.0,0.8501,0.0,0.0,0.0,0.7711,0.0,0.7498,0.648,0.0,0.5297,0.5297,0.5325,0.5513,0.5567,0.5567,0.0,0.5567,0.554,0.0,0.5297,0.0,0.0,0.0,0.0,0.0,0.0,0.0,0.0,0.5297,0.0,0.0,0.0,0.0,0.0,0.0,0.0,0.0,0.0,0.0,0.0,0.0,0.0,0.0,0.0,0.0,0.0,0.0,0.0,0.0,0.0,0.0,0.1374,0.1793,0.1849,0.1319,0.129,0.1206,0.1094,0.1066,0.101,0.0898,0.0898,0.0898,0.0898,0.0898,0.0898,0.0898,0.0898,0.0898,0.0898,0.0898,0.09,0.0905,0.0903,0.0917,0.0929,0.0985,0.1054,0.1109,0.1109,0.1111,0.1085,1.2264,1.2017,0.0,0.0,0.0,0.0,0.0,0.0,0.0,0.0,0.0,0.0,0.0,0.0,0.0,0.0,0.0,1.0595,0.0,0.0,0.0,0.9719,0.9532,0.9525,0.9712,0.9532,0.9439,0.0,0.9439,0.0,0.0,0.0,0.0,0.0,0.9021,0.0,0.9283,0.0,0.0,0.0,0.0,0.0,0.0,0.6583,0.6583,0.6583,0.6664,0.648,0.6186,0.0,0.5967,0.0,0.0,0.0,0.0,0.0,0.0,0.0,0.0,0.0,0.0,0.0,0.0,0.0,0.0,0.0,0.5297,0.0,0.0,0.0,0.0,0.0,0.0,0.0,0.0,0.0,0.0,0.0,0.0,0.0,0.0,0.0,0.0,0.0,0.0,0.0,0.0,0.285,0.2486,0.2151,0.193,0.1737,0.1402,0.1178,0.1122,0.1066,0.101,0.101,0.0926,0.0898,0.0898,0.0898,0.0898,0.0898,0.0898,0.0898,0.0898,0.0911,0.0937,0.0972,0.0997,0.1025,0.1053,0.1069,0.1109,0.1113,1.2905,0.0,0.0,0.0,0.0,0.0,0.0,0.0,0.0,0.0,0.0,0.0,1.2274,1.1856,0.0,0.0,1.1379,1.11,0.0,0.0,1.0331,0.0,0.0,0.0,0.0,0.0,0.0,0.0,0.0,0.0,0.0,0.0,0.0,0.0,0.0,0.9361,0.9439,0.0,0.0,0.8732,0.8732,0.8461,0.8019,0.7652,0.7492,0.7492,0.7545,0.7283,0.6912,0.6912,0.6644,0.0,0.627,0.0,0.0,0.0,0.0,0.0,0.5645,0.0,0.0,0.0,0.0,0.0,0.0,0.0,0.0,0.0,0.0,0.0,0.0,0.0,0.0,0.0,0.0,0.0,0.0,0.0,0.0,0.0,0.0,0.0,0.0,0.0,0.0,0.0,0.3718,0.0,0.3329,0.297,0.2706,0.2516,0.1931,0.1681,0.1792,0.1541,0.1484,0.1651,0.1345,0.1205,0.1205,0.0981,0.0898,0.0898,0.0926,0.0954,0.0954,0.0982,0.1044,0.1099,0.114,0.1101,0.1068,0.1099,0.1109,0.1113,1.2905,1.248,0.0,0.0,0.0,0.0,0.0,0.0,0.0,0.0,0.0,0.0,0.0,0.0,0.0,0.0,0.0,1.1437,1.1107,0.0,1.0931,0.0,0.0,1.0411,0.0,0.0,0.0,0.0,0.0,0.0,0.0,0.0,0.0,0.0,0.0,0.9588,0.9588,0.9588,0.9588,0.9562,0.9562,0.9562,0.9373,0.0,0.7492,0.7519,0.7637,0.0,0.0,0.767,0.7649,0.0,0.0,0.0,0.0,0.0,0.0,0.0,0.0,0.0,0.0,0.5434,0.0,0.0,0.0,0.0,0.5297,0.0,0.0,0.0,0.0,0.0,0.0,0.0,0.0,0.0,0.0,0.0,0.0,0.0,0.0,0.0,0.0,0.0,0.0,0.0,0.4026,0.0,0.3332,0.3455,0.3486,0.3262,0.2734,0.2651,0.3035,0.246,0.246,0.3035,0.2319,0.1959,0.1931,0.1233,0.0898,0.0898,0.1038,0.1094,0.1094,0.1234,0.1318,0.1392,0.1466,0.1415,0.126,0.1131,0.1109,0.1109,0.0,0.0,0.0,0.0,0.0,0.0,0.0,1.3265,0.0,0.0,0.0,0.0,0.0,0.0,1.2962,0.0,0.0,1.189,1.1152,1.1107,0.0,0.0,0.0,1.0638,0.0,0.0,0.0,0.0,0.0,0.0,0.0,0.0,0.0,0.0,0.0,0.9588,0.0,0.0,0.0,0.0,0.0,0.9746,0.9853,0.0,0.0,0.8895,0.8928,0.8718,0.0,0.8435,0.818,0.788,0.7791,0.772,0.7687,0.763,0.7524,0.0,0.0,0.0,0.6902,0.6204,0.0,0.0,0.0,0.0,0.0,0.0,0.0,0.0,0.0,0.0,0.0,0.0,0.0,0.0,0.0,0.0,0.0,0.0,0.0,0.0,0.0,0.0,0.0,0.4531,0.4737,0.4771,0.0,0.4297,0.4153,0.4098,0.3541,0.3289,0.3428,0.3095,0.304,0.3231,0.2488,0.2127,0.2099,0.1457,0.1178,0.1178,0.1206,0.125,0.1305,0.1334,0.1435,0.1535,0.1551,0.1455,0.1294,0.124,0.1176,0.1109,1.3739,0.0,0.0,0.0,0.0,0.0,0.0,0.0,0.0,0.0,1.5247,0.0,1.5025,0.0,1.3831,0.0,1.2922,1.2516,1.1639,1.1594,0.0,1.1276,1.1078,0.0,0.0,0.0,0.0,0.0,0.0,0.9724,0.0,0.0,0.0,0.0,0.0,0.0,0.0,0.0,0.9588,0.0,0.0,0.9738,0.0,0.0,0.9687,0.0,0.0,0.938,0.9086,0.9086,0.8865,0.8557,0.8506,0.847,0.8421,0.838,0.827,0.8131,0.7945,0.7845,0.0,0.0,0.6848,0.0,0.5946,0.0,0.0,0.0,0.0,0.0,0.0,0.0,0.0,0.0,0.0,0.0,0.0,0.0,0.0,0.0,0.0,0.0,0.0,0.0,0.5078,0.4987,0.5069,0.5106,0.0,0.0,0.4794,0.4794,0.4211,0.4015,0.4211,0.3873,0.3818,0.4012,0.3264,0.2905,0.2877,0.2237,0.193,0.193,0.1986,0.2082,0.2173,0.2177,0.2323,0.2505,0.2448,0.2368,0.2181,0.1545,0.121,0.1109,0.0,0.0,0.0,0.0,1.389,0.0,0.0,0.0,1.5892,0.0,1.5586,1.5633,1.5018,1.4525,1.4227,1.4153,1.3795,0.0,1.2604,1.2543,0.0,0.0,1.1685,1.1537,1.1196,0.0,0.0,0.0,0.0,0.0,0.0,0.0,0.0,0.0,0.9588,0.0,0.9588,0.9588,0.9588,0.9588,0.9588,0.9621,0.961,0.9595,0.0,1.006,0.9731,0.9588,0.9588,0.9588,0.9588,0.9588,0.9588,0.9588,0.9588,0.9588,0.9517,0.9309,0.8784,0.8553,0.8309,0.7711,0.0,0.0,0.0,0.0,0.6642,0.0,0.0,0.0,0.0,0.0,0.0,0.0,0.0,0.0,0.0,0.0,0.0,0.0,0.0,0.0,0.0,0.5098,0.4995,0.4816,0.4974,0.0,0.0,0.0,0.0,0.5297,0.4798,0.4794,0.5297,0.4794,0.4794,0.5297,0.457,0.4205,0.4177,0.3453,0.3118,0.3118,0.3259,0.3442,0.3606,0.3606,0.3854,0.42,0.3993,0.3961,0.3782,0.2047,0.1344,0.121,1.4546,1.4944,1.5287,0.0,1.4923,1.4873,0.0,0.0,0.0,0.0,1.6902,1.6904,1.674,1.6645,1.6089,1.4925,1.4749,0.0,0.0,0.0,0.0,1.3025,1.3025,1.2732,1.2142,1.1688,0.0,1.0463,0.0,0.0,0.9588,0.0,0.0,0.0,0.0,0.0,0.9588,0.9588,0.9588,0.9588,0.9588,0.976,0.0,0.0,0.9819,1.006,0.9731,0.9588,0.9588,0.9588,0.9588,0.9588,0.9588,0.9588,0.9588,0.9588,0.9588,0.951,0.938,0.9328,0.9145,0.8488,0.8402,0.827,0.0,0.0,0.0,0.0,0.0,0.0,0.0,0.0,0.0,0.0,0.0,0.0,0.0,0.0,0.0,0.0,0.0,0.0,0.5126,0.4954,0.4857,0.4808,0.4974,0.0,0.0,0.0,0.0,0.5297,0.516,0.516,0.5297,0.516,0.516,0.5297,0.4712,0.4432,0.4405,0.3763,0.3486,0.3486,0.3514,0.3631,0.3824,0.3822,0.3998,0.4271,0.4208,0.4131,0.3915,0.3313,0.3047,0.2947,1.549,0.0,0.0,1.6739,0.0,0.0,1.6433,0.0,0.0,1.7347,1.7539,0.0,1.7656,1.7324,1.6735,1.5889,1.544,0.0,0.0,0.0,0.0,1.3502,1.3511,1.3321,1.2948,1.2443,0.0,1.105,0.0,0.0,0.9588,0.0,0.0,0.0,0.0,0.9668,0.0,0.9826,0.9826,0.9811,0.9672,0.0,0.0,0.968,0.9724,0.9863,0.968,0.9588,0.9588,0.9588,0.9588,0.9588,0.9588,0.9588,0.9588,0.9588,0.9588,0.9588,0.9588,0.9588,0.951,0.9119,0.9093,0.8955,0.8237,0.8137,0.817,0.0,0.0,0.0,0.0,0.0,0.0,0.0,0.0,0.0,0.0,0.0,0.0,0.0,0.0,0.0,0.5297,0.4985,0.4865,0.4997,0.0,0.0,0.0,0.0,0.0,0.0,0.5478,0.5482,0.5301,0.5482,0.5482,0.5297,0.4991,0.4853,0.4825,0.4491,0.4349,0.4349,0.4349,0.445,0.4631,0.4631,0.4828,0.5127,0.5193,0.515,0.5047,0.4912,0.4378,0.3651,0.0,0.0,0.0,0.0,0.0,0.0,0.0,1.7471,0.0,1.755,0.0,1.8056,1.7997,1.7298,1.6799,1.666,0.0,1.5361,1.4656,1.4703,1.4465,1.3812,1.3773,1.3722,1.3662,1.3172,0.0,0.0,0.0,0.0,0.0,0.0,0.0,0.0,0.0,0.0,0.0,1.0082,1.0075,0.0,0.9724,0.9588,0.9588,0.9588,0.9588,0.9588,0.9588,0.9588,0.9588,0.9588,0.9588,0.9588,0.9588,0.9588,0.9588,0.9588,0.9588,0.9588,0.9588,0.9588,0.9588,0.9588,0.9588,0.9484,0.9014,0.8909,0.8909,0.8909,0.8481,0.0,0.0,0.0,0.0,0.0,0.0,0.0,0.0,0.0,0.0,0.0,0.0,0.0,0.0,0.0,0.0,0.0,0.0,0.0,0.0,0.0,0.0,0.0,0.5628,0.0,0.5369,0.0,0.5685,0.5369,0.5345,0.5333,0.5333,0.5333,0.5345,0.5365,0.5345,0.547,0.5681,0.5681,0.5906,0.6229,0.6355,0.6387,0.6387,0.6387,0.5411,0.4059,0.0,0.0,0.0,0.0,0.0,1.8738,1.8507,1.8122,1.7963,1.8288,1.8365,1.8285,1.7958,1.7778,1.7324,1.6464,1.6685,0.0,0.0,0.0,0.0,1.5332,1.5157,1.4883,1.4499,1.3485,1.2757,0.0,0.0,0.0,0.0,0.0,0.0,0.0,0.0,0.0,0.9716,0.9987,0.0,0.9694,0.961,0.9588,0.9588,0.9588,0.9588,0.9588,0.9588,0.9588,0.9588,0.9588,0.9588,0.9588,0.9588,0.9588,0.9588,0.9588,0.9588,0.9588,0.9588,0.9588,0.9588,0.9588,0.9588,0.9588,0.9484,0.9458,0.9458,0.9458,0.938,0.9321,0.9432,0.0,0.0,0.0,0.0,0.0,0.0,0.0,0.0,0.0,0.0,0.0,0.0,0.0,0.0,0.0,0.0,0.0,0.0,0.0,0.0,0.0,0.0,0.0,0.0,0.0,0.0,0.5791,0.564,0.5539,0.5539,0.5539,0.5649,0.5787,0.5632,0.575,0.6082,0.6082,0.6208,0.6375,0.6404,0.6387,0.6387,0.6387,0.6181,0.5851,0.0,0.0,0.0,0.0,0.0,0.0,0.0,1.8713,0.0,1.8486,1.8325,1.8184,1.8204,1.7592,1.7028,1.6704,1.6537,1.6118,1.5439,1.5664,1.5753,1.5556,1.5449,0.0,1.5059,1.4382,1.3801,1.3319,0.0,0.0,0.0,0.0,0.0,0.0,0.0,1.0122,0.0,0.0,0.0,1.0089,0.9753,0.9588,0.9588,0.9588,0.9588,0.9588,0.9588,0.9588,0.9588,0.9588,0.9588,0.9588,0.9588,0.9588,0.9588,0.9588,0.9588,0.9588,0.9588,0.9588,0.9588,0.9588,0.9588,0.9588,0.9588,0.9588,0.9588,0.9588,0.9588,0.9588,0.9588,0.938,0.0,0.0,0.0,0.0,0.0,0.0,0.0,0.0,0.0,0.0,0.0,0.0,0.0,0.0,0.0,0.0,0.0,0.0,0.0,0.0,0.0,0.0,0.0,0.0,0.0,0.5839,0.5784,0.5754,0.5754,0.5754,0.5803,0.5884,0.5795,0.5852,0.6049,0.617,0.6286,0.6387,0.6387,0.6387,0.6387,0.6387,0.6387,0.6362,0.0,2.0021,0.0,0.0,1.9492,0.0,0.0,1.9108,1.8975,1.8684,1.8266,1.8084,1.8304,1.7304,1.6658,1.6797,1.6307,1.5849,1.5546,1.5625,1.5654,1.5555,1.5536,1.5536,1.5555,1.5173,1.4807,0.0,0.0,0.0,0.0,0.0,0.0,0.0,0.0,0.0,0.0,0.0,1.0272,1.0338,0.9819,0.9588,0.9588,0.9588,0.9588,0.9588,0.9588,0.9588,0.9588,0.9588,0.9588,0.9588,0.9588,0.9588,0.9588,0.9588,0.9588,0.9588,0.9588,0.9588,0.9588,0.9588,0.9588,0.9588,0.9588,0.9588,0.9588,0.9588,0.9588,0.9588,0.9588,0.9588,0.0,0.0,0.0,0.0,0.0,0.0,0.0,0.0,0.0,0.0,0.0,0.0,0.0,0.0,0.0,0.0,0.5454,0.5748,0.0,0.0,0.0,0.0,0.6041,0.0,0.6173,0.0,0.5989,0.603,0.6063,0.6063,0.6084,0.6059,0.6022,0.5996,0.601,0.618,0.6322,0.6387,0.6387,0.6387,0.6387,0.6387,0.6387,0.6436,0.0,0.0,0.0,0.0,0.0,0.0,0.0,1.9108,1.9108,1.9031,1.8639,1.8215,1.7833,1.7276,1.6743,1.6248,1.6601,1.6602,1.5905,1.6365,1.6483,1.6048,1.5933,1.5904,1.6028,1.5293,1.4993,0.0,0.0,0.0,0.0,0.0,0.0,0.0,0.0,0.0,0.0,1.0441,1.0221,0.9702,0.9636,0.9588,0.9588,0.9588,0.9588,0.9588,0.9588,0.9588,0.9588,0.9588,0.9588,0.9588,0.9588,0.9588,0.9588,0.9588,0.9588,0.9588,0.9588,0.9588,0.9588,0.9588,0.9588,0.9588,0.9588,0.9588,0.9588,0.9588,0.9588,0.9588,0.9588,0.9588,0.9709,0.0,0.0,0.0,0.0,0.0,0.0,0.0,0.0,0.0,0.0,0.0,0.0,0.0,0.0,0.0,0.5946,0.6126,0.6283,0.6314,0.0,0.634,0.68,0.617,0.0,0.6528,0.6415,0.6463,0.6625,0.6625,0.6627,0.6612,0.6419,0.6349,0.6371,0.6388,0.6404,0.6387,0.6387,0.6387,0.6387,0.6387,0.6387,0.6387,0.0,0.0,0.0,0.0,0.0,0.0,0.0,1.9523,1.9419,1.9139,1.8704,1.8455,1.8526,1.7616,1.6988,1.695,1.6663,1.6289,1.5924,1.6133,1.6182,1.6,1.5943,1.5943,1.599,1.5729,1.5668,0.0,0.0,0.0,0.0,0.0,0.0,0.0,0.0,1.2387,1.1802,1.134,1.0821,1.03,0.9888,0.9673,0.9588,0.9588,0.9588,0.9588,0.9588,0.9588,0.9588,0.9588,0.9588,0.9588,0.9588,0.9588,0.9588,0.9588,0.9588,0.9588,0.9588,0.9588,0.9588,0.9588,0.9588,0.9588,0.9588,0.9588,0.9588,0.9588,0.9588,0.9588,0.9588,0.9588,0.9632,0.0,0.0,0.0,0.0,0.0,0.0,0.0,0.0,0.0,0.0,0.0,0.0,0.0,0.0,0.0,0.6094,0.6179,0.6395,0.6687,0.0,0.6389,0.6848,0.647,0.64,0.6598,0.667,0.6757,0.6828,0.6828,0.6807,0.6806,0.6733,0.6713,0.6683,0.6613,0.6581,0.6593,0.6575,0.6587,0.6587,0.6578,0.6578,0.657,2.1745,0.0,2.128,0.0,2.0695,2.0276,1.9865,1.9679,1.9471,1.915,1.8818,1.8683,1.888,1.775,1.7111,1.7339,1.6632,1.6163,1.6058,1.6058,1.6058,1.6058,1.6058,0.0,1.6058,1.6134,1.6181,1.6181,1.6249,0.0,0.0,0.0,0.0,0.0,1.383,1.3495,1.3093,1.2402,1.1853,1.1388,1.0775,1.0381,1.0131,1.0014,0.9821,0.9647,0.9647,0.9647,0.9647,0.9647,0.9673,0.9699,0.9614,0.9588,0.9588,0.9588,0.9588,0.9588,0.9588,0.9588,0.9588,0.9588,0.9588,0.9588,0.9588,0.9588,0.9588,0.9588,0.9588,0.9588,0.9588,0.9588,0.9617,0.0,0.0,0.0,0.0,0.0,0.0,0.0,0.0,0.9595,0.9224,0.0,0.0,0.0,0.0,0.0,0.0,0.6644,0.0,0.0,0.0,0.0,0.0,0.0,0.6634,0.6789,0.6917,0.7019,0.7073,0.7007,0.6979,0.6979,0.6913,0.6913,0.6885,0.6871,0.6825,0.6766,0.6847,0.6808,0.6691,0.6755,0.6696,0.6603,2.1807,2.1797,2.1652,2.1197,2.0695,2.0276,1.9865,1.9409,1.9108,1.9108,1.9098,1.8922,1.8465,1.7585,1.7017,1.7017,1.6632,1.6413,1.6374,1.6374,1.6374,0.0,0.0,1.6374,1.6374,1.6413,1.6413,1.6413,0.0,0.0,1.6413,0.0,0.0,1.5157,1.4963,1.4349,1.3504,1.3486,1.3281,1.2923,1.2466,1.1957,1.1422,1.0952,1.0377,0.9799,0.9799,0.9799,0.9799,0.9799,0.9877,0.994,0.9699,0.9588,0.9588,0.9588,0.9588,0.9588,0.9588,0.9588,0.9588,0.9588,0.9588,0.9588,0.9588,0.9588,0.9588,0.9588,0.9588,0.9588,0.9588,0.9588,0.9716,1.0046,0.0,0.0,0.0,0.0,0.0,0.0,1.0097,1.0097,1.007,0.0,0.0,0.0,0.0,0.0,0.0,0.0,0.0,0.7671,0.7496,0.0,0.718,0.6743,0.6743,0.7185,0.719,0.7299,0.7489,0.7297,0.7204,0.7167,0.6979,0.6913,0.6927,0.7182,0.7151,0.692,0.719,0.7035,0.6726,0.6923,0.6759,0.6448,2.0928,2.0866,2.0788,2.0633,2.0488,2.0276,1.9865,1.9668,1.9461,1.915,1.9108,1.9046,1.8901,1.805,1.7482,0.0,1.6819,1.6413,0.0,1.6413,1.6413,1.6413,1.6413,1.6413,1.6413,1.6413,1.6413,1.6413,0.0,0.0,0.0,1.6731,1.6449,1.6019,1.5951,1.5515,1.4773,1.4544,1.4082,1.3421,1.2716,1.2279,1.1974,1.1523,1.12,1.0981,1.0625,1.048,1.0429,1.0051,0.9973,0.9999,0.9888,0.981,0.9758,0.9836,0.981,0.9758,0.9836,0.9818,0.974,0.974,0.9673,0.9588,0.9588,0.9588,0.9588,0.9588,0.9588,0.9614,0.9706,0.974,0.9795,1.0004,0.0,0.0,0.0,0.0,0.0,0.0,0.0,0.9801,0.0,0.9895,0.0,0.0,0.0,0.0,0.0,0.0,0.0,0.0,0.8011,0.0,0.8407,0.8143,0.8203,0.8561,0.8711,0.8574,0.8172,0.7774,0.7531,0.7405,0.7483,0.7432,0.7302,0.7239,0.7193,0.71,0.7185,0.722,0.7246,0.7301,0.7348,0.7327,2.0447,2.0385,2.0385,2.0385,2.0286,2.0079,1.9834,1.9647,1.943,1.9139,1.9108,1.9108,1.9108,1.8413,0.0,1.7719,1.7057,0.0,1.6423,1.6413,1.6413,1.6413,1.6413,1.6413,1.6413,0.0,0.0,1.6413,1.6653,1.6769,1.6769,1.6769,1.6643,1.6413,1.6413,1.6173,1.5748,1.5355,1.4905,1.4372,1.3511,1.3022,1.2709,1.2218,1.1888,1.1641,1.1309,1.1191,1.1116,1.0787,1.0719,1.0727,1.0531,1.0377,1.0223,1.0051,0.9947,0.9895,0.9973,0.9947,0.9877,0.9825,0.974,0.9673,0.9673,0.9673,0.9699,0.9751,0.9699,0.9706,0.9844,0.9825,0.9851,0.9973,0.0,0.987,0.0,0.0,0.0,0.0,0.0,0.0,0.0,1.0012,0.0,0.0,0.0,0.0,0.0,0.0,0.0,0.8852,0.8586,0.0,0.8896,0.889,0.9023,0.9327,0.9253,0.9017,0.8602,0.8132,0.7947,0.7981,0.7856,0.7822,0.7852,0.7546,0.7418,0.7445,0.7515,0.7584,0.7611,0.7689,0.7676,0.7575,2.0343,2.0312,0.0,0.0,1.9986,0.0,1.9741,1.9378,1.9108,1.9108,1.9108,1.9108,1.9108,1.8714,1.8247,1.7781,0.0,0.0,0.0,1.6413,1.6413,1.6413,1.6413,0.0,1.6413,1.6413,1.6413,1.6413,1.6413,1.6413,1.6413,1.6413,1.6413,1.6413,1.6413,1.6413,1.6381,1.5918,1.5722,1.5608,1.4718,1.4023,1.3494,1.3027,1.2463,1.1913,1.1888,1.1864,1.1864,1.1839,1.1907,1.1934,1.1494,1.1217,1.093,1.0275,1.0076,1.0076,1.0102,1.0076,1.0025,0.9877,0.9825,0.9825,0.9825,0.9825,0.9851,0.9973,0.9895,0.9844,0.9999,0.9921,0.987,0.9999,1.0025,1.0025,1.0025,0.0,0.0,0.0,0.0,0.0,0.0,1.0369,1.0229,0.0,0.0,0.0,0.0,0.0,0.0,0.8897,0.9187,0.919,0.888,0.9161,0.9439,0.9676,0.9191,0.8979,0.8984,0.8494,0.8498,0.8856,0.8234,0.8199,0.8538,0.8124,0.7938,0.7933,0.8131,0.8142,0.7989,0.8188,0.7915,0.751,0.0,0.0,1.943,1.943,1.9336,1.9264,1.9264,1.917,1.9108,1.9108,1.9108,1.9108,1.9108,1.9005,1.8756,1.8268,1.7471,1.6831,1.6444,1.6413,1.6413,1.6413,1.6413,1.6413,1.6413,1.6413,1.6413,1.6413,1.6413,1.6413,1.6413,1.6413,1.6413,1.6413,1.6413,1.6413,1.6402,1.6288,1.6039,1.5639,1.507,1.4538,1.4067,1.3593,1.3314,1.3112,1.2716,1.256,1.2496,1.2089,1.1974,1.1983,1.1884,1.181,1.1651,1.1141,1.0888,1.0804,1.0939,1.0888,1.0676,1.029,1.0058,0.9947,0.9947,0.9947,0.9973,0.9999,0.9973,0.9999,1.0187,1.0187,1.0239,1.0368,1.029,1.0239,1.0239,0.0,0.0,0.0,1.0094,1.0147,1.0337,1.0311,1.0497,0.0,0.0,0.0,0.0,0.0,1.04,0.9805,0.987,1.0122,1.0523,1.0608,1.0918,1.1395,1.1028,1.0861,1.0834,1.0378,1.0009,0.9728,0.9713,0.9545,0.928,0.9412,0.9334,0.9125,0.9439,0.9605,0.9724,0.9773,0.9558,0.9253,1.9564,1.9274,1.9108,1.9108,1.9108,1.9108,1.9108,1.9108,1.9108,1.9108,1.9108,1.9108,1.9108,1.9108,1.8911,1.8445,1.7936,1.7378,1.6726,1.6684,1.6591,1.6413,1.6413,1.6413,1.6413,1.6413,1.6413,1.6413,1.6413,1.6413,1.6413,1.6413,1.6413,1.6413,1.6413,1.6413,1.6392,1.6184,1.5822,1.5328,1.4863,1.4407,1.3983,1.3952,1.3796,1.3594,1.3498,1.3365,1.3112,1.2832,1.2735,1.2686,1.2433,1.2359,1.231,1.2073,1.1726,1.1476,1.1585,1.1385,1.0989,1.0445,1.0162,1.0025,1.0136,1.0259,1.0393,1.0446,1.0419,1.0419,1.0585,1.0452,1.0342,1.047,1.0445,1.0393,1.0393,1.029,0.0,1.0449,1.0393,1.0481,1.0816,1.0805,1.0934,1.1374,0.0,0.0,1.1177,1.1184,1.0946,1.0357,1.053,1.0827,1.1189,1.1393,1.1765,1.2229,1.182,1.1645,1.1623,1.1164,1.0915,1.0807,1.0598,1.0489,1.0383,1.0273,1.0187,1.0107,1.0287,1.0476,1.0671,1.0671,1.0526,1.0299,1.9651,1.9362,1.9212,1.9212,1.915,1.9108,1.9108,1.9108,1.9108,1.9108,1.9108,1.9108,1.9108,1.9108,1.8942,1.8548,1.8517,1.8102,1.7182,1.7048,1.6841,1.6498,1.6444,1.6413,1.6413,1.6413,1.6413,1.6413,1.6413,1.6413,1.6413,1.6413,1.6413,1.6413,1.6413,1.6413,1.6381,1.596,1.5525,1.507,1.4676,1.4242,1.3845,1.4262,1.4169,1.3845,1.419,1.4031,1.369,1.3617,1.3597,1.3515,1.3064,1.2909,1.2909,1.2909,1.2604,1.2221,1.2147,1.1821,1.1378,1.0791,1.0522,1.0405,1.0595,1.086,1.1101,1.1201,1.1201,1.1212,1.1236,1.0846,1.0591,1.0743,1.0611,1.0528,1.0631,0.0,1.0687,1.0963,1.0934,1.1076,1.1463,1.141,1.1398,1.1567,1.1519,0.0,0.0,1.1451,1.1321,1.0914,1.1192,1.1361,1.1413,1.1882,1.2248,1.2526,1.2221,1.2067,1.2045,1.1635,1.1664,1.1964,1.1388,1.1326,1.1614,1.1084,1.094,1.1075,1.1119,1.1245,1.1384,1.1384,1.1217,1.1039,2.181,2.0663,1.9689,1.9689,1.9357,1.9108,1.9108,1.9108,1.9108,1.9108,1.9108,1.9108,1.9108,1.9108,1.9077,1.9005,1.8994,1.8578,1.7657,1.7234,1.6986,1.6913,1.6581,1.6413,1.6413,1.6413,1.6413,1.6413,1.6413,1.6413,1.6413,1.6413,1.6413,1.6413,1.6413,1.6413,1.6402,1.633,1.6029,1.5577,1.5504,1.5194,1.479,1.4863,1.4852,1.4738,1.4417,1.4262,1.4138,1.3721,1.3597,1.3597,1.3491,1.3491,1.3491,1.3491,1.342,1.3242,1.2798,1.2579,1.2457,1.2354,1.2219,1.2119,1.2146,1.2189,1.2231,1.2259,1.2661,1.2878,1.2508,1.2,1.1735,1.1986,1.1162,1.0695,0.0,0.0,1.0939,1.0995,1.1241,1.1403,1.1487,1.1487,1.1614,1.1908,1.1654,1.1622,1.1887,1.2196,1.2369,1.2291,1.1803,1.1691,1.1974,1.2458,1.271,1.277,1.3098,1.3237,1.3237,1.3171,1.3021,1.2826,1.2685,1.2541,1.2364,1.2534,1.245,1.2272,1.2543,1.2678,1.2721,1.2721,1.2418,1.2015,2.2249,2.147,2.0786,2.0355,2.0014,1.9799,1.9799,1.9637,1.9564,1.9768,1.9409,1.9202,1.945,1.9253,1.9108,1.9108,1.9108,1.8922,1.8475,1.7771,1.7275,1.7027,1.6612,1.6413,1.6413,1.6413,1.6413,1.6413,1.6413,1.6413,1.6413,1.6413,1.6413,1.6413,1.6413,1.6413,1.6413,1.6413,1.6143,1.5691,1.5691,1.5411,1.5028,1.5277,1.5214,1.4976,1.4749,1.4521,1.4242,1.3752,1.3597,1.3597,1.3597,1.3597,1.3638,1.3896,1.3983,1.3861,1.3313,1.3349,1.3432,1.3142,1.304,1.2995,1.2995,1.313,1.3263,1.3263,1.3478,1.3608,1.3396,1.2796,1.2352,1.2395,1.1571,0.0,0.0,1.1209,1.1138,1.1503,1.1686,1.1853,1.2081,1.2097,1.2218,1.2567,1.2266,1.2328,1.283,1.2885,1.2877,1.2877,1.268,1.2675,1.2915,1.3127,1.3328,1.3494,1.3705,1.3811,1.3811,1.3811,1.3664,1.3415,1.3415,1.3291,1.306,1.3206,1.3184,1.306,1.3214,1.3272,1.3272,1.3272,1.3143,1.2915,2.3018,2.2455,2.1959,2.1314,2.0839,2.0527,2.0527,2.0271,2.0177,2.045,1.9889,1.9588,1.9917,1.9637,1.9378,1.9274,1.9264,1.9222,1.9108,1.8362,1.7719,1.7192,1.6674,1.6413,1.6413,1.6413,1.6413,1.6413,1.6413,1.6413,1.6413,1.6413,1.6413,1.6413,1.6413,1.6413,1.6413,1.6413,1.6205,1.5846,1.5846,1.5639,1.5359,1.5739,1.5628,1.5308,1.5194,1.4863,1.4417,1.4055,1.3845,1.3772,1.3876,1.3941,1.4003,1.4366,1.4542,1.4502,1.3986,1.4182,1.4456,1.4042,1.3891,1.3847,1.3847,1.4073,1.4241,1.4241,1.4355,1.4393,1.4138,1.3605,1.3155,1.2933,0.0,0.0,0.0,1.1736,1.172,1.2083,1.2289,1.2496,1.2805,1.2829,1.2941,1.3187,1.2981,1.306,1.3553,1.3418,1.337,1.3449,1.3382,1.3429,1.3592,1.3642,1.3769,1.405,1.4091,1.4093,1.4093,1.4093,1.4038,1.3902,1.3827,1.377,1.3711,1.3558,1.3543,1.3601,1.3521,1.3543,1.3609,1.3609,1.3609,1.3594,2.554,2.4073,2.2823,2.2753,2.1751,2.0952,2.0952,2.0921,2.0875,2.0694,2.0607,2.0504,2.0369,2.0312,2.0151,1.9782,1.9741,1.9564,1.9129,1.8792,1.8322,1.7678,1.685,1.6413,1.6413,1.6413,1.6413,1.6413,1.6413,1.6413,1.6413,1.6413,1.6413,1.6413,1.6413,1.6413,1.6413,1.6413,1.6392,1.6361,1.6361,1.634,1.6309,1.635,1.634,1.6247,1.5784,1.5339,1.4945,1.4914,1.4614,1.4335,1.4759,1.4894,1.4904,1.4935,1.5245,1.5494,1.5007,1.5233,1.5574,1.5547,1.5397,1.5255,1.5255,1.5284,1.5303,1.5303,1.5786,1.5894,1.4834,1.4679,1.4608,1.4225,0.0,0.0,1.3344,1.3339,1.3146,1.2604,1.3116,1.3481,1.3538,1.3538,1.3554,1.3578,1.3554,1.3562,1.361,1.387,1.4188,1.4478,1.3583,1.329,1.3583,1.3737,1.3805,1.3828,1.4012,1.4093,1.4093,1.4093,1.4167,1.4238,1.3925,1.403,1.4394,1.374,1.3675,1.3916,1.3616,1.3682,1.3945,1.3945,1.3945,1.3901,2.601,2.4626,2.3474,2.3474,2.2579,2.186,2.186,2.1615,2.153,2.1718,2.1242,2.0952,2.1176,2.0955,2.0702,2.0569,2.027,2.0039,1.9849,1.9473,1.8849,1.7915,1.7308,1.6905,1.6758,1.6519,1.6413,1.6413,1.6413,1.6413,1.6413,1.6413,1.6413,1.6413,1.6413,1.6413,1.6413,1.6413,1.6413,1.6413,1.6413,1.6413,1.6413,1.6413,1.6413,1.635,1.5884,1.5577,1.538,1.509,1.4883,1.4769,1.4945,1.4997,1.5059,1.5339,1.578,1.6136,1.6211,1.6198,1.6143,1.6143,1.6069,1.6019,1.6019,1.6019,1.609,1.6334,1.6601,1.6731,1.6596,1.6353,1.6127,1.5898,0.0,1.4811,1.4907,1.4745,1.4444,1.3973,1.4145,1.4115,1.3651,1.3618,1.368,1.3894,1.3703,1.3775,1.422,1.4122,1.424,1.4589,1.4045,1.3886,1.4236,1.4265,1.4293,1.4293,1.4355,1.4425,1.4425,1.4425,1.4387,1.4336,1.409,1.4034,1.4052,1.3888,1.3748,1.3704,1.4027,1.4048,1.4042,1.4247,1.432,1.4306,2.6586,2.551,2.4612,2.4612,2.3683,2.2942,2.2942,2.2449,2.2289,2.2787,2.2281,2.2059,2.2567,2.2339,2.2015,2.1626,2.1157,2.0696,2.0328,1.9904,1.9254,1.8311,1.7659,1.7244,1.7106,1.6775,1.6519,1.6413,1.6576,1.6576,1.6413,1.6576,1.6566,1.6413,1.6413,1.6413,1.6413,1.6413,1.6413,1.6413,1.6413,1.6413,1.6413,1.6413,1.6413,1.6361,1.605,1.5842,1.5659,1.5484,1.5339,1.5245,1.539,1.5432,1.5494,1.5842,1.6229,1.6622,1.6758,1.6819,1.6808,1.6808,1.6808,1.6808,1.6808,1.6808,1.6891,1.7161,1.7234,1.7266,1.7389,1.7318,1.7114,1.6858,1.6486,1.6247,1.6138,1.6018,1.5765,1.5272,1.5314,1.5184,1.4673,1.4411,1.4382,1.4635,1.4183,1.409,1.4581,1.4375,1.4351,1.4597,1.4367,1.4359,1.4597,1.4605,1.4605,1.4605,1.4605,1.466,1.4771,1.466,1.4651,1.4709,1.4338,1.4187,1.4171,1.4074,1.4037,1.4015,1.4332,1.4353,1.4279,1.4533,1.4553,1.4511,2.749,2.6905,2.638,2.638,2.5122,2.4108,2.4108,2.3486,2.3202,2.3745,2.3818,2.4024,2.4625,2.4696,2.4212,2.3031,2.243,2.1605,2.0384,2.0071,1.9587,1.8956,1.7899,1.7313,1.7313,1.7106,1.68,1.6413,1.7005,1.6994,1.6423,1.7034,1.6974,1.6413,1.6413,1.6413,1.6413,1.6413,1.6413,1.6413,1.6413,1.6413,1.6413,1.6413,1.6413,1.6413,1.6413,1.6112,1.579,1.6247,1.6102,1.5773,1.6267,1.6413,1.6413,1.6413,1.6694,1.6924,1.6508,1.7057,1.7709,1.7699,1.7699,1.7699,1.7699,1.7699,1.7699,1.7709,1.7709,1.7512,1.6918,1.7294,1.7523,1.6918,1.7325,1.7491,1.6918,1.7103,1.7085,1.6405,1.6683,1.6897,1.6897,1.621,1.5798,1.5798,1.5062,1.4605,1.4605,1.4605,1.4605,1.4605,1.4605,1.4605,1.4605,1.4605,1.4605,1.4605,1.4605,1.4795,1.5173,1.4771,1.4883,1.535,1.4694,1.4624,1.4965,1.4332,1.4499,1.5034,1.4532,1.4523,1.4792,1.4896,1.4735,1.4511,2.739,2.6496,2.5791,2.6311,2.5604,2.4933,2.4933,2.4767,2.4659,2.4826,2.4862,2.4933,2.5099,2.5111,2.498,2.4614,2.4153,2.3163,2.1608,2.0268,1.9629,1.9727,1.9038,1.8581,1.8426,1.8036,1.7763,1.7666,1.7525,1.7366,1.7159,1.7019,1.686,1.6697,1.7032,1.717,1.7191,1.742,1.7348,1.7015,1.6869,1.6653,1.6413,1.6413,1.6413,1.6413,1.6413,1.6319,1.6198,1.6361,1.6319,1.6226,1.6361,1.6591,1.681,1.681,1.7141,1.7533,1.774,1.7978,1.803,1.7368,1.7461,1.7699,1.7699,1.7699,1.7781,1.8123,1.8185,1.8256,1.8381,1.8573,1.8606,1.8432,1.8573,1.8606,1.8432,1.8512,1.8318,1.7562,1.761,1.7276,1.621,1.5939,1.5551,1.4991,1.4748,1.4605,1.4605,1.4605,1.4605,1.4605,1.4605,1.4724,1.5022,1.5022,1.4895,1.4605,1.4903,1.5078,1.5173,1.4771,1.4822,1.5241,1.4665,1.447,1.4591,1.4475,1.443,1.4438,1.4699,1.4759,1.4676,1.4901,1.4922,1.4832,2.7423,2.6769,2.6311,2.6769,2.6242,2.5721,2.5721,2.5488,2.5406,2.5699,2.5721,2.5861,2.6139,2.6173,2.6035,2.5756,2.482,2.3721,2.2483,2.1187,2.0594,2.0869,2.0543,1.9918,1.903,1.8905,1.857,1.7933,1.8165,1.7915,1.7211,1.7184,1.7141,1.7084,1.736,1.7613,1.7775,1.7992,1.7889,1.7587,1.7426,1.7106,1.6643,1.6643,1.6643,1.6643,1.6643,1.6757,1.6912,1.6912,1.6912,1.6912,1.6912,1.7068,1.7285,1.7285,1.7606,1.8009,1.8102,1.8382,1.8507,1.775,1.7926,1.8257,1.8257,1.8257,1.8392,1.887,1.8953,1.9046,1.9326,1.9523,1.9541,1.9409,1.9378,1.9378,1.9378,1.9222,1.8931,1.8486,1.8452,1.8173,1.7441,1.6963,1.6341,1.5578,1.5515,1.5432,1.5266,1.5275,1.5195,1.5046,1.4927,1.5022,1.538,1.538,1.5268,1.5054,1.5276,1.5451,1.5578,1.5213,1.5173,1.5356,1.4904,1.4631,1.4477,1.4579,1.4581,1.4558,1.4819,1.4858,1.4719,1.4935,1.4934,1.4828,2.7568,2.7529,2.749,2.749,2.6939,2.6483,2.6483,2.5931,2.5721,2.6414,2.6483,2.6769,2.7423,2.749,2.7222,2.6564,2.489,2.3663,2.3188,2.2549,2.2161,2.2101,2.2101,2.1269,1.9494,1.9898,1.9379,1.7895,1.9088,1.8841,1.7226,1.7741,1.7856,1.7718,1.7672,1.791,1.8315,1.8327,1.8276,1.8101,1.8101,1.7695,1.7098,1.7098,1.7098,1.7098,1.7098,1.7367,1.7729,1.7729,1.7729,1.7729,1.7729,1.7761,1.7792,1.7792,1.8134,1.8393,1.7957,1.8454,1.9015,1.8631,1.8849,1.917,1.917,1.917,1.9295,1.9761,1.9855,1.9855,1.9855,2.0151,2.0296,1.9917,1.9855,1.9844,1.9803,1.943,1.917,1.917,1.9129,1.9261,1.9699,1.87,1.7734,1.7077,1.7007,1.6856,1.6508,1.6452,1.6311,1.5926,1.5643,1.5643,1.5982,1.599,1.5898,1.5712,1.5744,1.5888,1.619,1.5809,1.5688,1.5696,1.5292,1.4951,1.4605,1.4605,1.4839,1.5133,1.4895,1.4821,1.4867,1.4935,1.4812,1.4597,2.819,2.7837,2.749,2.749,2.7356,2.7255,2.7255,2.7121,2.7074,2.7255,2.7255,2.7323,2.749,2.749,2.7423,2.7289,2.6033,2.5028,2.4466,2.3379,2.259,2.2125,2.2101,2.1899,2.1471,2.1552,2.1445,2.1099,2.1015,2.0783,2.0382,1.9632,1.926,1.9213,1.9069,1.9033,1.9163,1.9436,1.9307,1.8942,1.8785,1.8405,1.795,1.795,1.795,1.795,1.795,1.8014,1.8109,1.8109,1.8027,1.7946,1.7946,1.8197,1.849,1.849,1.8783,1.9074,1.898,1.9029,1.917,1.943,1.9564,1.9647,1.9647,1.9647,1.9772,2.0182,2.0276,2.0276,2.0276,2.0358,2.0354,2.0296,2.0276,2.0162,1.9844,1.971,1.9647,1.9647,1.9326,1.9182,1.9402,1.8653,1.8098,1.7916,1.7916,1.788,1.7788,1.7788,1.7759,1.7646,1.7574,1.7726,1.813,1.8139,1.729,1.572,1.596,1.6134,1.6182,1.557,1.5465,1.568,1.5022,1.4676,1.4605,1.4605,1.4653,1.4724,1.468,1.4644,1.4651,1.4686,1.4634,1.4571,2.8085,2.7954,2.785,2.7542,2.749,2.749,2.749,2.749,2.749,2.749,2.749,2.749,2.749,2.749,2.749,2.749,2.6692,2.6031,2.5724,2.4868,2.4092,2.3527,2.3489,2.3346,2.3053,2.304,2.2632,2.1759,2.1839,2.1611,2.1064,2.0468,2.0293,2.05,2.0068,1.9988,2.0202,2.0063,1.9825,1.9522,1.9426,1.9051,1.852,1.852,1.852,1.852,1.852,1.8669,1.8871,1.8871,1.8807,1.8754,1.8659,1.8859,1.9124,1.8994,1.9195,1.9459,1.959,1.9408,1.9341,1.9948,1.9948,1.9855,2.0027,2.0079,2.0203,2.0659,2.0715,2.0715,2.0715,2.0938,2.101,2.0757,2.0715,2.0669,2.0441,2.0224,2.0079,2.0079,1.9862,1.9764,1.9823,1.969,1.9509,1.9258,1.9248,1.919,1.9031,1.9004,1.8939,1.8747,1.8571,1.8673,1.904,1.8865,1.8323,1.7406,1.7603,1.7468,1.707,1.6698,1.625,1.5696,1.5292,1.4951,1.4605,1.4605,1.4605,1.4605,1.4605,1.4605,1.4605,1.4605,1.4605,1.4605,2.8129,2.819,2.8229,2.7758,2.7555,2.749,2.749,2.749,2.749,2.749,2.749,2.749,2.749,2.749,2.749,2.749,2.7092,2.6811,2.6719,2.6138,2.5615,2.5175,2.4953,2.4648,2.4269,2.4164,2.3356,2.1869,2.2435,2.2209,2.1289,2.1162,2.1306,2.1649,2.1,2.0908,2.1219,2.0667,2.0388,2.028,2.015,1.9781,1.9264,1.9147,1.9116,1.9116,1.9116,1.9372,1.9681,1.9681,1.9681,1.9605,1.945,1.9569,1.9732,1.9566,1.9686,1.9935,2.0157,1.991,1.9748,2.0444,2.0371,2.025,2.0663,2.0632,2.0633,2.1135,2.1238,2.1238,2.1238,2.1549,2.1683,2.13,2.1238,2.1207,2.1124,2.0746,2.0509,2.0509,2.0581,2.0591,2.0519,2.0922,2.1073,2.0653,2.0622,2.0533,2.0226,2.0218,2.0061,1.9728,1.9457,1.9447,1.9728,1.9457,1.9457,1.9737,1.9737,1.9107,1.7997,1.7929,1.7102,1.5712,1.5656,1.5229,1.4605,1.4605,1.4605,1.4605,1.4605,1.4605,1.4605,1.4605,1.4605,1.4605,2.9774,2.9026,2.8381,2.8281,2.7863,2.749,2.749,2.749,2.749,2.749,2.749,2.749,2.749,2.749,2.749,2.749,2.7425,2.7196,2.6745,2.6138,2.5754,2.5675,2.4766,2.4426,2.4874,2.4374,2.3985,2.3748,2.382,2.3781,2.3645,2.3065,2.281,2.2855,2.2177,2.1918,2.1947,2.1865,2.1834,2.176,2.1155,2.0899,2.0746,2.016,1.9944,1.9944,1.9944,1.9998,2.0042,2.0042,1.9944,1.9835,1.9835,2.0125,2.0459,2.0425,2.0715,2.1094,2.1124,2.093,2.0889,2.1394,2.1479,2.1553,2.203,2.156,2.1155,2.1621,2.1714,2.1714,2.1714,2.1766,2.1787,2.1725,2.1714,2.1569,2.1176,2.1062,2.1021,2.1021,2.1373,2.1455,2.1062,2.1445,2.1683,2.1621,2.1621,2.1604,2.1552,2.1562,2.1507,2.1443,2.1431,2.1431,2.1443,2.1431,2.1431,2.1454,2.1454,2.0255,1.7989,1.7694,1.6891,1.5696,1.538,1.5022,1.4605,1.4605,1.4605,1.4605,1.4605,1.4605,1.4605,1.4605,1.4605,1.4605,2.9784,2.9497,2.9157,2.849,2.8177,2.7902,2.7542,2.749,2.749,2.749,2.749,2.749,2.749,2.749,2.749,2.749,2.749,2.7385,2.717,2.6889,2.6634,2.6321,2.5811,2.5367,2.5005,2.4756,2.4439,2.4083,2.4439,2.4426,2.4096,2.4145,2.3987,2.3632,2.2967,2.2652,2.2622,2.2255,2.2101,2.207,2.1772,2.1647,2.1616,2.1345,2.0976,2.0603,2.0237,2.0282,2.05,2.0205,2.026,2.0444,2.0344,2.0702,2.1127,2.1023,2.1209,2.1507,2.1649,2.1424,2.1321,2.195,2.1881,2.1881,2.2626,2.2283,2.1849,2.1956,2.1959,2.1911,2.1807,2.1807,2.1807,2.1807,2.1883,2.1886,2.1678,2.1647,2.1609,2.1497,2.1683,2.1725,2.1518,2.1683,2.1807,2.1807,2.1807,2.1807,2.1807,2.1807,2.1807,2.1807,2.1807,2.1807,2.1807,2.1807,2.1807,2.1807,2.1807,2.0972,1.9374,1.9007,1.7964,1.6421,1.5989,1.5369,1.4605,1.4605,1.4605,1.4605,1.4605,1.4605,1.4605,1.4605,1.4605,1.4605]}]]